[[{"header":{"parameterUnit":"m.s-1","parameterCategory":1,"la1":30.6,"la2":28.766,"lo1":-90.7593,"lo2":-88.6598,"dy":0.0162,"dx":0.0183,"nx":116,"ny":114,"refTime":"2023-07-03T06:00:00:Z","depth":0,"parameterNumber":2,"parameterNumberName":"U-component_of_WINDS"},"data":[0.0,0.0,0.0,0.0,0.0,0.0,0.0,0.0,0.0,0.0,0.0,0.0,0.0,0.0,0.0,0.0,0.0,0.0,0.0,0.0,0.0,0.0,0.0,0.0,0.0,0.0,0.0,0.0,0.0,0.0,0.0,0.0,0.0,0.0,0.0,0.0,0.0,0.0,0.0,0.0,0.0,0.0,0.0,0.0,0.0,0.0,0.0,0.0,0.0,0.0,0.0,0.0,0.0,0.0,0.0,0.0,0.0,0.0,0.0,0.0,0.0,0.0,0.0,0.0,0.0,0.0,0.0,0.0,0.0,0.0,0.0,0.0,0.0,0.0,0.0,0.0,0.0,0.0,0.0,0.0,0.0,0.0,0.0,0.0,0.0,0.0,0.0,0.0,0.0,0.0,0.0,0.0,0.0,0.0,0.0,0.0,0.0,0.0,0.0,0.0,0.0,0.0,0.0,0.0,0.0,0.0,0.0,0.0,0.0,0.0,0.0,0.0,0.0,0.0,0.0,0.0,0.0,0.0,0.0,0.0,0.0,0.0,0.0,0.0,0.0,0.0,0.0,0.0,0.0,0.0,0.0,0.0,0.0,0.0,0.0,0.0,0.0,0.0,0.0,0.0,0.0,0.0,0.0,0.0,0.0,0.0,0.0,0.0,0.0,0.0,0.0,0.0,0.0,0.0,0.0,0.0,0.0,0.0,0.0,0.0,0.0,0.0,0.0,0.0,0.0,0.0,0.0,0.0,0.0,0.0,0.0,0.0,0.0,0.0,0.0,0.0,0.0,0.0,0.0,0.0,0.0,0.0,0.0,0.0,0.0,0.0,0.0,0.0,0.0,0.0,0.0,0.0,0.0,0.0,0.0,0.0,0.0,0.0,0.0,0.0,0.0,0.0,0.0,0.0,0.0,0.0,0.0,0.0,0.0,0.0,0.0,0.0,0.0,0.0,0.0,0.0,0.0,0.0,0.0,0.0,0.0,0.0,0.0,0.0,0.0,0.0,0.0,0.0,0.0,0.0,0.0,0.0,0.0,0.0,0.0,0.0,0.0,0.0,0.0,0.0,0.0,0.0,0.0,0.0,0.0,0.0,0.0,0.0,0.0,0.0,0.0,0.0,0.0,0.0,0.0,0.0,0.0,0.0,0.0,0.0,0.0,0.0,0.0,0.0,0.0,0.0,0.0,0.0,0.0,0.0,0.0,0.0,0.0,0.0,0.0,0.0,0.0,0.0,0.0,0.0,0.0,0.0,0.0,0.0,0.0,0.0,0.0,0.0,0.0,0.0,0.0,0.0,0.0,0.0,0.0,0.0,0.0,0.0,0.0,0.0,0.0,0.0,0.0,0.0,0.0,0.0,0.0,0.0,0.0,0.0,0.0,0.0,0.0,0.0,0.0,0.0,0.0,0.0,0.0,0.0,0.0,0.0,0.0,0.0,0.0,0.0,0.0,0.0,0.0,0.0,0.0,0.0,0.0,0.0,0.0,0.0,0.0,0.0,0.0,0.0,0.0,0.0,0.0,0.0,0.0,0.0,0.0,0.0,0.0,0.0,0.0,0.0,0.0,0.0,0.0,0.0,0.0,0.0,0.0,0.0,0.0,0.0,0.0,0.0,0.0,0.0,0.0,0.0,0.0,0.0,0.0,0.0,0.0,0.0,0.0,0.0,0.0,0.0,0.0,0.0,0.0,0.0,0.0,0.0,0.0,0.0,0.0,0.0,0.0,0.0,0.0,0.0,0.0,0.0,0.0,0.0,0.0,0.0,0.0,0.0,0.0,0.0,0.0,0.0,0.0,0.0,0.0,0.0,0.0,0.0,0.0,0.0,0.0,0.0,0.0,0.0,0.0,0.0,0.0,0.0,0.0,0.0,0.0,0.0,0.0,0.0,0.0,0.0,0.0,0.0,0.0,0.0,0.0,0.0,0.0,0.0,0.0,0.0,0.0,0.0,0.0,0.0,0.0,0.0,0.0,0.0,0.0,0.0,0.0,0.0,0.0,0.0,0.0,0.0,0.0,0.0,0.0,0.0,0.0,0.0,0.0,0.0,0.0,0.0,0.0,0.0,0.0,0.0,0.0,0.0,0.0,0.0,0.0,0.0,0.0,0.0,0.0,0.0,0.0,0.0,0.0,0.0,0.0,0.0,0.0,0.0,0.0,0.0,0.0,0.0,0.0,0.0,0.0,0.0,0.0,0.0,0.0,0.0,0.0,0.0,0.0,0.0,0.0,0.0,0.0,0.0,0.0,0.0,0.0,0.0,0.0,0.0,0.0,0.0,0.0,0.0,0.0,0.0,0.0,0.0,0.0,0.0,0.0,0.0,0.0,0.0,0.0,0.0,0.0,0.0,0.0,0.0,0.0,0.0,0.0,0.0,0.0,0.0,0.0,0.0,0.0,0.0,0.0,0.0,0.0,0.0,0.0,0.0,0.0,0.0,0.0,0.0,0.0,0.0,0.0,0.0,0.0,0.0,0.0,0.0,0.0,0.0,0.0,0.0,0.0,0.0,0.0,0.0,0.0,0.0,0.0,0.0,0.0,0.0,0.0,0.0,0.0,0.0,0.0,0.0,0.0,0.0,0.0,0.0,0.0,0.0,0.0,0.0,0.0,0.0,0.0,0.0,0.0,0.0,0.0,0.0,0.0,0.0,0.0,0.0,0.0,0.0,0.0,0.0,0.0,0.0,0.0,0.0,0.0,0.0,0.0,0.0,0.0,0.0,0.0,0.0,0.0,0.0,0.0,0.0,0.0,0.0,0.0,0.0,0.0,0.0,0.0,0.0,0.0,0.0,0.0,0.0,0.0,0.0,0.0,0.0,0.0,0.0,0.0,0.0,0.0,0.0,0.0,0.0,0.0,0.0,0.0,0.0,0.0,0.0,0.0,0.0,0.0,0.0,0.0,0.0,0.0,0.0,0.0,0.0,0.0,0.0,0.0,0.0,0.0,0.0,0.0,0.0,0.0,0.0,0.0,0.0,0.0,0.0,0.0,0.0,0.0,0.0,0.0,0.0,0.0,0.0,0.0,0.0,0.0,0.0,0.0,0.0,0.0,0.0,0.0,0.0,0.0,0.0,0.0,0.0,0.0,0.0,0.0,0.0,0.0,0.0,0.0,0.0,0.0,0.0,0.0,0.0,0.0,0.0,0.0,0.0,0.0,0.0,0.0,0.0,0.0,0.0,0.0,0.0,0.0,0.0,0.0,0.0,0.0,0.0,0.0,0.0,0.0,0.0,0.0,0.0,0.0,0.0,0.0,0.0,0.0,0.0,0.0,0.0,0.0,0.0,0.0,0.0,0.0,0.0,0.0,0.0,0.0,0.0,0.0,0.0,0.0,0.0,0.0,0.0,0.0,0.0,0.0,0.0,0.0,0.0,0.0,0.0,0.0,0.0,0.0,0.0,0.0,0.0,0.0,0.0,0.0,0.0,0.0,0.0,0.0,0.0,0.0,0.0,0.0,0.0,0.0,0.0,0.0,0.0,0.0,0.0,0.0,0.0,0.0,0.0,0.0,0.0,0.0,0.0,0.0,0.0,0.0,0.0,0.0,0.0,0.0,0.0,0.0,0.0,0.0,0.0,0.0,0.0,0.0,0.0,0.0,0.0,0.0,0.0,0.0,0.0,0.0,0.0,0.0,0.0,0.0,0.0,0.0,0.0,0.0,0.0,0.0,0.0,0.0,0.0,0.0,0.0,0.0,0.0,0.0,0.0,0.0,0.0,0.0,0.0,0.0,0.0,0.0,0.0,0.0,0.0,0.0,0.0,0.0,0.0,0.0,0.0,0.0,0.0,0.0,0.0,0.0,0.0,0.0,0.0,0.0,0.0,0.0,0.0,0.0,0.0,0.0,0.0,0.0,0.0,0.0,0.0,0.0,0.0,0.0,0.0,0.0,0.0,0.0,0.0,0.0,0.0,0.0,0.0,0.0,0.0,0.0,0.0,0.0,0.0,0.0,0.0,0.0,0.0,0.0,0.0,0.0,0.0,0.0,0.0,0.0,0.0,0.0,0.0,0.0,0.0,0.0,0.0,0.0,0.0,0.0,0.0,0.0,0.0,0.0,0.0,0.0,0.0,0.0,0.0,0.0,0.0,0.0,0.0,0.0,0.0,0.0,0.0,0.0,0.0,0.0,0.0,0.0,0.0,0.0,0.0,0.0,0.0,0.0,0.0,0.0,0.0,0.0,0.0,0.0,0.0,0.0,0.0,0.0,0.0,0.0,0.0,0.0,0.0,0.0,0.0,0.0,0.0,0.0,0.0,0.0,0.0,0.0,0.0,0.0,0.0,0.0,0.0,0.0,0.0,0.0,0.0,0.0,0.0,0.0,0.0,0.0,0.0,0.0,0.0,0.0,0.0,0.0,0.0,0.0,0.0,0.0,0.0,0.0,0.0,0.0,0.0,0.0,0.0,0.0,0.0,0.0,0.0,0.0,0.0,0.0,0.0,0.0,0.0,0.0,0.0,0.0,0.0,0.0,0.0,0.0,0.0,0.0,0.0,0.0,0.0,0.0,0.0,0.0,0.0,0.0,0.0,0.0,0.0,0.0,0.0,0.0,0.0,0.0,0.0,0.0,0.0,0.0,0.0,0.0,0.0,0.0,0.0,0.0,0.0,0.0,0.0,0.0,0.0,0.0,0.0,0.0,0.0,0.0,0.0,0.0,0.0,0.0,0.0,0.0,0.0,0.0,0.0,0.0,0.0,0.0,0.0,0.0,0.0,0.0,0.0,0.0,0.0,0.0,0.0,0.0,0.0,0.0,0.0,0.0,0.0,0.0,0.0,0.0,0.0,0.0,0.0,0.0,0.0,0.0,0.0,0.0,0.0,0.0,0.0,0.0,0.0,0.0,0.0,0.0,0.0,0.0,0.0,0.0,0.0,0.0,0.0,0.0,0.0,0.0,0.0,0.0,0.0,0.0,0.0,0.0,0.0,0.0,0.0,0.0,0.0,0.0,0.0,0.0,0.0,0.0,0.0,0.0,0.0,0.0,0.0,0.0,0.0,0.0,0.0,0.0,0.0,0.0,0.0,0.0,0.0,0.0,0.0,0.0,0.0,0.0,0.0,0.0,0.0,0.0,0.0,0.0,0.0,0.0,0.0,0.0,0.0,0.0,0.0,0.0,0.0,0.0,0.0,0.0,0.0,0.0,0.0,0.0,0.0,0.0,0.0,0.0,0.0,0.0,0.0,0.0,0.0,0.0,0.0,0.0,0.0,0.0,0.0,0.0,0.0,0.0,0.0,0.0,0.0,0.0,0.0,0.0,0.0,0.0,0.0,0.0,0.0,0.0,0.0,0.0,0.0,0.0,0.0,0.0,0.0,0.0,0.0,0.0,0.0,0.0,0.0,0.0,0.0,0.0,0.0,0.0,0.0,0.0,0.0,0.0,0.0,0.0,0.0,0.0,0.0,0.0,0.0,0.0,0.0,0.0,0.0,0.0,0.0,0.0,0.0,0.0,0.0,0.0,0.0,0.0,0.0,0.0,0.0,0.0,0.0,0.0,0.0,0.0,0.0,0.0,0.0,0.0,0.0,0.0,0.0,0.0,0.0,0.0,0.0,0.0,0.0,0.0,0.0,0.0,0.0,0.0,0.0,0.0,0.0,0.0,0.0,0.0,0.0,0.0,0.0,0.0,0.0,0.0,0.0,0.0,0.0,0.0,0.0,0.0,0.0,0.0,0.0,0.0,0.0,0.0,0.0,0.0,0.0,0.0,0.0,0.0,0.0,0.0,0.0,0.0,0.0,0.0,0.0,0.0,0.0,0.0,0.0,0.0,0.0,0.0,0.0,0.0,0.0,0.0,0.0,0.0,0.0,0.0,0.0,0.0,0.0,0.0,0.0,0.0,0.0,0.0,0.0,0.0,0.0,0.0,0.0,0.0,0.0,0.0,0.0,0.0,0.0,0.0,0.0,0.0,0.0,0.0,0.0,0.0,0.0,0.0,0.0,0.0,0.0,0.0,0.0,0.0,0.0,0.0,0.0,0.0,0.0,0.0,0.0,0.0,0.0,0.0,0.0,0.0,0.0,0.0,0.0,0.0,0.0,0.0,0.0,0.0,0.0,0.0,0.0,0.0,0.0,0.0,0.0,0.0,0.0,0.0,0.0,-2.0727,0.0,0.0,0.0,0.0,0.0,0.0,0.0,0.0,0.0,0.0,0.0,0.0,0.0,0.0,0.0,0.0,0.0,0.0,0.0,0.0,0.0,0.0,0.0,0.0,0.0,0.0,0.0,0.0,0.0,0.0,0.0,0.0,0.0,0.0,0.0,0.0,0.0,0.0,0.0,-1.959,-2.0581,-2.2291,-2.2675,-2.2671,-2.2354,0.0,0.0,0.0,0.0,0.0,0.0,0.0,0.0,0.0,0.0,0.0,0.0,0.0,0.0,0.0,0.0,0.0,0.0,0.0,0.0,0.0,0.0,0.0,0.0,0.0,0.0,0.0,0.0,0.0,0.0,0.0,0.0,0.0,0.0,0.0,0.0,0.0,0.0,0.0,0.0,0.0,0.0,0.0,0.0,0.0,0.0,0.0,0.0,0.0,0.0,0.0,0.0,0.0,0.0,0.0,0.0,0.0,0.0,0.0,0.0,0.0,0.0,0.0,0.0,0.0,0.0,0.0,0.0,0.0,0.0,0.0,-2.2306,0.0,0.0,0.0,0.0,0.0,0.0,0.0,0.0,0.0,0.0,0.0,0.0,0.0,0.0,0.0,0.0,0.0,0.0,0.0,0.0,0.0,0.0,0.0,0.0,-1.888,-1.8797,-1.878,-1.8717,0.0,0.0,0.0,0.0,0.0,0.0,0.0,-1.8713,-1.9162,-1.9826,-2.0668,-2.2535,-2.5343,-2.6037,-2.5722,-2.4522,-2.3217,0.0,0.0,0.0,0.0,0.0,0.0,0.0,0.0,0.0,0.0,0.0,0.0,0.0,0.0,0.0,0.0,0.0,0.0,0.0,0.0,0.0,0.0,0.0,0.0,0.0,0.0,0.0,0.0,0.0,0.0,0.0,0.0,0.0,0.0,0.0,0.0,0.0,0.0,0.0,0.0,0.0,0.0,0.0,0.0,0.0,0.0,0.0,0.0,0.0,0.0,0.0,0.0,0.0,0.0,0.0,0.0,0.0,0.0,0.0,0.0,0.0,0.0,0.0,0.0,0.0,-2.9021,-2.9126,-2.8842,-2.8296,-2.8322,-2.6252,-2.287,0.0,0.0,0.0,0.0,0.0,0.0,0.0,0.0,0.0,0.0,0.0,0.0,0.0,0.0,0.0,0.0,0.0,0.0,0.0,0.0,0.0,0.0,-1.9778,-2.0006,-1.9588,-1.9555,-1.9182,0.0,0.0,0.0,0.0,0.0,0.0,-1.7911,-1.9158,-1.9976,-2.031,-2.4506,-2.7659,-2.9763,-3.0035,-3.0428,-3.0753,-2.7441,-2.6383,-2.6953,0.0,0.0,0.0,0.0,0.0,0.0,0.0,0.0,0.0,0.0,0.0,0.0,0.0,0.0,0.0,0.0,0.0,0.0,0.0,0.0,0.0,0.0,0.0,0.0,0.0,0.0,0.0,0.0,0.0,0.0,0.0,0.0,0.0,0.0,0.0,0.0,0.0,0.0,0.0,0.0,0.0,-2.2864,-2.2206,0.0,0.0,0.0,0.0,0.0,0.0,0.0,0.0,0.0,0.0,0.0,0.0,0.0,0.0,-2.8905,-3.0515,-3.1356,-3.1438,-3.2992,-3.351,-3.3131,-3.3611,-3.3536,-3.3009,-3.3244,0.0,-2.561,-2.3799,0.0,0.0,0.0,0.0,0.0,0.0,0.0,0.0,0.0,0.0,0.0,0.0,0.0,0.0,0.0,0.0,0.0,0.0,0.0,0.0,0.0,-2.0199,-2.0658,-1.9923,-2.1482,-2.1574,-1.9358,-1.9982,0.0,0.0,0.0,-1.8741,-1.8437,-1.9456,-2.1081,-2.3312,-2.714,-3.0104,-3.2181,-3.2689,-3.3328,-3.3979,-3.1943,-2.9781,-2.7581,-2.6574,0.0,0.0,0.0,0.0,0.0,0.0,0.0,0.0,0.0,0.0,0.0,0.0,0.0,0.0,0.0,0.0,0.0,0.0,0.0,0.0,0.0,0.0,0.0,0.0,0.0,0.0,0.0,0.0,0.0,0.0,0.0,0.0,0.0,0.0,0.0,0.0,0.0,0.0,0.0,-2.2848,-2.4417,-2.3358,-2.4605,-2.502,0.0,0.0,0.0,0.0,0.0,0.0,0.0,0.0,0.0,-2.9757,-2.9917,-3.0801,-3.2472,-3.3525,-3.4357,-3.5014,-3.5755,-3.6144,-3.6207,-3.6458,-3.627,-3.5751,-3.5569,-3.3755,-3.0825,-2.8135,-2.6381,-2.5169,0.0,0.0,0.0,0.0,0.0,0.0,0.0,0.0,0.0,0.0,0.0,0.0,0.0,0.0,0.0,0.0,0.0,0.0,-2.0177,-2.1557,-2.2329,-2.1789,-2.3581,-2.354,-2.0755,-2.0938,0.0,0.0,-1.8504,-1.8894,-1.8894,-2.0741,-2.3386,-2.6806,-3.0167,-3.2848,-3.4861,-3.5774,-3.6518,-3.7003,-3.6468,-3.3762,-2.959,-2.8635,-2.7291,-2.5708,0.0,0.0,0.0,0.0,0.0,0.0,0.0,0.0,0.0,0.0,0.0,0.0,0.0,0.0,0.0,0.0,0.0,0.0,0.0,0.0,0.0,0.0,0.0,0.0,0.0,0.0,0.0,0.0,0.0,0.0,0.0,0.0,0.0,0.0,0.0,0.0,0.0,-2.3222,-2.561,-2.4221,-2.6176,-2.7048,0.0,0.0,0.0,0.0,0.0,0.0,-3.0271,-3.0948,-3.1951,-3.3446,-3.3592,-3.4501,-3.6182,-3.6561,-3.7236,-3.8027,-3.7889,-3.804,-3.8429,-3.8429,-3.814,-3.7588,-3.7222,-3.637,-3.5097,-3.1832,-2.9535,-2.7888,-2.5981,-2.4984,0.0,-2.4601,-2.4178,-2.391,0.0,0.0,0.0,0.0,0.0,0.0,0.0,0.0,0.0,0.0,0.0,-2.2719,-2.321,-2.4721,-2.5882,-2.6419,-2.5453,-2.403,-2.2214,-1.9765,-1.8219,-1.7822,-1.8504,-1.8894,-1.8894,-2.3799,-2.7576,-3.0071,-3.4348,-3.7252,-3.8751,-4.0189,-4.0882,-4.0933,-4.0882,-3.8734,-3.4972,-3.1467,-2.9909,-2.9522,-2.6272,0.0,0.0,0.0,0.0,0.0,0.0,0.0,0.0,0.0,0.0,0.0,0.0,0.0,0.0,0.0,0.0,0.0,0.0,0.0,0.0,0.0,0.0,0.0,0.0,0.0,0.0,0.0,0.0,0.0,0.0,0.0,0.0,0.0,0.0,0.0,0.0,0.0,0.0,-2.3884,-2.9798,0.0,0.0,0.0,0.0,-2.9369,-3.0587,-3.2485,-3.4951,-3.3793,-3.4923,-3.8963,-3.8174,-3.8492,-4.0212,-4.0262,-4.03,-4.0337,-3.9823,-3.9584,-3.9609,-3.9609,-3.9308,-3.8831,-3.8806,-3.8152,-3.6759,-3.2953,-3.0962,-3.0209,-2.7965,-2.708,-2.7094,-2.7056,-2.7361,-2.7894,0.0,0.0,0.0,0.0,0.0,0.0,0.0,0.0,0.0,-2.1224,-2.239,-2.3455,-2.4068,-2.6078,-2.7587,-2.8104,-2.875,-2.801,-2.5405,-2.3446,-2.1503,-1.9493,-1.9533,-2.0743,-2.3161,-2.6604,-3.0133,-3.3698,-3.6736,-3.9208,-4.1136,-4.166,-4.1914,-4.1914,-4.1914,-4.1153,-3.9665,-3.5977,-3.3017,-3.0635,-2.8457,-2.6549,0.0,0.0,0.0,0.0,0.0,0.0,0.0,0.0,0.0,0.0,0.0,0.0,0.0,0.0,0.0,0.0,0.0,0.0,0.0,0.0,0.0,0.0,0.0,0.0,0.0,0.0,0.0,0.0,0.0,0.0,0.0,0.0,0.0,0.0,0.0,0.0,0.0,-3.0197,-3.3532,0.0,0.0,-3.3784,-3.4065,-3.3979,-3.5992,-3.7586,-3.8502,-3.845,-3.9097,-4.0631,-3.9952,-4.0074,-4.0987,-4.0337,-4.0162,-4.0513,-3.9961,-3.9697,-3.9697,-3.9697,-3.9396,-3.8906,-3.8479,-3.7877,-3.7023,-3.4926,-3.3702,-3.3093,-3.1605,-3.1021,-3.0974,-3.058,-3.0552,-3.0783,0.0,0.0,0.0,0.0,0.0,0.0,0.0,0.0,-2.1221,-2.1292,-2.2899,-2.4466,-2.5624,-2.7867,-2.9719,-3.0706,-3.1018,-2.9913,-2.6992,-2.4598,-2.2259,-1.9937,-2.0915,-2.2981,-2.6074,-2.9603,-3.2928,-3.6046,-3.8765,-4.1119,-4.3091,-4.3091,-4.32,-4.3436,-4.3183,-4.2912,-4.2506,-4.0054,-3.6874,-3.3305,-3.1565,-2.9499,-2.7233,0.0,0.0,0.0,0.0,0.0,0.0,0.0,0.0,0.0,0.0,0.0,0.0,0.0,0.0,0.0,0.0,0.0,0.0,0.0,0.0,0.0,0.0,0.0,0.0,0.0,0.0,0.0,0.0,0.0,0.0,0.0,0.0,0.0,0.0,0.0,-3.2729,-3.4908,-3.7676,-3.92,-3.8562,-3.908,-3.9372,-3.9118,-4.1508,-4.2792,-4.2346,-4.2364,-4.2423,-4.2509,-4.138,-4.1065,-4.1605,-4.0526,-4.0162,-4.0513,-3.9961,-3.9697,-3.9697,-3.9697,-3.9496,-3.9132,-3.8743,-3.8153,-3.74,-3.6624,-3.5943,-3.5165,-3.406,-3.3633,-3.3558,-3.2993,-3.278,-3.2754,0.0,0.0,0.0,0.0,0.0,0.0,0.0,-2.0653,-2.1247,-2.1471,-2.3508,-2.5759,-2.7987,-3.0211,-3.2318,-3.4339,-3.2048,-2.9403,-2.6809,-2.2867,-2.0141,-1.9062,-2.2571,-2.5445,-2.7364,-3.2756,-3.6043,-3.7058,-4.0611,-4.3149,-4.4682,-4.4682,-4.5043,-4.5703,-4.5004,-4.4231,-4.3494,-4.3494,-4.1414,-3.7939,-3.5605,-3.3322,-3.1004,0.0,0.0,0.0,0.0,0.0,0.0,0.0,0.0,0.0,0.0,0.0,0.0,0.0,0.0,0.0,0.0,0.0,0.0,0.0,0.0,0.0,0.0,0.0,0.0,0.0,0.0,0.0,0.0,0.0,0.0,0.0,0.0,0.0,-2.8223,-3.2598,-3.6193,-3.7554,-4.2297,-4.4691,-4.283,-4.5544,-4.6666,-4.4728,-4.6962,-4.7783,-4.6417,-4.518,-4.4666,-4.4942,-4.2588,-4.1622,-4.215,-4.104,-4.0488,-4.0488,-3.9948,-3.9697,-3.9697,-3.9672,-3.9672,-3.9697,-3.9659,-3.9019,-3.8002,-3.799,-3.7337,-3.6304,-3.519,-3.4731,-3.4713,-3.4161,-3.3935,-3.3847,0.0,0.0,0.0,0.0,0.0,0.0,0.0,-1.9845,-2.0616,-2.1405,-2.3907,-2.6459,-2.8676,-3.0905,-3.2841,-3.4384,-3.2048,-2.9585,-2.7461,-2.3371,-2.1254,-2.1713,-2.4241,-2.7504,-3.1454,-3.3779,-3.6832,-4.068,-4.2249,-4.411,-4.6194,-4.6194,-4.6295,-4.6481,-4.6278,-4.6058,-4.5872,-4.5872,-4.4976,-4.3267,-3.9918,-3.6884,-3.4163,0.0,0.0,0.0,0.0,0.0,0.0,0.0,0.0,0.0,0.0,0.0,0.0,0.0,0.0,0.0,0.0,0.0,0.0,0.0,0.0,0.0,0.0,0.0,0.0,0.0,0.0,0.0,0.0,0.0,0.0,0.0,0.0,-3.374,-3.5079,-3.7869,-4.0965,-4.4197,-4.713,-4.8611,-4.8132,-4.9763,-5.0221,-4.8697,-4.9672,-4.9537,-4.7678,-4.6837,-4.5757,-4.4481,-4.2905,-4.1749,-4.0965,-4.0275,-3.9923,-3.9923,-3.9772,-3.9697,-3.9685,-3.9283,-3.932,-3.9647,-3.8831,-3.8291,-3.7977,-3.7575,-3.6998,-3.638,-3.6065,-3.5906,-3.5843,-3.5303,-3.4793,-3.4412,0.0,0.0,0.0,0.0,0.0,0.0,0.0,-1.9338,-2.018,-2.0675,-2.3763,-2.6582,-2.8337,-3.0403,-3.2093,-3.3155,-3.0552,-2.8041,-2.61,-2.3534,-2.2697,-2.4106,-2.7326,-3.0403,-3.3258,-3.5891,-3.867,-4.1644,-4.3366,-4.5086,-4.6802,-4.7124,-4.7428,-4.7716,-4.7394,-4.7259,-4.7259,-4.7259,-4.6836,-4.6007,-4.4102,-4.139,-3.8193,-3.6096,-3.4303,-3.278,-3.1833,-3.1833,-3.1921,-2.9414,0.0,0.0,0.0,0.0,0.0,0.0,0.0,0.0,0.0,0.0,0.0,0.0,0.0,0.0,0.0,0.0,0.0,0.0,0.0,0.0,0.0,0.0,0.0,0.0,-3.5682,-3.9632,-4.2342,-4.3397,-4.5229,-4.8925,-5.0616,-5.1364,-5.1094,-5.2261,-5.239,-5.074,-5.1438,-5.1227,-4.9488,-4.8473,-4.7326,-4.5921,-4.3603,-4.2018,-4.1298,-4.0207,-3.9697,-3.9697,-3.9697,-3.9697,-3.9685,-3.9371,-3.927,0.0,-3.8655,-3.8103,-3.7638,-3.7312,-3.6908,0.0,0.0,0.0,0.0,0.0,-3.5295,-3.4944,0.0,0.0,0.0,0.0,0.0,0.0,0.0,-1.9051,-1.992,-1.9731,-2.3264,-2.6184,-2.7249,-2.9041,-3.0477,-3.1212,-2.8218,-2.5493,-2.3694,-2.3576,-2.4512,-2.6618,-3.0979,-3.3591,-3.4143,-3.8369,-4.0874,-4.1485,-4.4088,-4.5943,-4.7056,-4.7733,-4.8426,-4.9103,-4.8443,-4.8176,-4.8261,-4.8261,-4.7902,-4.7327,-4.7834,-4.5889,-4.2388,-3.9783,-3.821,-3.7168,-3.5131,-3.4032,-3.3393,-3.2307,0.0,0.0,0.0,0.0,0.0,0.0,0.0,0.0,0.0,0.0,0.0,0.0,0.0,0.0,0.0,0.0,0.0,0.0,0.0,0.0,0.0,0.0,0.0,0.0,-4.0579,-4.4507,-4.891,-4.8476,-4.882,-5.1738,-5.2665,-5.283,-5.2261,-5.3339,-5.3354,-5.1573,-5.2516,-5.2636,-5.1394,0.0,0.0,0.0,0.0,-4.2563,-4.2411,-4.0594,-3.9697,-3.9697,-3.9697,-3.9697,-3.9697,-3.9634,-3.9371,-3.9007,-3.8944,-3.8316,-3.7274,-3.7274,-3.6958,-3.6405,-3.6405,-3.6405,-3.6355,-3.5818,-3.5596,0.0,0.0,0.0,0.0,0.0,0.0,0.0,0.0,-1.9051,-1.992,-1.9731,-2.2837,-2.5332,-2.5918,-2.73,-2.8663,-2.9849,-2.6422,-2.3809,-2.2939,-2.4303,-2.6732,-3.0291,-3.2886,-3.5497,-3.8212,-3.9183,-4.1221,-4.4385,-4.4971,-4.6389,-4.8578,-4.8731,-4.9187,-4.9864,-4.9729,-4.9999,-5.0543,-5.0543,-5.049,-5.027,-4.9221,-4.7293,-4.4993,-4.4418,-4.2963,-4.117,-4.073,-4.0865,-4.0798,-3.7652,-3.7313,-3.7341,-3.2679,-2.8942,0.0,0.0,0.0,0.0,0.0,0.0,0.0,0.0,0.0,0.0,0.0,0.0,0.0,0.0,0.0,0.0,0.0,0.0,0.0,-3.9982,-4.3788,-4.7399,-5.0421,-5.0616,-5.069,-5.1334,-5.1992,-5.2336,-5.2217,-5.292,-5.3219,-5.283,-5.3039,-5.283,-5.2052,-5.1247,0.0,-4.8336,-4.5574,-4.357,-4.2563,-4.0645,-3.9697,-3.9697,0.0,0.0,-3.9685,-3.9233,-3.922,-3.9509,-3.9108,-3.8479,-3.7852,-3.7852,-3.7262,-3.6405,-3.6405,-3.6405,-3.6405,-3.6292,-3.6207,-3.6056,0.0,0.0,0.0,0.0,0.0,0.0,0.0,-1.8729,-1.9211,-1.8545,-2.1183,-2.2946,-2.2399,-2.4021,-2.5214,-2.5379,-2.3712,-2.2787,-2.3128,-2.5786,-2.9041,-3.2826,-3.5205,-3.721,-3.8871,-4.0667,-4.243,-4.4145,-4.5644,-4.7078,-4.8477,-4.9204,-4.9746,-5.0101,-5.049,-5.0862,-5.1185,-5.1185,-5.1185,-5.1083,-4.9999,-4.8883,-4.7733,-4.6261,-4.4993,-4.3893,-4.3132,-4.3098,-4.3003,-4.0426,-4.0054,-4.0087,-3.6705,-3.3575,-3.0497,0.0,0.0,0.0,0.0,0.0,0.0,0.0,0.0,0.0,0.0,0.0,0.0,0.0,0.0,-3.3095,0.0,0.0,-4.1265,-4.3913,-4.683,-4.9194,-5.0495,-5.0689,-5.1094,-5.2082,-5.2202,-5.2202,-5.2202,-5.2501,-5.2561,-5.2217,-5.2202,-5.2052,-5.1723,-5.078,-4.9786,-4.8813,-4.6279,-4.4611,-4.3993,-4.1799,-4.0642,-4.0655,-3.9981,-3.9697,-3.9685,-3.9408,-3.9283,-3.927,-3.9045,-3.8391,-3.7575,-3.7299,-3.6908,-3.6405,-3.6405,-3.6405,-3.6405,-3.6405,-3.6405,-3.6329,0.0,0.0,0.0,0.0,0.0,0.0,0.0,0.0,-1.8543,-1.7544,-1.956,-2.0622,-1.9351,-2.0847,-2.1517,-2.0518,-2.1521,-2.2724,-2.4001,-2.7531,-3.1218,-3.4893,-3.7383,-3.8822,-3.9249,-4.2299,-4.3889,-4.396,-4.6552,-4.7996,-4.8376,-4.9695,-5.0388,-5.0541,-5.115,-5.1522,-5.1657,-5.1657,-5.1657,-5.1589,-5.0828,-5.0439,-4.9999,-4.7208,-4.5957,-4.5534,-4.4147,-4.3054,-4.2226,-4.1627,-4.1035,-4.0426,-3.9665,-3.777,-3.5064,-3.1021,-2.9029,0.0,0.0,0.0,0.0,0.0,0.0,0.0,0.0,0.0,-3.2118,-3.3575,-3.5972,-3.8317,-3.9993,-4.2731,-4.5409,-4.7534,-4.9164,-5.0151,-5.0016,-4.9897,-5.0496,-5.2217,-5.1962,-5.1678,-5.1813,-5.1813,-5.1603,-5.1065,-5.1154,-5.1154,-5.0988,-5.0032,-4.9449,-4.9449,-4.7086,-4.5809,-4.5809,-4.3403,-4.206,-4.1762,-4.0605,-3.9929,-3.9697,-3.9697,-3.9446,-3.9032,-3.8969,-3.8291,-3.7299,-3.6795,-3.6505,-3.6405,-3.6405,-3.6405,-3.6405,-3.6405,-3.6405,-3.6392,0.0,0.0,0.0,0.0,0.0,0.0,0.0,0.0,0.0,-1.8239,-1.9291,-1.997,-1.9672,-1.9343,-1.8774,-1.7821,-2.1535,-2.4464,-2.5734,-2.9222,-3.2991,-3.6911,-3.8687,-4.0433,-4.2277,-4.3447,-4.5055,-4.7095,-4.8083,-4.9011,-4.9864,-5.0693,-5.1437,-5.2063,-5.2147,-5.257,-5.3247,-5.3247,-5.3247,-5.3179,-5.2367,-5.1674,-5.0845,-4.8514,-4.6853,-4.5602,-4.4756,-4.1897,-3.8903,-4.1339,-4.0443,-3.8582,-4.0392,-3.8971,-3.6186,-3.3643,-3.0983,-2.8207,-2.5157,-2.4561,-2.5004,-2.5865,-2.7347,-3.0262,0.0,0.0,-3.8657,-4.2854,-4.4926,-4.6232,-4.7025,-4.8431,-4.9523,-4.9822,-5.0046,-4.9986,-4.9464,-4.888,-4.8805,-4.9659,-4.9689,-4.9823,-5.036,-5.0405,-5.0375,-5.03,-5.0838,-5.096,-5.033,-5.0166,-5.0091,-5.0091,-4.8182,-4.7167,-4.7167,-4.5194,-4.3623,-4.2457,-4.1755,-4.0794,-3.9697,-3.9697,-3.9659,-3.9572,-3.9082,-3.8504,-3.7877,-3.7312,-3.6857,-3.6405,-3.6405,-3.6405,-3.6405,-3.6405,-3.6405,-3.6329,0.0,0.0,0.0,0.0,0.0,0.0,0.0,0.0,0.0,0.0,-1.812,-1.8192,-1.692,-1.6909,-1.7098,-1.7286,-2.0632,-2.3699,-2.5954,-2.9121,-3.2871,-3.7225,-3.9296,-4.0948,-4.2186,-4.5188,-4.6863,-4.7028,-4.911,-5.0136,-5.0118,-5.1285,-5.2012,-5.2317,-5.279,-5.3196,-5.3501,-5.3501,-5.3501,-5.3433,-5.2621,-5.1606,-5.0321,-4.8105,-4.5517,-4.2878,-4.1271,-3.9495,0.0,-3.7787,-3.7533,-3.7567,-3.936,-3.7735,-3.4858,-3.3229,-3.0896,-2.8894,-2.9157,-2.8406,0.0,0.0,-3.3608,-3.5791,-4.0613,-4.2686,-4.4227,-4.6561,-4.8386,-4.9553,-4.9449,-5.0182,-5.0764,0.0,-5.0167,-4.9583,-4.9359,-4.8042,-4.71,-4.6965,-4.695,-4.7668,-4.9494,-4.9673,-4.9673,-4.9673,-5.0272,-5.048,-5.0196,-5.0196,-5.0196,-5.0196,-4.9112,-4.8335,-4.7906,-4.6376,-4.5143,-4.421,-4.3197,-4.2035,-4.0794,-4.0794,-4.0415,-3.9659,-3.9107,-3.8781,-3.8442,-3.755,-3.7048,-3.6857,-3.6531,-3.6405,-3.6405,-3.6405,-3.6405,-3.6367,0.0,0.0,0.0,0.0,0.0,0.0,0.0,0.0,0.0,0.0,-1.7389,-1.7057,-1.545,-1.5846,-1.6503,-1.7235,-1.9646,-2.2363,-2.5247,-2.8549,-3.2272,-3.6479,-3.9335,-4.1383,-4.2489,-4.6225,-4.7899,-4.7266,-4.9899,-5.0947,-5.0439,-5.1928,-5.2638,-5.2655,-5.3247,-5.3501,-5.3501,-5.3501,-5.3382,-5.3112,-5.2317,-5.0997,-4.9221,-4.6786,-4.3538,-4.0054,-3.8244,-3.6472,-3.4801,-3.3672,-3.3216,-3.348,-3.5447,-3.4359,-3.2209,-3.175,-3.0222,-2.9078,-3.0925,0.0,0.0,-3.6507,-3.899,-4.107,-4.4062,-4.6486,-4.8341,-4.9194,-5.0212,-5.0808,-5.051,-5.0704,-5.0885,-5.0705,-5.0032,-4.9419,-4.909,-4.7608,-4.6277,-4.5394,-4.514,-4.5783,-4.7713,-4.8401,-4.885,-4.903,-4.9598,-4.9972,-4.9972,-4.9972,-5.0001,-5.0181,-4.9598,-4.909,-4.8566,-4.7492,-4.649,-4.5662,-4.4527,-4.317,-4.1604,-4.1219,-4.0554,-3.9672,-3.927,-3.8919,-3.8567,-3.7751,-3.7236,-3.6923,-3.6568,-3.6405,-3.6405,-3.6405,-3.6405,-3.6405,0.0,0.0,0.0,0.0,0.0,0.0,0.0,0.0,0.0,0.0,0.0,0.0,0.0,-1.704,-1.7263,-1.7308,-1.8804,-2.0905,-2.3598,-2.7759,-3.151,-3.4645,-3.8769,-4.2035,-4.428,-4.5999,-4.7534,-4.8937,-5.0441,-5.12,-5.1185,-5.2756,-5.3467,-5.3467,-5.3501,-5.3501,-5.3501,-5.3501,-5.3061,-5.2283,-5.1539,-4.99,-4.7635,-4.4626,-4.1195,-3.7905,-3.7094,-3.2866,-2.7898,-2.964,-2.7414,-2.4469,-2.7696,-2.8428,-2.833,-2.9518,-2.9271,-2.8618,-2.8695,-3.1001,-3.4173,-3.7524,-4.1743,-4.5618,-4.7668,-4.9179,-5.0465,-5.1813,-5.1109,-5.0405,-5.1065,-5.0629,-5.0062,-4.9434,-4.9823,-4.9717,-4.8491,-4.7713,-4.6785,-4.5454,-4.4736,-4.4377,0.0,-4.6217,-4.7623,-4.8267,-4.897,-4.9344,-4.9344,-4.9344,-4.9583,-5.0166,-4.9598,-4.9299,-4.9284,-4.8611,-4.7598,-4.6356,-4.5691,-4.4022,-4.1555,-4.0313,-3.9736,-3.9697,-3.9672,-3.9044,-3.8027,-3.8002,-3.7349,-3.643,-3.6417,-3.6405,-3.6405,-3.6405,-3.6405,-3.6405,0.0,0.0,0.0,0.0,0.0,0.0,0.0,0.0,0.0,0.0,0.0,0.0,0.0,0.0,0.0,0.0,-1.8739,-2.0362,-2.2573,-2.6052,-2.9312,-3.2123,-3.6961,-4.0181,-4.1399,-4.4457,-4.6312,-4.6819,-4.8308,-4.9004,-4.9021,-5.005,-5.0507,-5.0541,-5.1031,-5.1234,-5.1234,-5.1234,-5.1369,-5.1437,-4.9712,-4.7973,-4.5978,-4.1654,-3.7743,-3.4008,0.0,-2.7725,-2.627,-2.4728,-2.3833,-2.366,-2.5355,-2.4619,-2.346,-2.517,-2.7682,-3.0449,-3.3126,-3.5908,-3.8975,-4.2716,-4.5484,-4.7908,-5.0331,-5.0885,-5.0885,-5.0853,-4.8805,-4.6756,-4.607,-4.5454,-4.5229,-4.5873,-4.7279,-4.8282,-4.8282,-4.7713,-4.6486,-4.4287,-4.4197,0.0,0.0,0.0,0.0,-4.6905,-4.7997,-4.885,-4.9284,-5.0092,-5.0466,-5.0196,-5.0451,-4.9927,-4.8626,-4.8865,-4.8298,-4.6963,-4.5925,-4.4503,-4.2834,-4.1555,-4.0503,-3.9672,-3.9308,-3.8931,-3.8517,-3.7764,-3.7249,-3.692,-3.6556,-3.6405,-3.6405,-3.6405,-3.6405,-3.6405,0.0,0.0,0.0,0.0,0.0,0.0,0.0,0.0,0.0,0.0,0.0,0.0,0.0,0.0,0.0,0.0,0.0,-1.9311,-2.105,-2.3767,-2.6349,-2.8684,-3.3266,-3.6198,-3.7153,-4.0135,-4.1694,-4.1694,-4.3984,-4.4964,-4.4773,-4.6583,-4.7564,-4.7851,-4.8325,-4.8663,-4.8917,-4.8917,-4.8274,-4.709,-4.5267,-4.2991,-4.0236,-3.613,-3.2712,0.0,-2.4806,-2.3361,-2.3336,-2.0841,-2.0286,-2.0941,-2.2814,-2.296,-2.2864,-2.483,-2.7808,-3.153,-3.6265,-3.9275,-4.2102,-4.6322,-4.8192,-4.9419,-5.1109,-5.099,-5.0062,-4.8417,-4.5678,-4.3075,-4.1466,-4.0307,-4.0314,-4.2551,-4.3988,-4.5484,-4.7324,-4.701,-4.5963,-4.4272,-4.4212,-4.3988,0.0,0.0,0.0,-4.6175,-4.7324,-4.8327,-4.9269,-5.0062,-5.0541,-5.0539,-5.0719,-5.0152,-4.8656,-4.8865,-4.8179,-4.6594,-4.5779,-4.4503,-4.2786,-4.1985,-4.0882,-3.9672,-3.932,-3.8931,-3.8504,-3.7776,-3.7249,-3.6908,-3.6543,-3.6405,-3.6405,-3.6405,-3.6405,-3.6405,0.0,0.0,0.0,0.0,0.0,0.0,0.0,0.0,0.0,0.0,0.0,0.0,0.0,0.0,0.0,0.0,0.0,0.0,-1.914,-2.1117,-2.2949,-2.4544,-2.803,-3.0598,-3.2039,-3.3508,-3.4303,-3.4409,-3.7973,-3.9377,-3.8785,-4.2364,-4.4384,-4.5077,-4.5077,-4.5466,-4.6109,-4.6058,-4.3606,-3.9623,-3.8497,-3.5442,-3.126,-2.8608,-2.6591,-2.4788,-2.16,-1.9999,-1.9232,-1.8192,-1.7068,-1.6742,-2.0399,-2.3501,-2.6205,-2.8342,-2.9907,-3.2243,-3.8123,-4.1235,-4.3908,-4.8311,-4.9838,-5.0226,-5.0196,-4.9568,-4.8086,-4.4781,-4.1893,-3.9349,0.0,0.0,-3.5654,-3.9574,-4.0427,-4.1968,-4.5873,-4.5858,-4.5424,0.0,0.0,0.0,0.0,0.0,0.0,-4.619,0.0,-4.7923,-4.9239,-4.9374,-4.9927,-5.1124,-5.0554,-4.9942,-4.9269,-4.8566,-4.7333,-4.5494,-4.5494,-4.421,-4.1789,-4.1789,-4.1082,-3.9788,-3.9725,-3.9045,-3.8002,-3.7952,-3.7312,-3.6405,-3.6405,-3.6405,-3.6405,-3.6405,-3.6405,-3.6405,0.0,0.0,0.0,0.0,0.0,0.0,0.0,0.0,0.0,0.0,0.0,0.0,0.0,0.0,0.0,0.0,0.0,0.0,-1.816,-2.025,-2.1677,-2.2104,-2.5628,-2.7994,-2.8922,-3.0446,-3.1765,-3.2869,-3.3833,-3.4472,-3.4861,-3.5808,-3.6366,-3.6552,-3.6552,-3.6654,-3.6789,-3.6237,-3.5509,-3.456,-3.2648,-3.1004,-2.9334,-2.6069,-2.3915,-2.2266,-1.9451,-1.8898,-1.9217,-1.7547,-1.8434,-2.0898,-2.4914,-2.6609,-2.8008,-3.2617,-3.5461,-3.8123,-4.2581,-4.6322,-4.9239,-5.0421,-5.084,-5.0794,-5.03,-4.74,-4.4197,-4.1878,-3.7345,-3.3304,0.0,0.0,0.0,-3.7,-4.0771,0.0,-4.7369,-4.7638,0.0,-4.6172,0.0,-4.5424,-4.4407,-4.5173,0.0,0.0,-4.7384,-4.8401,-4.9269,-5.0197,-5.0661,-5.045,-5.0749,-5.0182,-4.8551,-4.7878,-4.7328,-4.6829,-4.6829,-4.5973,-4.4442,-4.4442,-4.3218,-4.108,-4.0207,-3.9151,-3.7939,-3.7123,-3.6669,-3.6405,-3.6405,-3.6405,-3.6405,-3.6405,-3.6405,-3.6405,0.0,0.0,0.0,0.0,0.0,0.0,0.0,0.0,0.0,0.0,0.0,0.0,0.0,0.0,0.0,0.0,0.0,0.0,0.0,-1.8995,-1.9705,-1.9705,-2.1989,-2.3477,-2.39,-2.5406,-2.642,-2.6894,-2.8552,-2.9397,-2.9516,-3.0852,-3.1461,-3.1478,-3.1816,-3.1765,-3.1461,-3.136,-3.0335,0.0,0.0,-2.5634,-2.3852,-2.1745,-2.0525,-1.9717,-1.7919,-1.8451,-2.0137,-2.0809,0.0,-2.7546,-3.0071,-3.1888,-3.3895,-3.8303,0.0,-4.1698,-4.6232,-4.909,-5.0883,-5.1498,-5.1005,-4.9808,-4.7639,-4.4276,-4.0449,-3.6477,-3.2302,0.0,-2.8023,0.0,0.0,0.0,0.0,0.0,-4.6007,-4.6785,-4.692,0.0,-4.6756,0.0,-4.6097,-4.6471,-4.6875,0.0,-4.7863,-4.8566,-4.9269,-5.0242,-5.0704,-5.0629,-5.102,-5.0421,-4.873,-4.7773,-4.7019,-4.6447,-4.7019,-4.6344,-4.4595,-4.4595,-4.3504,-4.1502,0.0,-3.8881,-3.7939,-3.7073,-3.6631,-3.6405,-3.6405,-3.6405,-3.6405,-3.6405,-3.6405,-3.6405,0.0,0.0,0.0,0.0,0.0,0.0,0.0,0.0,0.0,0.0,0.0,0.0,0.0,0.0,0.0,0.0,0.0,0.0,0.0,0.0,-1.78,-1.78,-1.8403,-1.8843,-1.9046,-2.0361,-2.0805,-2.0318,-2.3564,-2.4831,-2.4271,-2.6894,-2.8062,-2.7994,-2.8518,-2.8349,-2.7706,-2.8247,-2.6184,-2.2577,-2.2263,-2.0363,-1.7632,0.0,-1.7395,-1.7448,-1.7074,-1.8609,-2.1466,-2.5707,-3.0267,-3.4319,-3.5293,-3.7886,-4.1087,-4.4,-4.3972,-4.4133,-4.8985,-5.045,-5.0808,-5.1828,-5.0586,-4.8072,-4.4003,-4.0659,-3.6746,-3.0582,0.0,-2.5914,-2.5435,-2.5555,-2.7694,-3.368,0.0,-3.8601,-4.3958,-4.5125,-4.5933,-4.7279,-4.7429,-4.7653,-4.8222,-4.7848,-4.7803,-4.8371,-4.8491,-4.876,-4.9284,-4.9972,-5.0539,-5.1065,-5.1005,-5.0376,-4.9194,-4.7923,-4.6741,-4.5689,-4.6785,-4.6166,-4.4022,-4.3834,-4.3074,-4.1762,0.0,0.0,-3.7965,-3.7412,-3.6908,-3.6405,-3.6405,-3.6405,-3.6405,-3.6405,-3.6405,-3.6405,0.0,0.0,0.0,0.0,0.0,0.0,0.0,0.0,0.0,0.0,0.0,0.0,0.0,0.0,0.0,0.0,0.0,0.0,0.0,0.0,0.0,-1.78,-1.7918,-1.856,-1.9778,-2.0082,-2.0758,-2.189,-2.255,-2.2803,-2.2699,-2.3224,-2.3139,-2.2527,-2.1992,-2.1333,-2.0619,-2.0145,-1.932,-1.8348,-1.8298,-1.7749,-1.7006,-1.7219,0.0,0.0,-1.7788,-1.9588,-2.2321,-2.8049,-3.2149,-3.5498,-3.9291,-4.1728,-4.3742,-4.6307,-4.6746,-4.7115,-5.0212,-5.1843,-5.2471,-5.1603,-4.9912,-4.7279,-4.2746,-3.7569,0.0,0.0,-2.5518,-2.3496,-2.3879,-2.53,-2.8368,-3.4352,-3.6866,-4.0098,-4.5963,-4.6411,-4.6636,0.0,-4.8117,-4.8162,0.0,0.0,0.0,0.0,0.0,0.0,-4.9329,-5.0406,-5.0808,-5.0375,-4.9883,-4.9239,-4.8461,-4.7683,-4.7207,-4.6975,-4.7207,-4.7062,-4.6594,-4.5539,-4.4396,-4.3081,0.0,0.0,-3.7965,-3.7412,-3.6908,-3.6405,-3.6405,-3.6405,-3.6405,-3.6405,-3.6405,-3.6405,0.0,0.0,0.0,0.0,0.0,0.0,0.0,0.0,0.0,0.0,-1.8036,-1.78,0.0,0.0,0.0,0.0,0.0,0.0,0.0,0.0,0.0,0.0,0.0,0.0,0.0,-2.0213,0.0,0.0,0.0,0.0,0.0,0.0,0.0,0.0,-2.1211,-2.0335,-1.8894,-1.8932,-1.8411,-1.7561,-1.7561,-1.7248,-1.6808,0.0,0.0,0.0,0.0,-1.8605,-2.1162,-2.478,-2.9111,-3.4033,-4.0277,-4.3794,-4.5704,-4.6232,-4.7093,-4.8162,-4.9763,-5.1154,-5.2007,-5.1379,-4.8955,-4.5334,-4.0038,0.0,0.0,0.0,-2.2718,-2.1445,-2.2428,-2.4238,0.0,-3.1674,-3.4053,-3.7404,-4.3389,-4.3958,0.0,-4.7923,-4.8282,-4.8551,0.0,0.0,0.0,0.0,0.0,0.0,0.0,-5.0376,-5.0524,-5.0196,-4.9269,-4.8655,-4.8282,-4.7638,-4.7309,-4.7309,-4.7309,-4.7309,-4.7207,-4.5298,-4.4069,-4.3367,0.0,0.0,0.0,-3.7713,-3.7123,-3.643,-3.6719,-3.6669,-3.6405,-3.6405,-3.6405,-3.6405,0.0,0.0,0.0,0.0,0.0,0.0,0.0,-1.78,-1.8014,-1.8589,-1.8155,-1.78,-1.78,-1.78,0.0,0.0,0.0,0.0,0.0,0.0,0.0,0.0,0.0,0.0,0.0,0.0,0.0,0.0,0.0,0.0,0.0,0.0,0.0,0.0,0.0,0.0,0.0,-1.9592,-1.9101,0.0,0.0,0.0,0.0,0.0,0.0,0.0,0.0,-1.7297,-1.9516,-2.1156,-2.5304,-3.0931,-3.7617,-4.2341,-4.525,-4.4304,-4.5648,-4.7728,-4.9105,-5.0227,-5.0928,-5.084,-4.7713,-4.312,-3.7195,-3.2153,0.0,-2.2488,-2.0408,-1.9947,-2.1425,-2.2826,-2.4993,0.0,-3.0791,-3.3963,-3.9903,-4.1272,-4.315,0.0,-4.8237,0.0,0.0,0.0,0.0,0.0,0.0,0.0,0.0,-5.0196,-5.0061,-4.9777,-4.882,-4.8222,-4.8072,-4.7563,-4.7309,-4.7309,-4.7309,-4.7164,-4.6829,-4.4549,-4.3361,-4.2951,0.0,0.0,0.0,-3.8052,-3.7425,-3.6619,-3.6885,-3.6782,-3.6405,-3.6405,-3.6405,-3.6405,0.0,0.0,0.0,0.0,0.0,0.0,0.0,-1.78,-1.7817,-1.7884,-1.7834,-1.78,-1.78,-1.78,0.0,0.0,0.0,0.0,0.0,0.0,0.0,0.0,0.0,0.0,0.0,0.0,0.0,0.0,0.0,0.0,0.0,0.0,0.0,0.0,0.0,0.0,0.0,0.0,0.0,0.0,0.0,0.0,0.0,0.0,0.0,0.0,0.0,0.0,-1.8278,-2.0919,0.0,-2.5993,-2.9022,-3.4472,-3.9773,-3.9919,0.0,0.0,-4.9104,-5.0181,-5.0136,-4.9598,-4.605,-4.1123,-3.5115,0.0,-2.4986,-2.1495,-1.9735,-1.939,-2.1335,-2.135,-2.2721,-2.7859,-2.934,-3.1943,-3.7823,-4.0778,-4.3369,-4.6172,0.0,0.0,0.0,0.0,0.0,0.0,0.0,0.0,0.0,-5.0196,-4.9643,-4.8506,-4.8341,-4.7997,-4.7399,-4.7339,-4.7309,-4.7309,-4.7309,-4.6682,-4.5539,-4.4116,-4.2882,-4.169,0.0,0.0,0.0,-3.8228,-3.7651,-3.7061,-3.6656,-3.6455,-3.6405,-3.6405,-3.6405,-3.6405,0.0,0.0,0.0,0.0,0.0,0.0,0.0,-1.78,-1.7952,-1.8403,-1.8082,-1.7969,-1.8403,-1.807,-1.78,0.0,0.0,0.0,0.0,0.0,0.0,0.0,0.0,0.0,0.0,0.0,0.0,0.0,0.0,0.0,0.0,0.0,0.0,0.0,0.0,0.0,0.0,0.0,0.0,0.0,0.0,0.0,0.0,0.0,0.0,0.0,0.0,0.0,0.0,0.0,0.0,0.0,-2.086,-2.4464,0.0,0.0,-3.7819,-4.1878,-4.4272,-4.7234,-4.9314,-4.7863,-4.4616,-4.0149,-3.3754,0.0,-2.4567,-2.0857,-1.9346,-1.9076,-2.0258,-2.0617,-2.1645,-2.4567,-2.5279,-2.766,-3.3963,-3.5774,-3.8736,-4.496,0.0,0.0,0.0,0.0,0.0,0.0,0.0,0.0,0.0,0.0,-4.9419,-4.894,-4.8117,-4.7578,-4.7309,-4.7309,-4.7309,-4.7309,-4.7309,-4.7019,-4.6447,-4.4442,-4.3218,0.0,0.0,0.0,0.0,-3.8617,-3.799,-3.7161,-3.6948,-3.6908,-3.6857,-3.6531,-3.6832,-3.7262,0.0,0.0,0.0,0.0,0.0,0.0,-1.78,-1.78,-1.7986,-1.8504,-1.8121,-1.8003,-1.8521,-1.8104,-1.78,-1.78,0.0,0.0,0.0,0.0,0.0,0.0,0.0,0.0,0.0,0.0,-1.9676,-1.9676,0.0,0.0,0.0,0.0,0.0,0.0,0.0,0.0,0.0,0.0,0.0,0.0,0.0,0.0,0.0,0.0,0.0,0.0,0.0,0.0,0.0,0.0,0.0,-1.6982,-1.6069,-1.7701,-2.1126,-2.7156,-3.2617,-3.7285,-3.9589,-4.3359,-4.6411,-4.5409,-4.2222,-3.7823,0.0,0.0,-2.349,-2.0094,-1.9031,-1.8897,-1.9588,-2.0094,-2.0842,-2.2194,-2.2718,-2.4926,-3.0567,-3.2362,-3.5474,0.0,0.0,0.0,0.0,0.0,0.0,0.0,0.0,0.0,0.0,0.0,-4.8925,-4.8686,-4.7788,-4.7309,-4.7309,-4.7309,-4.7309,-4.7309,-4.7309,-4.7121,-4.6682,-4.4872,-4.3882,0.0,0.0,0.0,0.0,-3.9133,-3.8454,-3.7663,-3.75,-3.7324,-3.7136,-3.6795,-3.6998,-3.7412,0.0,0.0,0.0,0.0,0.0,0.0,0.0,-1.78,-1.78,-1.7817,-1.78,-1.78,-1.7817,-1.78,-1.78,-1.78,0.0,0.0,0.0,0.0,0.0,0.0,0.0,0.0,0.0,0.0,-1.891,-1.891,-2.0446,-2.119,0.0,0.0,0.0,0.0,0.0,0.0,0.0,0.0,0.0,0.0,0.0,0.0,0.0,0.0,0.0,0.0,0.0,0.0,0.0,0.0,0.0,0.0,0.0,-1.5829,-1.6773,-2.143,-2.6507,-3.1599,-3.6207,-3.8931,-4.0801,-4.2111,-3.8472,-3.3545,0.0,0.0,-2.1156,-1.9136,-1.8702,-1.8897,-1.9588,-1.9708,-2.0157,-2.1485,-2.2772,-2.4762,-2.8158,-3.1988,0.0,0.0,0.0,0.0,0.0,0.0,0.0,0.0,0.0,0.0,0.0,0.0,-4.7997,-4.7339,-4.7309,-4.7309,-4.7309,-4.7309,-4.7309,-4.7309,-4.7309,-4.6638,-4.5403,-4.5403,0.0,0.0,0.0,0.0,0.0,-3.9663,-3.8906,-3.8844,-3.8216,-3.7663,-3.7186,-3.7174,-3.6835,-3.643,0.0,0.0,0.0,0.0,0.0,0.0,0.0,-1.78,-1.78,-1.78,-1.78,-1.78,-1.78,-1.78,-1.78,-1.78,0.0,0.0,0.0,0.0,0.0,0.0,0.0,0.0,0.0,0.0,-1.8894,-1.8894,-2.0446,-2.119,-2.1207,-2.1955,-2.2296,0.0,0.0,0.0,0.0,0.0,0.0,0.0,0.0,0.0,0.0,0.0,0.0,0.0,0.0,0.0,0.0,0.0,0.0,0.0,0.0,0.0,0.0,-1.7552,-2.1699,-2.6393,-2.925,-3.2123,-3.4201,-3.3739,-3.1703,-2.8753,-2.4792,0.0,-1.9884,-1.8326,-1.8012,-1.8356,-1.9498,-1.9708,-2.0292,-2.2089,-2.2718,-2.4305,0.0,0.0,0.0,0.0,0.0,0.0,0.0,0.0,0.0,0.0,0.0,0.0,0.0,0.0,0.0,-4.7967,-4.7534,-4.7309,-4.7309,-4.7309,-4.7309,-4.7309,-4.7309,-4.7062,-4.6682,0.0,0.0,0.0,0.0,0.0,0.0,-3.9663,-3.8919,-3.8781,-3.7814,-3.7563,-3.7651,-3.6945,-3.6985,-3.7374,0.0,0.0,0.0,0.0,0.0,0.0,0.0,-1.78,-1.78,-1.78,-1.78,-1.78,-1.78,-1.78,-1.78,-1.78,0.0,0.0,0.0,0.0,0.0,0.0,0.0,0.0,-1.78,-1.8239,-1.8623,-1.8894,-2.0128,-2.0903,-2.1207,-2.1955,-2.2209,-2.2015,-2.1761,0.0,0.0,0.0,0.0,0.0,0.0,0.0,-1.6593,0.0,0.0,0.0,0.0,0.0,0.0,0.0,0.0,0.0,0.0,0.0,0.0,0.0,-1.8105,-2.1265,-2.3999,-2.6797,-2.8835,-2.8532,-2.7106,0.0,0.0,-2.0094,-1.8642,-1.7548,-1.7728,-1.8326,-1.9166,-1.9528,-2.0277,-2.2044,-2.2538,0.0,0.0,0.0,0.0,0.0,0.0,0.0,0.0,0.0,0.0,0.0,0.0,0.0,0.0,0.0,0.0,-4.7908,-4.7519,-4.7309,-4.7309,-4.7309,-4.7309,-4.7309,-4.7309,-4.7309,-4.7266,0.0,0.0,0.0,0.0,0.0,0.0,-3.9842,-3.9057,-3.8856,-3.809,-3.7764,-3.7613,-3.6923,-3.6973,-3.7287,0.0,0.0,0.0,0.0,0.0,0.0,0.0,0.0,0.0,0.0,-1.78,-1.78,-1.78,-1.78,-1.78,0.0,0.0,0.0,0.0,0.0,0.0,0.0,0.0,0.0,-1.78,-1.7828,-1.8182,-1.8858,-1.9681,-2.0439,-2.1167,-2.1936,-2.2039,-2.158,-2.086,-2.0672,-2.0767,-1.9077,-1.7959,-1.736,-1.7648,-1.7743,0.0,0.0,0.0,0.0,0.0,0.0,0.0,0.0,0.0,0.0,0.0,0.0,0.0,0.0,0.0,0.0,0.0,-2.2607,-2.4276,-2.551,-2.4021,-2.1879,-2.0647,-1.8909,0.0,-1.6831,-1.7728,-1.8672,-1.8747,-1.9316,-2.0247,-2.1665,-2.2478,0.0,0.0,0.0,0.0,0.0,0.0,0.0,0.0,0.0,0.0,0.0,0.0,0.0,0.0,0.0,0.0,0.0,-4.7309,-4.7309,-4.7309,-4.7309,-4.7309,-4.7309,-4.7309,-4.7309,-4.7309,0.0,0.0,0.0,0.0,0.0,0.0,-4.0224,-3.9396,-3.8969,-3.8894,-3.8165,-3.7236,-3.7149,-3.6845,-3.6405,0.0,0.0,0.0,0.0,0.0,0.0,0.0,0.0,0.0,0.0,0.0,-1.78,-1.78,-1.78,0.0,0.0,0.0,0.0,0.0,0.0,0.0,0.0,0.0,0.0,-1.78,-1.8088,-1.8332,-1.851,-2.0027,-2.0759,-2.0761,-2.1659,-2.1906,-2.1582,-2.1097,-2.0464,-1.9686,-1.8417,-1.7769,-1.7662,-1.8225,-1.8162,0.0,0.0,0.0,0.0,-1.7893,-1.7593,0.0,0.0,0.0,0.0,0.0,0.0,0.0,0.0,-1.5799,-1.6008,-1.6922,0.0,-1.7941,-1.8255,-1.7882,-1.7342,0.0,-1.6578,-1.6323,-1.6637,-1.7354,-1.8252,-1.9271,-2.0004,-2.1211,-2.3543,0.0,0.0,0.0,0.0,0.0,0.0,0.0,0.0,0.0,0.0,0.0,0.0,0.0,0.0,0.0,0.0,0.0,0.0,-4.7309,-4.7309,-4.7309,-4.7309,-4.7309,-4.7309,-4.7309,-4.7309,0.0,0.0,0.0,0.0,0.0,0.0,0.0,-4.0224,-3.9622,-3.9421,-3.8555,-3.8052,-3.7713,-3.6908,-3.6518,-3.6405,0.0,0.0,0.0,0.0,0.0,0.0,0.0,0.0,0.0,0.0,0.0,0.0,0.0,0.0,0.0,0.0,0.0,0.0,0.0,0.0,0.0,0.0,0.0,-1.78,-1.78,-1.7861,-1.8202,-1.8851,-1.9835,-2.0477,-2.0799,-2.1486,-2.152,-2.0991,-2.0582,-1.9906,-1.9043,-1.8413,-1.7983,-1.7773,-1.8433,0.0,0.0,0.0,0.0,0.0,-1.8747,-1.8416,0.0,-1.7384,-1.716,-1.6995,0.0,0.0,0.0,0.0,-1.5574,-1.541,-1.5724,-1.6009,-1.6219,-1.6219,-1.6219,-1.6293,-1.6593,-1.6218,-1.5964,-1.6577,-1.7234,-1.8012,-1.9046,-2.0049,0.0,0.0,0.0,0.0,0.0,0.0,0.0,0.0,0.0,0.0,0.0,0.0,0.0,0.0,0.0,0.0,0.0,0.0,0.0,0.0,0.0,-4.7309,-4.7309,-4.7309,-4.7309,-4.7309,-4.7309,-4.7145,0.0,0.0,0.0,0.0,0.0,0.0,-4.0719,-4.0007,-3.9245,-3.8504,-3.814,-3.7701,-3.7174,-3.6631,-3.6405,-3.6405,0.0,0.0,0.0,0.0,0.0,0.0,0.0,0.0,0.0,0.0,0.0,0.0,0.0,0.0,0.0,0.0,0.0,0.0,0.0,0.0,0.0,0.0,-1.78,-1.7817,-1.7889,-1.7446,-1.7916,-1.9318,-1.9458,-2.0031,-2.1007,-2.1423,-2.1118,-2.0177,-1.9856,-1.9375,-1.8852,-1.8852,-1.8506,-1.8057,-1.8627,0.0,0.0,0.0,0.0,0.0,0.0,0.0,0.0,-1.7938,-1.7713,-1.7474,-1.6203,0.0,0.0,0.0,0.0,0.0,-1.5754,-1.6458,-1.6965,-1.6741,-1.6771,-1.701,-1.7563,-1.6862,-1.6248,-1.6876,-1.7533,-1.8267,-1.9151,-2.0483,0.0,0.0,0.0,0.0,0.0,0.0,0.0,0.0,0.0,0.0,0.0,0.0,0.0,0.0,0.0,0.0,0.0,0.0,0.0,0.0,0.0,0.0,-4.6995,-4.7204,-4.7309,-4.7309,-4.7204,-4.686,-4.6337,0.0,0.0,0.0,0.0,0.0,-3.9777,-3.9524,-3.8592,-3.7349,-3.7739,-3.7312,-3.6518,-3.6443,-3.6405,-3.6405,0.0,0.0,0.0,0.0,0.0,0.0,0.0,0.0,0.0,0.0,0.0,0.0,0.0,0.0,0.0,0.0,0.0,0.0,0.0,0.0,0.0,-1.78,-1.78,-1.7937,-1.8222,-1.7338,-1.7567,-1.8979,-1.9446,-2.0144,-2.1007,-2.1481,-2.0997,-1.9782,-1.9744,-1.9648,-1.9558,-1.9558,-1.9498,-1.9408,-1.9513,0.0,0.0,0.0,0.0,0.0,0.0,0.0,0.0,-1.7938,-1.7713,-1.7474,-1.6203,0.0,0.0,0.0,0.0,0.0,-1.6398,-1.7459,-1.8117,-1.698,-1.713,-1.7563,-1.7684,-1.7549,-1.7594,-1.8252,-1.8927,-1.9947,-2.1759,-2.3595,-2.5555,0.0,0.0,0.0,0.0,0.0,0.0,0.0,0.0,0.0,0.0,0.0,0.0,0.0,0.0,0.0,0.0,0.0,0.0,0.0,0.0,0.0,0.0,-4.6741,-4.7309,-4.7294,-4.6741,-4.6384,-4.6264,-4.5828,0.0,0.0,0.0,0.0,-3.9712,-3.8708,-3.8115,-3.7839,-3.7462,-3.7211,-3.6998,-3.6581,-3.6405,-3.6405,0.0,0.0,0.0,0.0,0.0,0.0,0.0,0.0,0.0,0.0,0.0,0.0,0.0,0.0,0.0,0.0,0.0,0.0,0.0,0.0,-1.78,-1.78,-1.78,-1.7964,-1.829,-1.8277,-1.8513,-1.9061,-1.9999,-2.0398,-2.0309,-2.0524,-2.0292,-1.9708,-1.9708,-1.9708,-1.9708,-1.9708,-1.9708,-1.9708,0.0,0.0,0.0,0.0,0.0,0.0,0.0,0.0,0.0,0.0,-1.8237,-1.8012,-1.6697,0.0,0.0,0.0,0.0,0.0,-1.6443,-1.716,-1.7833,-1.8653,-1.9104,-1.9223,-1.8867,-1.8508,-1.8433,-1.9091,-1.9498,-2.0412,0.0,0.0,0.0,0.0,0.0,0.0,0.0,0.0,0.0,0.0,0.0,0.0,0.0,0.0,0.0,0.0,0.0,0.0,0.0,0.0,0.0,0.0,0.0,0.0,0.0,-4.5903,-4.6411,-4.677,-4.6429,-4.6127,-4.5753,-4.5439,-4.4234,0.0,0.0,-4.064,-3.8839,-3.8214,-3.7651,-3.7123,-3.7161,-3.6998,-3.6757,-3.6505,-3.6405,-3.6405,0.0,0.0,0.0,0.0,0.0,0.0,0.0,0.0,0.0,0.0,0.0,0.0,0.0,0.0,0.0,0.0,0.0,0.0,0.0,0.0,-1.78,-1.78,-1.7715,-1.7955,-1.8533,-1.9006,-1.9366,-1.962,-2.0479,-2.0577,-1.9929,-1.9929,-1.9839,-1.9708,-1.9708,-1.9708,-1.9708,-1.9708,-1.9708,-1.9708,0.0,0.0,0.0,0.0,0.0,0.0,0.0,0.0,0.0,0.0,0.0,0.0,0.0,0.0,0.0,-1.6099,-1.565,-1.5486,-1.6637,-1.716,-1.7847,-1.9761,-2.0464,-2.0763,-2.1021,-2.0677,-2.0602,-2.1575,-2.1924,0.0,0.0,0.0,0.0,0.0,0.0,0.0,0.0,0.0,0.0,0.0,0.0,0.0,0.0,0.0,0.0,0.0,0.0,0.0,0.0,0.0,0.0,0.0,0.0,0.0,0.0,-4.499,-4.5409,-4.6082,-4.5933,-4.5574,-4.5065,-4.49,-4.3793,-4.199,-4.1791,-4.0474,-3.849,-3.817,-3.74,-3.6455,-3.6822,-3.6782,-3.6405,-3.6405,-3.6405,-3.6405,0.0,0.0,0.0,0.0,0.0,0.0,0.0,0.0,0.0,0.0,0.0,0.0,0.0,0.0,0.0,0.0,0.0,0.0,0.0,0.0,-1.78,-1.78,-1.7502,-1.7967,-1.9288,-1.8766,-1.9265,-2.0879,-2.0534,-2.0444,-2.0628,-2.0628,-2.0303,-1.9708,-1.9708,-1.9708,-1.9708,-1.9708,-1.9708,-1.9708,-1.9708,0.0,0.0,0.0,0.0,0.0,0.0,0.0,0.0,0.0,0.0,0.0,0.0,0.0,-1.5964,-1.6473,-1.6592,-1.6726,-1.7428,-1.8553,-1.9375,-1.8957,-1.9776,-2.148,-2.4507,-2.5151,-2.5659,-2.756,-2.8442,-2.8963,0.0,0.0,0.0,0.0,0.0,0.0,0.0,0.0,0.0,0.0,0.0,0.0,0.0,0.0,0.0,0.0,0.0,0.0,0.0,0.0,0.0,0.0,0.0,0.0,0.0,0.0,-4.4721,-4.5364,-4.4751,-4.4436,-4.4362,-4.3708,-4.3339,-4.3115,-4.2075,-4.0916,-3.9681,-3.8562,-3.7446,-3.6405,-3.6455,-3.6443,-3.6405,-3.6405,-3.6405,-3.6405,0.0,0.0,0.0,0.0,0.0,0.0,0.0,0.0,0.0,0.0,0.0,0.0,0.0,0.0,0.0,0.0,0.0,0.0,0.0,-1.78,-1.78,-1.78,-1.7491,-1.7757,-1.8766,-1.877,-1.882,-1.8961,-1.9177,-1.9582,-2.0079,-2.0079,-1.9929,-1.9708,-1.9708,-1.9708,-1.9708,-1.9708,-1.9708,-1.9708,-1.9708,-1.9453,0.0,0.0,0.0,0.0,0.0,0.0,0.0,0.0,-1.8087,-1.7324,-1.7324,-1.6891,-1.6488,-1.713,-1.704,-1.695,-1.8027,-1.9301,-2.0468,-2.1036,-2.156,-2.2353,-2.3984,-2.5315,-2.6677,-2.8263,-2.943,-3.0402,0.0,0.0,0.0,0.0,0.0,0.0,0.0,0.0,0.0,0.0,0.0,0.0,0.0,0.0,0.0,0.0,0.0,0.0,0.0,0.0,0.0,0.0,0.0,0.0,0.0,0.0,-4.3823,-4.4077,-4.4242,-4.4317,-4.4287,-4.3589,-4.29,-4.2208,-4.1809,-4.0518,-3.8738,-3.8289,-3.7415,-3.6405,-3.6405,-3.6405,-3.6405,-3.6405,-3.6405,-3.6405,0.0,0.0,0.0,0.0,0.0,0.0,0.0,0.0,0.0,0.0,0.0,0.0,0.0,0.0,0.0,0.0,0.0,0.0,-1.78,-1.78,-1.78,-1.78,-1.7384,-1.7379,-1.7885,-1.7969,-1.797,-1.7924,-1.844,-1.8927,-1.9393,-1.9603,-1.9588,-1.9393,-1.9618,-1.9708,-1.9708,-1.9708,-1.9708,-1.9708,-1.9708,-1.9438,0.0,0.0,0.0,0.0,0.0,0.0,0.0,0.0,-1.7938,-1.7413,-1.7623,-1.7384,-1.7115,-1.7579,-1.7369,-1.7219,-1.8132,-1.9361,-2.0662,-2.1804,-2.2853,-2.4006,-2.545,-2.6527,-2.7904,-3.0298,-3.1644,-3.2482,-3.2766,0.0,0.0,0.0,0.0,0.0,0.0,0.0,0.0,0.0,0.0,0.0,0.0,0.0,0.0,0.0,0.0,0.0,0.0,0.0,0.0,0.0,0.0,0.0,0.0,0.0,-4.303,-4.303,-4.3479,-4.3808,-4.3988,-4.3499,-4.286,-4.2152,-4.2152,-4.1028,-3.92,-3.92,-3.8334,-3.6883,-3.6534,-3.6405,-3.6405,-3.6405,-3.6405,-3.6405,0.0,0.0,0.0,0.0,0.0,0.0,0.0,0.0,0.0,0.0,0.0,0.0,0.0,0.0,0.0,0.0,0.0,0.0,-1.78,-1.78,-1.78,-1.78,-1.7167,-1.6802,-1.6802,-1.6136,-1.665,-1.8377,-1.8575,-1.8687,-1.8717,-1.9393,-1.9348,-1.8747,-1.9408,-1.9708,-1.9708,-1.9708,-1.9708,-1.9708,-1.9708,-1.9708,-1.9708,0.0,0.0,0.0,0.0,0.0,0.0,0.0,-1.7264,-1.6831,-1.7488,-1.7713,-1.7697,-1.7728,-1.7712,-1.7712,-1.7728,-1.8717,-1.9884,-2.0554,-2.3184,-2.6482,-2.9759,-2.9535,-2.9939,-3.4547,-3.6028,-3.5893,-3.3888,0.0,0.0,0.0,0.0,0.0,0.0,0.0,0.0,0.0,0.0,0.0,0.0,0.0,0.0,0.0,0.0,0.0,0.0,0.0,0.0,0.0,0.0,0.0,0.0,0.0,-4.2396,-4.2396,-4.2396,-4.2701,-4.329,-4.329,-4.329,-4.329,-4.329,-4.2644,-4.1587,-4.1587,-4.0204,-3.7984,-3.6849,-3.6405,-3.6405,-3.6405,-3.6405,-3.6405,0.0,0.0,0.0,0.0,0.0,0.0,0.0,0.0,0.0,0.0,0.0,0.0,0.0,0.0,0.0,0.0,0.0,0.0,-1.78,-1.78,-1.78,-1.78,-1.7368,-1.7039,-1.6802,-1.6136,-1.6262,-1.7197,-1.7252,-1.7788,-1.8702,-1.8897,-1.9136,-1.9405,-1.9618,-1.9708,-1.9708,-1.9708,-1.9708,-1.9708,-1.9708,-1.9708,-1.9648,0.0,0.0,0.0,0.0,0.0,0.0,0.0,0.0,0.0,-1.7654,-1.8027,-1.8508,-1.8972,-1.9106,-1.9211,-1.9672,-2.1111,-2.2607,-2.3274,0.0,0.0,-2.9968,-3.0554,-3.1421,-3.4218,-3.6028,-3.6686,-3.519,0.0,0.0,0.0,0.0,0.0,0.0,0.0,0.0,0.0,0.0,0.0,0.0,0.0,0.0,0.0,0.0,0.0,0.0,0.0,0.0,0.0,0.0,0.0,0.0,0.0,0.0,-4.1707,-4.1707,-4.2252,-4.329,-4.2865,-4.2895,-4.329,-4.329,-4.2644,-4.1462,-3.98,-3.8725,-3.7984,-3.6849,-3.6405,-3.6405,-3.6405,-3.6405,-3.6405,0.0,0.0,0.0,0.0,0.0,0.0,0.0,0.0,0.0,0.0,-1.78,-1.78,0.0,0.0,0.0,0.0,0.0,0.0,0.0,-1.78,-1.78,-1.78,-1.7344,-1.6888,-1.6407,-1.6011,-1.5979,-1.6338,-1.6577,-1.7249,-1.8311,-1.8583,-1.8912,-1.9301,-1.9588,-1.9708,-1.9708,-1.9708,-1.9708,-1.9708,-1.9708,-1.9708,-1.9663,0.0,0.0,0.0,0.0,0.0,0.0,0.0,0.0,0.0,-1.8102,-1.8568,-1.9121,-1.9256,-1.9286,-1.939,-1.9809,-2.1545,0.0,-2.4694,-2.7096,-2.9669,-3.1629,0.0,0.0,0.0,-3.7015,-3.7883,0.0,0.0,0.0,0.0,0.0,0.0,0.0,0.0,0.0,0.0,0.0,0.0,0.0,0.0,0.0,0.0,0.0,0.0,0.0,0.0,0.0,0.0,0.0,0.0,0.0,0.0,0.0,0.0,-4.0995,-4.1534,-4.2536,-4.2147,-4.2192,-4.2551,-4.2551,-4.2169,-4.1354,-3.9011,-3.8205,-3.8216,-3.6447,-3.5843,-3.6006,-3.5793,-3.5705,-3.5705,0.0,0.0,0.0,0.0,0.0,0.0,0.0,0.0,0.0,0.0,-1.78,-1.78,0.0,0.0,0.0,0.0,0.0,0.0,0.0,0.0,-1.78,-1.78,-1.7167,-1.6501,-1.5856,-1.5813,-1.5829,-1.5888,-1.6383,-1.6995,-1.7697,-1.8311,-1.8672,-1.8822,-1.9438,-1.9708,-1.9708,-1.9708,-1.9708,-1.9708,-1.9708,-1.9708,-1.9708,-1.9708,0.0,0.0,0.0,0.0,0.0,0.0,0.0,0.0,-1.8702,-1.9151,-1.9588,-1.8972,-1.8792,-1.8822,-1.8942,-2.0827,-2.3287,-2.536,-2.8925,0.0,-3.4322,-3.6178,-3.7419,-3.712,0.0,0.0,0.0,0.0,0.0,0.0,0.0,0.0,0.0,0.0,0.0,0.0,0.0,0.0,0.0,0.0,0.0,0.0,0.0,0.0,0.0,0.0,0.0,0.0,0.0,0.0,0.0,0.0,0.0,0.0,0.0,-4.0442,-4.1025,-4.1205,-4.1324,-4.1422,-4.1422,-4.1422,-4.1217,-3.9045,-3.8422,-3.8553,-3.5882,-3.5072,-3.537,-3.4856,-3.468,-3.4726,0.0,0.0,0.0,0.0,0.0,0.0,0.0,0.0,0.0,0.0,0.0,0.0,0.0,0.0,0.0,0.0,0.0,0.0,0.0,0.0,-1.78,-1.78,-1.7167,-1.6607,-1.6205,-1.5926,-1.6039,-1.6502,-1.6159,-1.6578,-1.7713,-1.7848,-1.8493,-1.9498,-1.9648,-1.9708,-1.9708,-1.9708,-1.9708,-1.9708,-1.9708,-1.9708,-1.9708,-1.9708,-1.9708,0.0,0.0,0.0,0.0,0.0,0.0,0.0,-1.8702,-1.9151,-1.9678,-1.9528,-1.9465,-1.9723,-2.0767,-2.2203,0.0,-2.7186,-3.1719,-3.5654,-3.6567,-3.7509,-3.7449,-3.4861,0.0,0.0,0.0,0.0,0.0,0.0,0.0,0.0,0.0,0.0,0.0,0.0,0.0,0.0,0.0,0.0,0.0,0.0,0.0,0.0,0.0,0.0,0.0,0.0,0.0,0.0,0.0,0.0,0.0,0.0,-3.8063,-3.8123,-3.8317,-3.9888,-4.0891,-4.1422,-4.1422,-4.1422,-4.1293,-3.9834,-3.8832,-3.8019,-3.6518,-3.55,-3.4843,-3.4718,-3.468,-3.4743,0.0,0.0,0.0,0.0,0.0,0.0,0.0,0.0,0.0,0.0,0.0,0.0,0.0,0.0,0.0,0.0,0.0,0.0,0.0,0.0,-1.7658,-1.7337,-1.6841,-1.6394,-1.6081,-1.6171,-1.6383,-1.6696,-1.6697,-1.7221,-1.8177,-1.8177,-1.8732,-1.9708,-1.9708,-1.9708,-1.9708,-1.9708,-1.9708,-1.9708,-1.9708,-1.9708,-1.9708,-1.9708,-1.9708,-1.9708,-1.9708,0.0,0.0,0.0,0.0,0.0,0.0,0.0,-1.9648,-1.9333,-1.9453,-1.9932,-2.0946,-2.2622,0.0,-2.94,0.0,-3.6193,-3.6821,-3.7464,-3.7345,0.0,0.0,0.0,0.0,0.0,0.0,0.0,0.0,0.0,0.0,0.0,0.0,0.0,0.0,0.0,0.0,0.0,0.0,0.0,0.0,0.0,0.0,0.0,0.0,0.0,0.0,0.0,-3.6971,-3.727,-3.7404,-3.7404,-3.7404,-3.7404,-3.7449,-3.8497,-3.9155,-3.9499,-3.9813,-3.9948,-3.989,-3.9092,-3.8589,-3.8162,-3.6285,-3.5361,-3.4999,-3.4243,-3.3935,-3.3972,0.0,0.0,0.0,0.0,0.0,0.0,0.0,0.0,0.0,0.0,0.0,0.0,0.0,0.0,0.0,0.0,0.0,0.0,0.0,0.0,0.0,-1.6828,-1.6474,-1.6136,-1.5813,-1.6398,-1.6756,-1.686,-1.7533,-1.8267,-1.9046,-1.8807,-1.9061,-1.9708,-1.9708,-1.9708,-1.9708,-1.9708,-1.9708,-1.9708,-1.9708,-1.9708,-1.9708,-1.9708,-1.9708,-1.9708,-1.9708,-1.9708,-1.9708,-1.9708,0.0,0.0,0.0,0.0,-1.9588,-1.9031,-1.9181,-1.9708,-2.0498,-2.2781,-2.6099,-3.0943,-3.3679,0.0,-3.5983,-3.6626,-3.6941,0.0,0.0,0.0,0.0,0.0,0.0,0.0,0.0,0.0,0.0,0.0,0.0,0.0,0.0,0.0,0.0,0.0,0.0,0.0,0.0,0.0,0.0,0.0,0.0,0.0,0.0,0.0,-3.6312,-3.6821,-3.7075,-3.7075,-3.7075,-3.7075,-3.7075,-3.7075,-3.7195,-3.7449,-3.8108,-3.8392,-3.8351,-3.8025,-3.803,-3.8054,-3.5696,-3.4916,-3.4914,-3.3606,-3.3124,-3.3093,0.0,0.0,0.0,0.0,0.0,0.0,0.0,0.0,0.0,0.0,-1.78,-1.78,0.0,0.0,0.0,0.0,0.0,0.0,-1.78,0.0,0.0,-1.6815,-1.6474,-1.6136,-1.5813,-1.6398,-1.698,-1.7579,-1.8237,-1.9208,-2.0404,-1.9241,-1.9061,-1.9708,-1.9708,-1.9708,-1.9708,-1.9708,-1.9708,-1.9708,-1.9708,-1.9708,-1.9708,-1.9708,-1.9708,-1.9708,-1.9708,-1.9708,-1.9708,-1.9708,-1.9708,0.0,0.0,0.0,0.0,-1.9588,-1.9211,-1.9106,-2.0359,0.0,-2.7051,0.0,-3.2287,-3.3933,0.0,0.0,0.0,0.0,0.0,0.0,0.0,0.0,0.0,0.0,0.0,0.0,0.0,0.0,0.0,0.0,0.0,0.0,0.0,0.0,0.0,0.0,0.0,0.0,0.0,0.0,0.0,0.0,0.0,0.0,-3.5639,-3.5714,-3.5759,-3.5759,-3.5759,-3.5759,-3.5759,-3.5759,-3.6372,-3.7449,-3.8108,-3.8392,-3.8392,-3.8326,-3.7614,-3.6464,-3.5584,-3.4471,-3.3384,-3.3192,-3.3124,-3.3187,0.0,0.0,0.0,0.0,0.0,0.0,0.0,0.0,0.0,0.0,0.0,-1.78,0.0,0.0,0.0,-1.78,-1.78,-1.7715,-1.7526,-1.7039,-1.667,-1.6528,-1.6205,-1.5941,-1.5799,-1.6757,-1.7399,-1.7713,-1.8747,-1.9555,-2.0139,-1.9929,-2.0378,-2.137,-2.0996,-2.0831,-2.0767,-2.0022,-1.9708,-1.9708,-1.9708,-1.9708,-1.9663,-1.9271,-1.9361,-1.9648,-1.9271,-1.9393,-1.9708,-1.9708,-1.9708,-1.9708,-1.9708,0.0,0.0,0.0,-1.9498,-1.9555,-2.0902,-2.334,-2.6033,0.0,-3.0088,-3.1569,-3.2602,0.0,0.0,0.0,0.0,0.0,0.0,0.0,0.0,0.0,0.0,0.0,0.0,0.0,0.0,0.0,0.0,0.0,0.0,0.0,0.0,0.0,0.0,0.0,0.0,-3.5504,-3.5504,-3.5504,-3.5504,0.0,-3.5504,-3.5504,-3.5504,-3.5504,-3.5504,-3.5504,-3.5504,-3.5504,-3.5818,-3.6372,-3.703,-3.733,-3.7345,-3.7704,-3.7482,-3.6808,-3.6324,-3.5416,-3.4309,-3.4074,-3.3641,-3.3106,0.0,0.0,0.0,0.0,0.0,0.0,0.0,0.0,0.0,0.0,0.0,0.0,0.0,0.0,0.0,0.0,-1.7715,-1.7526,-1.7199,-1.6633,-1.6301,-1.6301,-1.5983,-1.5799,-1.5799,-1.7056,-1.7713,-1.7713,-1.9031,-1.9798,-1.9959,-2.0647,-2.1575,-2.2673,-2.1994,-2.15,-2.1126,-2.0322,-1.9872,-1.9708,-1.9708,-1.9708,-1.9648,-1.9136,-1.9256,-1.9633,-1.9136,-1.9271,-1.9708,-1.9708,-1.9708,-1.9708,-1.9708,0.0,0.0,0.0,0.0,-1.9962,0.0,0.0,-2.4335,-2.6333,-2.7735,-2.8966,0.0,0.0,0.0,0.0,0.0,0.0,0.0,0.0,0.0,0.0,0.0,0.0,0.0,0.0,0.0,0.0,0.0,0.0,0.0,0.0,0.0,0.0,0.0,0.0,0.0,-3.4996,-3.4996,-3.4996,-3.4996,-3.507,-3.5235,-3.5415,-3.5504,-3.5504,-3.5504,-3.5504,-3.5504,-3.5504,-3.5504,-3.5549,-3.6207,-3.6492,-3.6522,-3.6985,-3.7118,-3.6956,-3.649,-3.5747,-3.4866,-3.4566,-3.3866,-3.3124,0.0,0.0,0.0,0.0,0.0,0.0,0.0,0.0,0.0,0.0,0.0,0.0,-1.78,-1.78,-1.78,-1.78,-1.7514,-1.7187,-1.6853,-1.6501,-1.6301,-1.6301,-1.5983,0.0,-1.5799,-1.7056,-1.7713,-1.7713,-1.9031,-2.0019,-2.0658,-2.1335,-2.2009,-2.2673,-2.1994,-2.0976,-1.9842,-2.0423,-2.0288,-1.9708,-1.9708,-1.9708,-1.9708,-1.9663,-1.9678,-1.9708,-1.9663,-1.9678,-1.9708,-1.9708,-1.9708,-1.9708,0.0,0.0,0.0,0.0,0.0,0.0,0.0,-2.1291,0.0,-2.4276,-2.5277,0.0,0.0,0.0,0.0,0.0,0.0,0.0,0.0,0.0,0.0,0.0,0.0,0.0,0.0,0.0,0.0,0.0,0.0,0.0,0.0,0.0,0.0,0.0,0.0,0.0,-3.3604,-3.3604,-3.3604,-3.3604,-3.3604,-3.3903,-3.4563,-3.5175,-3.5504,-3.5504,-3.5504,-3.5504,-3.5504,-3.5504,-3.5504,-3.5549,-3.6207,-3.6492,-3.6492,-3.6522,-3.6306,-3.5899,-3.5252,-3.4497,-3.3779,-3.3765,-3.3501,-3.3124,0.0,0.0,0.0,0.0,0.0,0.0,0.0,0.0,0.0,0.0,0.0,0.0,0.0,-1.78,-1.78,-1.78,-1.7502,-1.7163,-1.6828,-1.6488,-1.6205,-1.5983,-1.587,-1.5799,-1.5799,-1.7056,-1.7713,-1.7713,-1.9031,-1.9828,-2.0064,-2.0752,-2.0961,-2.0801,-2.141,-2.1425,-2.0932,-2.0318,-1.9914,-1.9708,-1.9708,-1.9708,-1.9648,-1.9211,-1.9333,0.0,0.0,0.0,0.0,0.0,0.0,0.0,0.0,0.0,0.0,-1.9828,0.0,0.0,0.0,0.0,0.0,-2.2473,-2.3236,-2.4036,0.0,0.0,0.0,0.0,0.0,0.0,0.0,0.0,0.0,0.0,0.0,0.0,0.0,0.0,0.0,0.0,0.0,0.0,0.0,0.0,0.0,0.0,0.0,0.0,-3.3469,-3.3499,-3.3499,-3.3499,-3.3499,-3.3604,-3.3874,-3.4502,-3.4846,-3.4846,-3.5295,-3.5504,-3.5504,-3.5504,-3.5504,-3.5519,-3.5744,-3.5863,-3.5863,-3.5863,-3.577,-3.5676,-3.5853,-3.4946,-3.3582,-3.3987,-3.3475,-3.2516,0.0,0.0,0.0,0.0,0.0,0.0,0.0,0.0,0.0,-1.78,0.0,0.0,0.0,0.0,-1.7721,-1.7479,-1.7248,-1.6939,-1.6488,-1.626,-1.6039,-1.5813,-1.5799,-1.5889,-1.6099,-1.7145,-1.7818,-1.8042,-1.9151,-1.9708,-1.9708,-2.0154,-2.0124,-1.9738,-2.0636,-2.1021,-2.0996,-2.0318,-1.9899,-1.9708,-1.9708,-1.9708,-1.9738,-1.9944,0.0,0.0,0.0,0.0,0.0,0.0,0.0,0.0,0.0,0.0,0.0,-1.9842,-1.9708,-1.9708,-1.9708,0.0,0.0,0.0,0.0,-2.2173,0.0,0.0,0.0,0.0,0.0,0.0,0.0,0.0,0.0,0.0,0.0,0.0,0.0,0.0,0.0,0.0,0.0,0.0,0.0,0.0,0.0,0.0,0.0,0.0,-3.2482,-3.2706,-3.2841,-3.2841,-3.3051,-3.3155,-3.3155,-3.3814,-3.4174,-3.4189,-3.4831,-3.516,-3.516,-3.54,-3.5504,-3.5504,-3.5504,-3.5504,-3.5504,-3.5504,-3.5504,-3.5549,-3.5983,-3.5248,-3.3974,-3.4416,-3.3661,-3.2396,0.0,0.0,0.0,0.0,0.0,0.0,0.0,0.0,-1.78,-1.78,0.0,0.0,0.0,0.0,0.0,-1.6956,-1.6879,-1.6591,-1.5915,-1.5857,-1.5828,-1.5799,-1.5799,-1.6069,-1.6681,-1.7354,-1.8027,-1.8702,-1.9361,-1.9708,-1.9708,-1.9708,-1.9708,-1.9708,-1.9708,-1.9708,-1.9753,-2.0393,-2.0303,-1.9708,0.0,-1.9768,-1.9977,0.0,0.0,0.0,-2.4156,-2.4649,0.0,-2.4694,0.0,0.0,0.0,0.0,-1.9738,-1.9708,-1.9708,-1.9708,0.0,0.0,0.0,0.0,0.0,0.0,0.0,0.0,0.0,0.0,0.0,0.0,0.0,0.0,0.0,0.0,0.0,0.0,0.0,0.0,0.0,0.0,0.0,0.0,0.0,0.0,0.0,0.0,0.0,0.0,-3.0507,-3.1077,-3.1451,-3.1466,-3.2093,-3.2437,-3.2452,-3.314,-3.3469,-3.3469,-3.4189,-3.4503,-3.4533,-3.519,-3.5504,-3.5504,-3.5504,-3.5504,-3.5504,-3.5504,-3.5504,-3.5504,-3.5504,-3.5236,-3.4872,-3.4837,-3.3965,-3.2751,0.0,0.0,0.0,0.0,0.0,0.0,-1.78,-1.78,-1.78,0.0,0.0,0.0,-1.78,-1.8285,-1.8737,-1.9073,-1.8848,-1.8286,-1.7379,-1.7058,-1.6557,-1.5828,-1.5799,-1.6069,-1.6681,-1.7354,-1.8027,-1.8702,-1.9361,-1.9708,-1.9708,-1.9708,-1.9708,-1.9708,-1.9708,-1.9708,-1.9708,-1.9884,-1.9872,-1.9783,-2.0771,-2.1141,0.0,0.0,0.0,0.0,0.0,-2.5644,-2.6123,0.0,-2.6078,-2.4852,0.0,-2.1261,-2.0333,-1.9824,-1.9708,-1.9708,-1.9708,0.0,0.0,0.0,0.0,0.0,0.0,0.0,0.0,0.0,0.0,0.0,0.0,0.0,0.0,0.0,0.0,0.0,0.0,0.0,0.0,0.0,0.0,0.0,0.0,0.0,0.0,0.0,0.0,-3.0043,-2.9849,-3.0013,-3.0328,-3.0748,-3.0971,-3.13,-3.1765,-3.2452,-3.2781,-3.2796,-3.3933,-3.4503,-3.4533,-3.519,-3.5504,-3.5504,-3.5504,-3.5504,-3.5504,-3.5504,-3.5504,-3.5504,-3.5504,-3.499,-3.4163,-3.3473,-3.2804,-3.2134,0.0,0.0,0.0,0.0,0.0,-1.78,-1.78,-1.78,-1.78,0.0,0.0,0.0,-1.8679,-1.9101,-1.9474,-1.9768,-1.9575,-1.9069,-1.8164,-1.7888,-1.7408,-1.6638,-1.6578,-1.6892,-1.7518,-1.7923,-1.8446,-1.9106,-1.9513,-1.9708,-1.9708,-1.9708,-1.9708,-1.9708,-1.9708,-1.9708,-1.9708,-1.9708,0.0,0.0,-2.1081,0.0,0.0,-2.3834,-2.4433,0.0,0.0,0.0,-2.7914,-2.8304,-2.8004,0.0,0.0,0.0,0.0,0.0,-2.0124,-2.0049,-1.9783,-1.9708,-1.9708,0.0,0.0,0.0,0.0,-2.0378,0.0,0.0,0.0,0.0,0.0,0.0,0.0,0.0,0.0,0.0,0.0,0.0,0.0,0.0,0.0,0.0,0.0,0.0,0.0,0.0,-2.9142,-2.9606,-2.9606,-2.9606,-2.9771,-3.0103,-3.0372,-3.0567,-3.0717,-3.1615,-3.1929,-3.1689,-3.3021,-3.3664,-3.3679,-3.4352,-3.4816,-3.507,-3.507,-3.5235,-3.5504,-3.5504,-3.5504,-3.5504,-3.5504,-3.5133,-3.4543,-3.4007,-3.341,-3.2768,0.0,0.0,0.0,-1.78,-1.7867,-1.7918,-1.7918,-1.7918,-1.7952,0.0,-1.8623,-1.9316,-2.0052,-2.012,-2.0051,-1.9837,-1.9753,-1.9416,-1.8683,-1.8592,-1.8346,-1.7811,-1.7779,-1.8062,-1.8687,-1.8702,-1.9031,-1.9708,-1.9708,-1.9708,-1.9708,-1.9708,-1.9708,-1.9708,-1.9708,0.0,-1.9708,0.0,0.0,-2.1754,-2.1231,-2.1829,0.0,0.0,-2.5824,-2.6063,-2.7844,-2.8966,-2.9577,-2.939,-2.9057,0.0,0.0,0.0,0.0,0.0,-2.0989,-2.0692,-2.0082,-1.9872,-1.9813,0.0,0.0,0.0,-1.9061,-1.9375,0.0,0.0,0.0,0.0,0.0,0.0,0.0,0.0,0.0,0.0,0.0,0.0,0.0,0.0,0.0,0.0,0.0,0.0,0.0,-2.6632,-2.8334,-2.9382,-2.9382,-2.9382,-2.9412,-2.9502,-2.9998,-3.0058,-2.9606,-3.0806,-3.1077,-3.0522,-3.1869,-3.2512,-3.2512,-3.32,-3.3814,-3.4399,-3.4474,-3.4848,-3.54,-3.5474,-3.5504,-3.5504,-3.5504,-3.5504,-3.5504,-3.5359,-3.4758,-3.3993,0.0,0.0,-1.78,-1.78,-1.8302,-1.8691,-1.8691,-1.8691,-1.891,-1.9478,-1.971,-2.0082,-2.0873,-2.097,-2.1181,-2.172,-2.1423,-2.0909,-2.0219,-1.9863,-1.9262,-1.83,-1.8269,-1.8403,-1.8687,-1.8702,-1.9031,-1.9708,-1.9708,-1.9708,-1.9708,-1.9708,-1.9708,-1.9708,-1.9708,-1.9708,-1.9708,0.0,0.0,-2.2538,-2.2892,0.0,-2.5196,-2.6656,-2.721,-2.727,-2.766,-2.8573,-2.9405,-2.809,-2.8446,-2.8828,0.0,0.0,0.0,-2.4186,0.0,0.0,0.0,0.0,0.0,0.0,0.0,0.0,-2.0329,-2.0404,0.0,0.0,0.0,0.0,0.0,0.0,0.0,0.0,0.0,0.0,0.0,0.0,0.0,0.0,0.0,0.0,0.0,0.0,0.0,-2.6557,-2.7465,-2.7989,-2.7989,-2.7989,-2.8244,-2.8771,-2.8906,-2.916,-2.9606,-3.0328,-3.0642,-3.0522,-3.1869,-3.2512,-3.2512,-3.32,-3.3559,-3.3724,-3.4279,-3.4578,-3.4758,-3.528,-3.5504,-3.5504,-3.5504,-3.5504,-3.5392,-3.4576,-3.4177,-3.3876,-1.78,-1.78,-1.78,-1.78,-1.8403,-1.8894,-1.8894,-1.9215,-1.9575,-1.9951,-2.0352,-2.0889,-2.1651,-2.1752,-2.1904,-2.2262,-2.2092,-2.1703,-2.113,-2.071,-2.0162,-1.9386,-1.9157,-1.9108,-1.9214,-1.9196,-1.9346,-1.9708,-1.9708,-1.9708,-1.9708,-1.9708,-1.9708,-1.9708,-1.9708,-1.9708,-1.9753,0.0,-2.1816,-2.3575,-2.3278,0.0,-2.5719,-2.6731,-2.7106,-2.723,-2.8252,-2.9449,-3.0365,-2.8898,-2.8931,0.0,0.0,-2.6388,-2.5591,0.0,-2.3764,-2.2134,0.0,0.0,0.0,-2.0778,0.0,0.0,0.0,-1.9687,0.0,0.0,0.0,0.0,0.0,0.0,0.0,0.0,0.0,0.0,0.0,0.0,0.0,0.0,0.0,0.0,0.0,0.0,-2.5367,-2.6048,-2.7046,-2.745,-2.7121,-2.742,-2.775,-2.8094,-2.8427,-2.8592,-2.8603,-2.9577,-3.0043,-3.0058,-3.1046,-3.1689,-3.2004,-3.2333,-3.2691,-3.3021,-3.3365,-3.3679,-3.4038,-3.4711,-3.4996,-3.5026,-3.537,-3.5504,-3.5439,-3.4953,-3.4758,-3.4691,-1.78,-1.78,-1.7834,-1.7986,-1.8623,-1.9164,-1.9329,-1.9858,-2.0234,-2.0234,-2.1042,-2.185,-2.2446,-2.2499,-2.2682,-2.3108,-2.2634,-2.232,-2.2376,-2.1675,-2.1039,-2.0567,-2.0244,-1.9997,-1.9836,-1.9818,-1.9818,-1.9818,-1.9818,-1.9856,-1.996,-1.9856,-1.9818,-1.9803,-1.9729,-1.9842,-2.0157,0.0,0.0,-2.4637,0.0,-2.4546,-2.6066,-2.6834,-2.7067,-2.7264,-2.9397,-3.0882,-3.1607,-3.0349,0.0,-3.0387,-2.9317,-2.7846,0.0,0.0,0.0,0.0,0.0,0.0,0.0,0.0,0.0,-2.0704,0.0,0.0,0.0,0.0,0.0,0.0,0.0,0.0,0.0,0.0,0.0,0.0,0.0,0.0,0.0,0.0,0.0,0.0,0.0,0.0,0.0,-2.5375,-2.6512,-2.7046,-2.6617,-2.7121,-2.7465,-2.76,-2.8139,-2.8154,-2.76,-2.8813,-2.9427,-2.9427,-3.0148,-3.0763,-3.1316,-3.1451,-3.1795,-3.2303,-3.2422,-3.2886,-3.3544,-3.4234,-3.4593,-3.4758,-3.5295,-3.5504,-3.5504,-3.5504,-3.5504,-3.5504,-1.78,-1.78,-1.8014,-1.8657,-1.9389,-2.0116,-2.0835,-2.1004,-2.1055,-2.1055,-2.229,-2.3173,-2.3274,-2.3274,-2.4052,-2.6031,-2.3816,-2.311,-2.5005,0.0,-2.1928,-2.1476,-2.1414,-2.1023,-2.0246,-2.0229,-2.0229,-2.0229,-2.0229,-2.0433,-2.0829,-2.0416,-2.0229,-2.0227,-1.9856,0.0,0.0,0.0,-2.362,0.0,-2.6476,-2.7034,0.0,-2.8625,-2.8794,-2.8715,-3.1323,-3.2364,-3.2359,0.0,-3.2406,-3.3547,0.0,-2.9902,-2.952,0.0,0.0,0.0,0.0,0.0,0.0,0.0,-2.2341,0.0,0.0,0.0,0.0,0.0,0.0,0.0,0.0,0.0,0.0,0.0,0.0,0.0,0.0,0.0,0.0,0.0,0.0,0.0,0.0,0.0,0.0,0.0,-2.542,-2.6048,-2.6557,-2.6662,-2.7001,-2.757,-2.7675,-2.7675,-2.76,-2.8323,-2.8712,-2.8727,-2.9939,-3.0552,-3.0642,-3.1227,-3.154,-3.1645,-3.2228,-3.2886,-3.3544,-3.4234,-3.4846,-3.5385,-3.5474,-3.5504,-3.5504,-3.5504,-3.5504,-3.5504,-1.8437,-1.8437,-1.8674,-1.9406,-2.0179,-2.0805,-2.114,-2.1935,-2.2324,-2.1887,-2.312,-2.4372,-2.522,-2.4932,-2.5428,-2.7344,0.0,-2.4493,0.0,0.0,-2.3076,-2.4274,-2.2767,-2.2117,-2.2609,-2.1551,-2.0767,-2.0297,-2.007,-2.0052,-2.0243,-2.0035,-1.9947,-1.9977,-2.0513,0.0,-2.1304,0.0,-2.5389,0.0,0.0,0.0,0.0,-2.9489,-3.0633,-3.1594,-3.2345,-3.3096,-3.3697,0.0,-3.3065,0.0,0.0,0.0,0.0,0.0,0.0,0.0,0.0,0.0,0.0,0.0,0.0,0.0,-2.1649,0.0,-2.0539,0.0,0.0,0.0,0.0,0.0,0.0,0.0,0.0,0.0,0.0,0.0,0.0,0.0,0.0,0.0,0.0,0.0,0.0,0.0,0.0,-2.4963,-2.4866,-2.5959,-2.6746,-2.7016,-2.7405,-2.76,-2.76,-2.8248,-2.8801,-2.9175,-3.0073,-3.0717,-3.1077,-3.1376,-3.1511,-3.1525,-3.1795,-3.2288,-3.2976,-3.3634,-3.4307,-3.4951,-3.5355,-3.5504,-3.5504,-3.5504,-3.5504,-3.5504,-1.9447,-1.935,-1.9435,-2.02,0.0,-2.1258,-2.1478,-2.2595,-2.3207,-2.2682,-2.3883,0.0,-2.6837,-2.6724,0.0,0.0,-2.8189,-2.7068,0.0,0.0,-2.4794,0.0,0.0,0.0,0.0,-2.2882,-2.1688,-2.0764,-2.0405,-2.0294,-2.0413,-2.0278,-2.0335,-2.057,0.0,-2.1874,-2.2459,0.0,0.0,-2.6918,-2.9729,-3.048,-2.9978,-3.056,-3.2056,-3.3808,-3.3523,-3.4052,-3.4871,-3.4871,-3.39,0.0,-3.451,0.0,0.0,0.0,0.0,0.0,-2.6406,0.0,0.0,0.0,0.0,0.0,0.0,0.0,0.0,0.0,0.0,0.0,0.0,0.0,0.0,-1.9446,0.0,0.0,0.0,0.0,0.0,0.0,0.0,0.0,0.0,0.0,0.0,0.0,0.0,0.0,-2.361,-2.5166,-2.6213,-2.6572,-2.7255,-2.76,-2.76,-2.8094,-2.8652,-2.9325,-2.9953,-3.0597,-3.1227,-3.1421,-3.1511,-3.1511,-3.169,-3.2138,-3.2841,-3.3499,-3.4158,-3.4801,-3.531,-3.5504,-3.5504,-3.5504,-3.5504,-3.5504,-2.0835,-2.05,-2.0217,-2.1021,0.0,0.0,0.0,0.0,0.0,0.0,0.0,0.0,0.0,0.0,0.0,0.0,0.0,-3.1326,-3.2033,0.0,-2.735,0.0,0.0,-2.5137,0.0,0.0,-2.3211,-2.1947,-2.1679,-2.1764,-2.2209,-2.1749,-2.1913,-2.2586,-2.2231,-2.3586,-2.6166,-2.6899,-2.8326,-3.0248,-3.1661,-3.3068,-3.4086,0.0,-3.2722,-3.4568,-3.5251,0.0,0.0,-3.5577,-3.5543,0.0,0.0,0.0,0.0,0.0,0.0,0.0,0.0,0.0,0.0,-2.9048,0.0,0.0,0.0,0.0,-2.2915,0.0,0.0,0.0,0.0,-2.028,-2.0096,-1.9494,-2.0288,0.0,0.0,0.0,0.0,0.0,0.0,0.0,0.0,0.0,0.0,0.0,0.0,0.0,-2.3535,-2.4276,-2.5247,-2.6557,-2.7255,-2.76,-2.76,-2.7615,-2.7974,-2.8637,-2.9295,-2.9939,-3.0552,-3.1197,-3.1511,-3.154,-3.2183,-3.2856,-3.3514,-3.4204,-3.4846,-3.5474,-3.5489,-3.5504,-3.5504,-3.5504,-3.5504,-3.5504,-2.1089,-2.1363,-2.1603,-2.1887,0.0,0.0,0.0,-2.3646,0.0,0.0,0.0,0.0,0.0,-3.3987,-3.4891,0.0,0.0,-3.3373,-3.3315,-3.0341,0.0,0.0,0.0,-2.7267,0.0,0.0,0.0,0.0,-2.2118,-2.2005,-2.2164,-2.2005,-2.2329,-2.306,0.0,-2.4623,0.0,0.0,0.0,0.0,0.0,-3.2598,-3.3085,0.0,0.0,-3.5267,-3.5498,-3.56,0.0,-3.56,-3.56,-3.5515,-3.5008,-3.4201,-3.3263,-3.2593,-3.1286,0.0,0.0,0.0,-3.0663,-3.0238,0.0,0.0,0.0,0.0,0.0,0.0,0.0,0.0,0.0,-2.1496,-2.1341,-2.0924,-2.1159,-2.1441,0.0,0.0,0.0,0.0,0.0,0.0,0.0,0.0,0.0,0.0,0.0,0.0,0.0,-2.3782,-2.5008,-2.5914,-2.7031,-2.76,-2.76,-2.8049,-2.8368,-2.8607,-2.9684,-3.0298,-3.0522,-3.1182,-3.1511,-3.154,-3.2198,-3.2886,-3.3544,-3.4234,-3.4891,-3.5504,-3.5504,-3.5504,-3.5504,-3.5504,-3.5504,-3.5504,-2.1583,-2.1972,0.0,0.0,0.0,0.0,0.0,0.0,0.0,0.0,-3.0818,0.0,-3.6427,0.0,-3.7678,0.0,-3.7491,-3.5971,-3.4942,-3.2652,0.0,-3.3495,-3.0728,0.0,0.0,0.0,0.0,0.0,0.0,-2.2949,-2.2949,-2.2949,-2.3342,-2.4097,0.0,-2.5574,-2.6327,0.0,-2.9801,0.0,0.0,-3.2462,0.0,0.0,-3.4573,0.0,0.0,-3.56,-3.56,-3.56,-3.56,-3.56,-3.56,-3.494,-3.4163,-3.4163,-3.3093,-3.2039,-3.2713,-3.2724,0.0,0.0,-3.1462,0.0,-2.876,0.0,0.0,0.0,0.0,0.0,0.0,0.0,-2.2151,-2.1667,-2.1733,-2.1943,0.0,-2.2296,0.0,0.0,0.0,0.0,0.0,0.0,0.0,0.0,0.0,0.0,0.0,0.0,-2.4588,-2.557,-2.6662,-2.736,-2.76,-2.8034,-2.8353,-2.8607,-2.9669,-3.0298,-3.0522,-3.1182,-3.1511,-3.154,-3.2198,-3.2766,-3.3215,-3.4144,-3.4741,-3.516,-3.5415,-3.5504,-3.5504,-3.5504,-3.5504,-3.5504,-2.2347,0.0,0.0,0.0,-2.2987,0.0,0.0,0.0,-2.923,0.0,-3.2831,-3.5238,-3.676,-3.763,-3.8974,-4.113,-4.0522,0.0,-3.7149,-3.6189,0.0,0.0,-3.2216,-3.1412,-3.1548,0.0,0.0,0.0,0.0,0.0,-2.4541,-2.4541,-2.4948,-2.5643,-2.5643,0.0,-2.7858,-2.8619,-2.9839,-3.1326,-3.2141,-3.2848,-3.3457,-3.3487,0.0,-3.459,-3.5329,-3.56,-3.56,-3.56,-3.56,-3.56,-3.56,-3.56,-3.56,-3.56,-3.5144,-3.4783,-3.5447,-3.4113,-3.3048,-3.5048,0.0,0.0,0.0,0.0,-3.0796,0.0,0.0,0.0,0.0,0.0,-2.2631,-2.1825,-2.202,-2.2296,-2.2296,0.0,0.0,0.0,0.0,0.0,0.0,0.0,0.0,0.0,0.0,0.0,0.0,0.0,0.0,-2.5495,-2.6228,-2.6926,-2.7585,-2.76,-2.7929,-2.8562,-2.922,-2.9864,-3.0477,-3.1137,-3.1466,-3.154,-3.2198,-3.2512,-3.2617,-3.3933,-3.4503,-3.4578,-3.5235,-3.5504,-3.5504,-3.5504,-3.5504,-3.5504,-2.3122,-2.4002,-2.4747,0.0,-2.4002,-2.4205,0.0,0.0,0.0,0.0,-3.5165,-3.78,-3.9816,-4.2202,-4.3429,-4.2875,-4.2131,0.0,0.0,0.0,0.0,-3.6793,-3.4863,-3.3259,-3.2122,-3.0456,0.0,-2.6505,0.0,0.0,-2.5321,-2.5321,-2.571,-2.642,0.0,0.0,-2.7824,-2.801,-2.9617,-3.2192,-3.4015,-3.4539,0.0,0.0,-3.481,-3.459,-3.5329,-3.56,-3.56,-3.56,-3.56,-3.56,-3.56,-3.56,-3.56,-3.56,-3.547,-3.5385,-3.5538,-3.52,-3.4801,-3.4841,-3.384,-3.2749,0.0,0.0,0.0,0.0,0.0,0.0,0.0,0.0,0.0,-2.3244,-2.2577,-2.2296,-2.2296,0.0,0.0,0.0,0.0,0.0,0.0,0.0,0.0,0.0,0.0,0.0,0.0,0.0,0.0,0.0,-2.5989,-2.6926,-2.7585,-2.76,-2.769,-2.7869,-2.8532,-2.919,-2.9834,-3.0477,-3.1017,-3.154,-3.2198,-3.2512,-3.2617,-3.3933,-3.4503,-3.4578,-3.5235,-3.5504,-3.5504,-3.5504,-3.5504,-3.5504,-2.3979,0.0,0.0,-2.6505,0.0,0.0,-2.9313,0.0,0.0,-3.4861,-3.7702,0.0,-4.1068,-4.3267,-4.4452,-4.3967,-4.2582,0.0,-4.0816,0.0,0.0,-3.7953,-3.6104,-3.4652,-3.3757,-3.1708,0.0,-2.7723,0.0,0.0,-2.6065,-2.5761,-2.5998,-2.6691,0.0,-2.6928,-2.7367,-2.8382,-2.9786,-3.1495,-3.3406,0.0,0.0,-3.4489,-3.4793,-3.5047,-3.5447,-3.56,-3.56,-3.56,-3.56,-3.56,-3.56,-3.56,-3.56,-3.56,-3.56,-3.56,-3.56,-3.56,-3.5515,-3.5121,-3.4695,-3.4179,-3.3522,-3.3245,-3.3035,0.0,0.0,0.0,0.0,0.0,0.0,-2.3325,-2.2852,-2.2682,0.0,0.0,0.0,0.0,0.0,0.0,0.0,0.0,0.0,0.0,0.0,0.0,0.0,0.0,0.0,0.0,-2.5907,-2.6684,-2.6288,-2.775,-2.8034,-2.718,-2.8128,-2.8951,-2.9636,-3.0223,-3.0881,-3.1525,-3.1899,-3.2049,-3.2153,-3.3499,-3.4038,-3.4174,-3.5115,-3.5504,-3.5504,-3.5504,-3.5504,-3.5504,-2.499,0.0,0.0,0.0,0.0,0.0,0.0,-3.3372,0.0,-3.7652,0.0,-4.1339,-4.1339,-4.2689,-4.3852,-4.4378,0.0,-4.1043,-4.0359,-3.9626,-3.892,-3.8295,-3.6736,-3.5848,-3.5769,-3.2865,0.0,0.0,0.0,0.0,-2.6691,-2.6048,-2.6099,-2.6691,0.0,0.0,0.0,-2.9279,-3.0311,0.0,-3.2087,-3.3169,-3.3829,-3.3744,-3.4556,-3.5735,-3.5633,-3.56,-3.56,-3.56,-3.56,-3.56,-3.56,-3.56,-3.56,-3.56,-3.56,-3.56,-3.56,-3.56,-3.56,-3.56,-3.56,-3.5447,-3.4854,-3.5184,-3.543,-3.4847,-3.4164,0.0,0.0,0.0,0.0,-2.3054,0.0,0.0,0.0,0.0,0.0,0.0,0.0,0.0,0.0,0.0,0.0,0.0,0.0,0.0,0.0,0.0,0.0,0.0,-2.5749,0.0,-2.5085,0.0,-2.8693,-2.7111,-2.8113,-2.8981,-2.9714,-3.0178,-3.0806,-3.1511,-3.1511,-3.1511,-3.16,-3.2961,-3.3604,-3.3873,-3.504,-3.5504,-3.5504,-3.5504,-3.5504,-3.5504,0.0,0.0,0.0,0.0,0.0,-3.3136,-3.8007,-3.5707,-3.4709,-3.8328,-4.073,0.0,-4.21,-4.4018,-4.4833,-4.3713,-4.3215,0.0,0.0,0.0,0.0,-3.975,-3.8293,-3.7212,-3.6586,-3.3647,-3.1396,0.0,0.0,-2.73,-2.6691,-2.6573,-2.6573,-2.6691,0.0,0.0,-2.7756,-3.004,0.0,-3.2107,-3.4184,-3.5504,-3.6135,-3.5487,-3.5791,-3.6485,-3.5836,-3.56,-3.56,-3.56,-3.56,-3.56,-3.56,-3.56,-3.56,-3.56,-3.56,-3.56,-3.56,-3.56,-3.56,-3.56,-3.56,-3.5577,-3.5447,-3.5515,-3.5577,-3.5447,-3.5313,-3.4788,-3.3457,0.0,0.0,0.0,0.0,0.0,0.0,0.0,0.0,0.0,0.0,0.0,0.0,0.0,0.0,0.0,0.0,0.0,0.0,0.0,0.0,0.0,0.0,0.0,0.0,0.0,0.0,-2.9804,-2.8996,-2.9205,-3.0328,-2.9924,-3.0402,-3.1511,-3.1511,-3.1511,-3.16,-3.2961,-3.4143,-3.5175,-3.5415,-3.5504,-3.5504,-3.5504,-3.5504,-3.5504,0.0,0.0,0.0,0.0,0.0,0.0,0.0,-3.8345,0.0,-4.0409,-4.1627,-4.2286,-4.2286,-4.3623,-4.4204,-4.346,-4.2682,-4.1965,-4.1255,-4.0832,-4.046,-4.013,-3.8684,0.0,-3.6829,-3.4595,-3.2341,-3.0108,0.0,0.0,-2.6691,-2.6302,-2.6336,-2.6725,0.0,-2.8078,0.0,0.0,0.0,-3.3034,-3.4856,-3.6079,-3.6761,-3.6366,-3.6451,-3.6694,-3.5893,-3.56,-3.56,-3.56,-3.56,-3.56,-3.56,-3.56,-3.56,-3.56,-3.56,-3.56,-3.56,-3.56,-3.56,-3.56,-3.56,-3.56,-3.56,-3.56,-3.56,-3.56,-3.56,-3.5025,-3.3169,-3.1343,0.0,0.0,0.0,0.0,0.0,0.0,0.0,0.0,0.0,0.0,0.0,0.0,0.0,0.0,0.0,0.0,0.0,0.0,0.0,0.0,0.0,0.0,0.0,0.0,0.0,-2.8472,-2.8906,-2.9594,-3.0492,-3.0193,-3.0597,-3.1511,-3.1511,-3.1705,-3.2108,-3.3469,-3.4592,-3.5504,-3.5504,-3.5504,-3.5504,-3.5504,-3.5504,-3.5504,0.0,-3.1547,0.0,0.0,-3.4066,0.0,0.0,-4.0595,-4.1762,-4.2658,-4.2625,-4.2523,-4.2523,-4.2912,-4.3088,-4.2936,-4.188,-4.1136,-4.0984,-4.0409,-4.0096,-4.0096,-3.8684,-3.7635,-3.7066,-3.5368,-3.3288,0.0,0.0,0.0,-2.7165,-2.6251,0.0,0.0,0.0,0.0,0.0,0.0,-3.3051,-3.3981,-3.5312,-3.6417,-3.7235,-3.6931,-3.6897,-3.6914,-3.596,-3.56,-3.56,-3.56,-3.56,-3.56,-3.56,-3.56,-3.56,-3.56,-3.56,-3.56,-3.56,-3.56,-3.56,-3.56,-3.56,-3.56,-3.56,-3.56,-3.56,-3.56,-3.56,-3.5008,-3.3123,-3.2649,0.0,0.0,0.0,0.0,0.0,0.0,0.0,0.0,0.0,0.0,0.0,0.0,0.0,0.0,0.0,0.0,0.0,0.0,0.0,0.0,0.0,0.0,-2.4319,0.0,-2.9357,0.0,-2.9086,-3.0103,-3.0717,-3.0567,-3.0956,-3.1705,-3.157,-3.1959,-3.2811,-3.4024,-3.4891,-3.5504,-3.5504,-3.5504,-3.5504,-3.5504,-3.5504,-3.5504,0.0,0.0,0.0,0.0,0.0,0.0,0.0,-4.1677,-4.2709,-4.4192,-4.3758,-4.3318,-4.3318,-4.276,-4.2134,-4.1457,-4.1288,-4.0916,-4.0248,-4.0146,-4.0096,-4.0096,-3.8684,-3.7872,-3.7804,-3.5622,-3.4032,0.0,0.0,0.0,0.0,0.0,0.0,0.0,0.0,0.0,0.0,-3.2933,-3.4095,-3.5464,-3.6332,-3.754,-3.8633,-3.732,-3.7235,-3.7601,-3.6124,-3.56,-3.56,-3.56,-3.56,-3.56,-3.56,-3.56,-3.56,-3.56,-3.56,-3.56,-3.56,-3.56,-3.56,-3.56,-3.56,-3.56,-3.56,-3.56,-3.56,-3.56,-3.56,-3.5329,-3.4455,-3.3744,-3.2324,0.0,0.0,0.0,0.0,0.0,0.0,0.0,0.0,0.0,0.0,0.0,0.0,0.0,0.0,0.0,0.0,0.0,0.0,0.0,0.0,-2.6115,0.0,-2.847,0.0,-3.1032,-3.0627,-3.0748,-3.1391,-3.0791,-3.121,-3.2363,-3.1765,-3.2213,-3.3455,-3.4219,-3.4891,-3.5504,-3.5504,-3.5504,-3.5504,-3.5504,-3.5504,-3.5504,0.0,0.0,0.0,0.0,0.0,0.0,0.0,-4.2489,-4.3183,-4.3809,-4.3606,-4.325,-4.2794,-4.2083,-4.1525,-4.1238,-4.0798,-4.0417,-4.013,-4.0096,-4.0096,-4.0096,-3.8684,-3.7905,-3.7905,-3.6113,-3.4568,0.0,0.0,0.0,0.0,0.0,0.0,0.0,0.0,-3.2121,-3.3034,-3.4235,-3.5351,-3.6383,-3.7144,-3.8075,-3.8886,-3.7838,-3.7652,-3.7702,-3.614,-3.56,-3.56,-3.56,-3.56,-3.56,-3.56,-3.56,-3.56,-3.56,-3.56,-3.56,-3.56,-3.56,-3.56,-3.56,-3.56,-3.56,-3.56,-3.56,-3.56,-3.56,-3.56,-3.5498,-3.5216,-3.4556,-3.3372,0.0,0.0,0.0,0.0,0.0,0.0,0.0,0.0,0.0,0.0,0.0,0.0,0.0,0.0,0.0,0.0,0.0,0.0,-2.3945,0.0,-2.6007,-2.73,-2.863,-2.9668,-3.0372,-3.0853,-3.1241,-3.1511,-3.163,-3.2213,-3.311,-3.3245,-3.3589,-3.4159,-3.4816,-3.525,-3.5504,-3.5504,-3.5504,-3.5504,-3.5504,-3.5504,-3.5504,-3.9703,0.0,-3.936,0.0,-4.1018,-4.1948,-4.2252,-4.3132,-4.3589,-4.3149,-4.3081,-4.2811,-4.2049,-4.1322,-4.0882,-4.0882,-4.0417,-4.0096,-4.0096,-4.0096,-4.0011,-3.9791,-3.8565,0.0,-3.7584,-3.6276,-3.5092,-3.4066,-3.2577,0.0,0.0,0.0,0.0,0.0,-3.2949,-3.3643,-3.4112,-3.5397,-3.6417,-3.7178,-3.7922,-3.8667,-3.9208,-3.8261,-3.7905,-3.7702,-3.614,-3.56,-3.56,-3.56,-3.56,-3.56,-3.56,-3.56,-3.56,-3.56,-3.56,-3.56,-3.56,-3.56,-3.56,-3.56,-3.56,-3.56,-3.56,-3.56,-3.56,-3.56,-3.56,-3.56,-3.56,-3.5013,-3.402,0.0,0.0,0.0,0.0,0.0,0.0,0.0,-2.6116,-2.6488,-2.5981,0.0,0.0,0.0,0.0,0.0,0.0,0.0,0.0,0.0,0.0,0.0,0.0,0.0,-2.9449,-2.9864,-3.1195,-3.1795,-3.1824,-3.2706,-3.3245,-3.3544,-3.4397,-3.4698,-3.4563,-3.522,-3.5504,-3.5504,-3.5504,-3.5504,-3.5504,-3.5504,-3.5504,-3.5504,-4.3003,-4.2743,-4.2236,-4.2252,-4.2878,-4.3149,-4.2405,-4.3616,-4.4039,-4.2506,-4.2303,-4.2016,-4.1288,-4.0544,-4.0113,-4.0113,-4.0113,-4.0096,-4.0096,-4.0096,-3.9774,0.0,0.0,-3.755,-3.6829,-3.6028,-3.5583,-3.5566,0.0,0.0,-3.3355,0.0,0.0,-3.3372,-3.3406,-3.4197,-3.5616,-3.6434,-3.7195,-3.7956,-3.8684,-3.9436,-3.9943,-3.8464,-3.7905,-3.7702,-3.614,-3.56,-3.56,-3.56,-3.56,-3.56,-3.56,-3.56,-3.56,-3.56,-3.56,-3.56,-3.56,-3.56,-3.56,-3.56,-3.56,-3.56,-3.56,-3.56,-3.56,-3.56,-3.56,-3.56,-3.56,-3.5013,-3.402,-3.2547,0.0,0.0,0.0,0.0,0.0,0.0,-2.5811,-2.6691,-2.6691,0.0,0.0,0.0,0.0,0.0,0.0,0.0,0.0,-2.3704,-2.5631,0.0,-2.6999,-2.8405,-2.957,-3.0507,-3.1869,-3.2497,-3.2512,-3.3858,-3.4098,-3.3559,-3.4921,-3.51,-3.4563,-3.522,-3.5504,-3.5504,-3.5504,-3.5504,-3.5504,-3.5504,-3.5504,-3.5504,-4.3952,-4.4012,-4.3887,-4.3887,-4.4045,-4.413,-4.3904,-4.3809,-4.3623,-4.3115,-4.2168,-4.1457,-4.1238,0.0,-4.0096,0.0,-4.0096,-4.0096,0.0,-4.0096,-3.9774,-3.9022,-3.8294,-3.755,-3.6829,-3.6011,-3.56,-3.56,0.0,0.0,0.0,-3.3964,-3.4742,-3.5673,-3.5148,-3.547,-3.64,-3.6113,-3.6434,-3.7185,-3.7422,-3.7922,-3.8481,-3.7516,-3.7168,-3.7009,-3.5955,-3.56,-3.56,-3.56,-3.56,-3.56,-3.56,-3.56,-3.56,-3.56,-3.56,-3.56,-3.56,-3.56,-3.56,-3.56,-3.56,-3.56,-3.56,-3.56,-3.56,-3.56,-3.5194,-3.4844,-3.4844,-3.4252,-3.3271,-3.1802,0.0,0.0,0.0,0.0,0.0,0.0,0.0,-2.6894,0.0,-2.6573,0.0,0.0,0.0,0.0,0.0,0.0,0.0,0.0,-2.7003,0.0,-2.9372,-3.0186,-3.1018,-3.1884,-3.2766,-3.3425,-3.3858,-3.4324,-3.4622,-3.4891,-3.531,-3.5385,-3.519,-3.5415,-3.5504,-3.5504,-3.5504,-3.5504,-3.5504,-3.5504,-3.5504,-3.5504,-4.481,-4.4776,-4.4615,-4.4615,-4.4615,-4.4615,-4.4615,-4.4164,-4.3741,-4.3426,-4.2581,-4.183,-4.1271,-4.0781,0.0,-4.013,-4.0096,0.0,-4.0096,-4.0096,-3.9774,-3.9022,-3.8565,-3.7838,-3.6829,0.0,0.0,-3.56,-3.467,-3.4213,-3.4247,-3.5487,-3.6163,-3.6349,-3.6434,-3.6586,-3.6795,-3.6857,-3.7009,-3.7229,-3.7499,-3.7736,-3.7821,-3.7083,-3.6795,-3.6694,-3.5893,-3.56,-3.56,-3.56,-3.56,-3.56,-3.56,-3.56,-3.56,-3.56,-3.56,-3.56,-3.56,-3.56,-3.56,-3.56,-3.56,-3.56,-3.56,-3.56,-3.5515,-3.525,-3.481,-3.4404,-3.4134,-3.3474,-3.2679,-3.1769,0.0,0.0,0.0,0.0,0.0,0.0,0.0,0.0,0.0,-2.7824,0.0,0.0,0.0,0.0,0.0,0.0,0.0,-2.7634,-2.7915,0.0,-3.0779,-3.1148,-3.182,-3.2886,-3.3544,-3.4249,-3.4861,-3.4861,-3.51,-3.5504,-3.5504,-3.5504,-3.5504,-3.5504,-3.5504,-3.5504,-3.5504,-3.5504,-3.5504,-3.5504,-3.5504,-3.5504,-4.5545,-4.5062,0.0,0.0,-4.4626,0.0,-4.4615,-4.4564,-4.4231,-4.3494,-4.3308,-4.2716,-4.1356,-4.1153,-4.0849,-4.0163,0.0,0.0,0.0,-4.0096,-3.9774,-3.9022,-3.8988,0.0,-3.6829,-3.6795,-3.64,-3.56,-3.56,-3.56,-3.5616,-3.6417,-3.64,-3.5752,-3.7246,-3.7516,-3.6965,-3.8278,-3.8447,-3.7889,-3.8514,-3.8345,-3.7669,-3.6998,-3.6728,-3.6626,-3.5876,-3.56,-3.56,-3.56,-3.56,-3.56,-3.56,-3.56,-3.56,-3.56,-3.56,-3.56,-3.56,-3.56,-3.56,-3.56,-3.56,-3.56,-3.56,-3.56,-3.538,-3.4641,-3.4455,-3.4201,-3.3457,-3.2713,-3.2226,-3.2226,-3.2226,-3.1464,-2.9297,0.0,0.0,0.0,0.0,0.0,0.0,-2.9145,-2.8908,0.0,0.0,0.0,0.0,0.0,0.0,-2.7304,-2.8584,-2.9984,-3.144,-3.1501,-3.2249,-3.3649,-3.4279,-3.4891,-3.5504,-3.5504,-3.5504,-3.5504,-3.5504,-3.5504,-3.5504,-3.5504,-3.5504,-3.5504,-3.5504,-3.5504,-3.5504,-3.5504,-3.5504,-3.5504,0.0,0.0,-4.5294,-4.5294,-4.4906,-4.4615,-4.4615,-4.4079,-4.3639,-4.3409,-4.2439,-4.1593,-4.1238,-4.0696,-4.0299,-4.013,-4.0096,-4.0096,-4.0096,-4.0096,-3.9774,-3.9022,-3.8988,-3.8319,-3.6829,-3.6795,-3.64,-3.56,-3.56,-3.56,-3.5616,-3.6417,-3.6711,-3.6575,-3.7499,-3.7804,-3.7635,-3.7422,-3.7218,-3.7009,-3.6586,-3.6293,-3.6124,-3.596,-3.5893,-3.5853,-3.5667,-3.56,-3.56,-3.56,-3.56,-3.56,-3.56,-3.56,-3.56,-3.56,-3.56,-3.56,-3.56,-3.56,-3.56,-3.56,-3.56,-3.56,-3.56,-3.56,-3.538,-3.4641,-3.4049,-3.344,-3.2699,-3.1972,-3.1464,-3.1464,-3.1464,-3.0888,-2.923,0.0,0.0,0.0,-2.8773,-2.945,-3.0565,-3.0685,-3.0391,0.0,0.0,0.0,0.0,0.0,-3.0399,-3.0359,-3.0739,-3.1583,-3.296,-3.3487,-3.4178,-3.504,-3.519,-3.5355,-3.5504,-3.5504,-3.5504,-3.5504,-3.5504,-3.5504,-3.5504,-3.5504,-3.5504,-3.5504,-3.5504,-3.5504,-3.5504,-3.5504,-3.5504,-3.5504,-4.6864,-4.6336,-4.5915,-4.5915,-4.5648,-4.5225,-4.4599,-4.4426,-4.4019,-4.3024,-4.2506,-4.1965,-4.1271,-4.0832,-4.0485,-4.013,-4.0096,-4.0096,-4.0096,-4.0096,-3.9926,-3.9537,-3.9503,-3.8802,-3.733,-3.7297,-3.6738,-3.56,-3.56,-3.56,-3.5616,-3.6417,-3.6609,-3.6299,-3.7415,-3.7905,-3.7872,-3.7466,-3.7297,-3.7229,-3.6468,-3.5943,-3.56,-3.56,-3.56,-3.56,-3.56,-3.56,-3.56,-3.56,-3.56,-3.56,-3.56,-3.56,-3.56,-3.56,-3.56,-3.56,-3.56,-3.56,-3.5515,-3.5182,-3.5346,-3.5498,-3.5182,-3.5346,-3.538,-3.4641,-3.3914,-3.3169,-3.2446,-3.1701,-3.1089,-3.0751,-3.07,-3.0294,-2.9162,-2.9297,0.0,-2.9974,-3.0296,-3.0956,-3.2104,-3.2205,-3.1935,-3.1249,0.0,0.0,-3.0853,-3.2469,-3.281,-3.1453,-3.2065,-3.2916,-3.3933,-3.4607,-3.513,-3.5504,-3.5504,-3.5504,-3.5504,-3.5504,-3.5504,-3.5504,-3.5504,-3.5504,-3.5504,-3.5504,-3.5504,-3.5504,-3.5504,-3.5504,-3.5504,-3.5504,-3.5504,-3.5504,-4.753,-4.6999,-4.6548,-4.6548,-4.6478,-4.5975,-4.4711,-4.4953,-4.4594,-4.2646,-4.2832,-4.2678,-4.1443,-4.1307,-4.1034,-4.0412,-4.036,-4.0279,-4.0096,-4.0096,-4.0096,-4.0096,-4.0096,-3.9419,-3.7939,-3.774,-3.7069,-3.5832,-3.5832,-3.5788,-3.5734,-3.6639,-3.6542,-3.5667,-3.733,-3.7987,-3.7838,-3.7838,-3.7908,-3.7893,-3.7149,-3.6406,-3.5717,-3.5717,-3.5672,-3.56,-3.56,-3.56,-3.56,-3.56,-3.56,-3.56,-3.56,-3.56,-3.56,-3.56,-3.56,-3.56,-3.56,-3.5515,-3.5295,-3.4793,-3.5064,-3.5295,-3.4776,-3.5165,-3.538,-3.4641,-3.3914,-3.3169,-3.2446,-3.1701,-3.0954,-3.0207,-3.0023,-2.9668,-2.8925,0.0,0.0,-3.0954,-3.1887,-3.2716,-3.3339,-3.3508,-3.34,-3.3006,-3.4019,0.0,0.0,-3.493,-3.4723,-3.2274,-3.3265,-3.4103,-3.4653,-3.522,-3.5504,-3.5504,-3.5504,-3.5504,-3.5504,-3.5504,-3.5504,-3.5504,-3.5504,-3.5504,-3.5504,-3.5504,-3.5504,-3.5504,-3.5504,-3.5504,-3.5504,-3.5504,-3.5504,-3.5504,-4.8172,-4.7656,-4.7237,-4.7237,-4.6796,-4.6118,-4.5206,-4.4641,-4.3943,-4.2954,-4.2351,-4.1969,-4.1723,-4.1706,-4.1653,-4.1547,-4.1552,-4.1145,-4.0171,-4.0096,-4.0096,-4.0096,-4.0096,-3.9419,-3.7939,-3.7077,-3.6741,-3.6943,-3.6943,-3.6724,-3.6305,-3.7663,-3.7352,-3.5684,-3.7872,-3.8359,-3.756,-3.756,-3.7822,-3.8166,-3.7415,-3.6788,-3.6287,-3.6287,-3.5989,-3.56,-3.56,-3.56,-3.56,-3.56,-3.56,-3.56,-3.56,-3.56,-3.56,-3.56,-3.56,-3.56,-3.56,-3.5165,-3.4793,-3.5295,-3.5064,-3.4793,-3.5295,-3.5515,-3.538,-3.4641,-3.3914,-3.3169,-3.2446,-3.1701,-3.0954,-3.0207,-2.9583,-2.8873,0.0,0.0,-3.0142,-3.026,-3.2019,-3.3271,-3.3389,-3.3964,-3.4547,-3.5082,-3.5361,-3.5706,-3.6128,-3.646,-3.6411,-3.5899,-3.5505,-3.5294,-3.534,-3.5444,-3.5504,-3.5504,-3.5504,-3.5504,-3.5504,-3.5504,-3.5504,-3.5504,-3.5504,-3.5504,-3.5504,-3.5504,-3.5504,-3.5504,-3.5504,-3.5504,-3.5504,-3.5504,-3.5504,-3.5504,-4.8306,-4.8075,-4.7879,-4.7879,-4.7635,-4.6909,-4.5369,-4.5179,-4.4535,-4.2558,-4.2355,-4.2231,-4.1846,-4.181,-4.181,-4.181,-4.181,-4.1595,-4.1053,-4.1007,-4.1007,-4.1007,-4.1007,-4.0296,-3.8786,-3.793,-3.7382,-3.7209,-3.7209,-3.7307,-3.7494,-3.8175,-3.8227,-3.7773,-3.8391,-3.8641,-3.8523,-3.7682,-3.7697,-3.8229,-3.7509,-3.7057,-3.6843,-3.6843,-3.6684,-3.6419,-3.6139,-3.6032,-3.5985,-3.5694,-3.56,-3.56,-3.56,-3.56,-3.56,-3.56,-3.56,-3.56,-3.56,-3.5346,-3.5081,-3.503,-3.5064,-3.5081,-3.503,-3.5295,-3.5498,-3.5165,-3.4506,-3.3761,-3.3034,-3.2273,-3.141,-3.0294,-2.982,0.0,0.0,-2.9989,-3.114,-3.2324,-3.3728,-3.4928,-3.574,-3.6129,-3.6468,-3.68,-3.7237,-3.7633,-3.7973,-3.837,-3.8345,-3.7893,-3.6745,-3.5937,-3.5504,-3.5504,-3.5504,-3.5504,-3.5504,-3.5504,-3.5504,-3.5504,-3.5504,-3.5504,-3.5504,-3.5504,-3.5504,-3.5504,-3.5504,-3.5504,-3.5504,-3.5504,-3.5504,-3.5504,-3.5504,-3.5504,-4.8306,-4.8306,-4.8306,-4.8306,-4.8306,-4.7622,-4.5593,-4.5784,-4.5188,-4.2532,-4.2703,-4.2828,-4.2259,-4.2206,-4.2206,-4.2206,-4.2206,-4.2206,-4.2206,-4.2206,-4.2083,-4.1793,-4.1633,-4.1041,-3.9955,-3.9051,-3.8324,-3.7828,-3.7631,-3.7898,-3.8553,-3.8553,-3.8815,-3.9288,-3.8663,-3.8667,-3.9048,-3.7875,-3.7753,-3.8344,-3.7774,-3.7469,-3.736,-3.736,-3.7285,-3.7152,-3.6724,-3.6498,-3.635,-3.592,-3.5694,-3.56,-3.56,-3.56,-3.56,-3.56,-3.56,-3.56,-3.56,-3.5464,-3.5245,-3.4861,-3.5064,-3.525,-3.4844,-3.5199,-3.56,-3.56,-3.5013,-3.432,-3.3761,-3.3051,-3.2141,-3.0818,0.0,0.0,0.0,-3.1241,-3.2459,-3.4506,-3.5588,-3.6597,-3.7804,-3.8058,-3.8159,-3.8159,-3.8836,-3.9242,-3.9242,-3.9791,-3.9731,-3.8935,-3.76,-3.66,-3.6053,-3.5846,-3.575,-3.575,-3.5587,-3.5504,-3.5504,-3.5504,-3.5504,-3.5504,-3.5504,-3.5504,-3.5504,-3.5504,-3.5504,-3.5504,-3.5504,-3.5504,-3.5504,-3.5504,-3.5504,-3.5504,-4.8306,-4.8306,-4.8306,-4.8306,-4.8306,-4.7736,-4.6104,-4.5883,-4.5297,-4.3594,-4.3411,-4.3429,-4.3392,-4.3374,-4.3374,-4.3374,-4.3374,-4.3374,-4.3374,-4.3374,-4.2903,-4.1853,-4.1144,-4.0925,-4.1247,-3.9806,-3.9258,-3.971,-3.8944,-3.8751,-3.9049,-3.8977,-3.8795,-3.8468,-3.8357,-3.8198,-3.8022,-3.7896,-3.817,-3.8669,-3.8614,-3.8283,-3.7842,-3.7842,-3.7578,-3.7192,-3.7171,-3.6823,-3.6395,-3.6354,-3.6028,-3.56,-3.56,-3.56,-3.56,-3.56,-3.56,-3.56,-3.56,-3.5115,-3.4726,-3.5346,-3.5064,-3.4742,-3.538,-3.5566,-3.56,-3.56,-3.5013,-3.4472,-3.4421,-3.3812,-3.3068,-3.2276,0.0,0.0,-3.2039,-3.2763,-3.3812,-3.5329,-3.684,-3.7787,-3.7889,-3.8514,-3.892,-3.892,-3.9605,-4.0028,-4.0028,-4.0079,-3.9731,-3.8935,-3.8133,-3.7706,-3.7648,-3.6889,-3.6523,-3.6492,-3.5846,-3.5504,-3.5504,-3.5504,-3.5504,-3.5504,-3.5504,-3.5504,-3.5504,-3.5504,-3.5504,-3.5504,-3.5504,-3.5504,-3.5504,-3.5504,-3.5504,-3.5504,-4.8306,-4.8306,-4.8141,-4.7626,-4.7553,-4.7003,-4.5406,-4.5168,-4.4764,-4.3662,-4.3515,-4.3515,-4.3515,-4.3515,-4.3515,-4.3515,-4.3515,-4.3515,-4.3515,-4.3515,-4.3303,-4.2866,-4.2576,-4.2287,-4.1975,-4.0898,-4.0196,-3.99,-3.9093,-3.9014,-3.9601,-3.9584,-3.9739,-4.0038,-3.9531,-3.9235,-3.911,-3.8617,-3.8512,-3.8707,-3.8707,-3.8578,-3.8399,-3.8399,-3.8302,-3.8101,-3.7755,-3.7323,-3.6902,-3.6902,-3.6542,-3.6161,-3.6481,-3.6586,-3.6522,-3.6186,-3.5854,-3.56,-3.56,-3.5397,-3.5245,-3.5532,-3.538,-3.5402,-3.6163,-3.596,-3.5735,-3.6231,-3.5723,-3.5047,-3.4573,-3.4269,-3.3981,-3.3694,0.0,-3.3698,-3.4917,-3.534,-3.6045,-3.7533,-3.8227,-3.8751,-3.9208,-3.9537,-3.969,-3.969,-3.9943,-4.0096,-4.0096,-4.0096,-3.9952,-3.9662,-3.9358,-3.8778,-3.7822,-3.7515,-3.7338,-3.7338,-3.7055,-3.692,-3.692,-3.692,-3.692,-3.692,-3.692,-3.692,-3.689,-3.6384,-3.6165,-3.6149,-3.5668,-3.5504,-3.5504,-3.5504,-3.5504,-3.5504,-4.8306,-4.8306,-4.8141,-4.7571,-4.7278,-4.6636,-4.5278,-4.4874,-4.4415,-4.3625,-4.3515,-4.3515,-4.3515,-4.3515,-4.3515,-4.3515,-4.3515,-4.3515,-4.3515,-4.3515,-4.3515,-4.3515,-4.3515,-4.3239,-4.269,-4.1644,-4.082,-4.0286,-3.9221,-3.9111,-3.9882,-3.9643,-3.9955,-4.0689,-3.9882,-3.9515,-3.9478,-3.8927,-3.8707,-3.8707,-3.8707,-3.8707,-3.8707,-3.8707,-3.8707,-3.8643,-3.8283,-3.7738,-3.7209,-3.7209,-3.6843,-3.6437,-3.6643,-3.6704,-3.6623,-3.6249,-3.5898,-3.565,-3.591,-3.5994,-3.5994,-3.5994,-3.5994,-3.618,-3.6958,-3.6721,-3.6462,-3.7026,-3.6705,-3.6157,-3.5656,-3.5571,-3.5571,-3.5571,-3.5571,-3.5943,-3.6992,-3.7354,-3.7879,-3.887,-3.9191,-3.9529,-4.0045,-4.0096,-4.0096,-4.0096,-4.0096,-4.0096,-4.0096,-4.0096,-4.0096,-4.0096,-4.0096,-3.9584,-3.8513,-3.8262,-3.8149,-3.8133,-3.7892,-3.7793,-3.7793,-3.7793,-3.7793,-3.7793,-3.7793,-3.7793,-3.7719,-3.6934,-3.6615,-3.6523,-3.5782,-3.5504,-3.5504,-3.5504,-3.5504,-3.5504,-4.8306,-4.8306,-4.8306,-4.8306,-4.7626,-4.6819,-4.6012,-4.5223,-4.4415,-4.3608,-4.3515,-4.3515,-4.3515,-4.3515,-4.3515,-4.3515,-4.3515,-4.3515,-4.3515,-4.3515,-4.3515,-4.3515,-4.3515,-4.3515,-4.3515,-4.1919,-4.1095,-4.1095,-3.9481,-3.9111,-3.9863,-3.9074,-3.9129,-3.9845,-3.9056,-3.8707,-3.8707,-3.8707,-3.8707,-3.8707,-3.8707,-3.8707,-3.8707,-3.8707,-3.8707,-3.8707,-3.8707,-3.805,-3.7209,-3.7209,-3.6862,-3.6312,-3.5783,-3.5622,-3.56,-3.56,-3.56,-3.5769,-3.6586,-3.6812,-3.6812,-3.6812,-3.6812,-3.7015,-3.7736,-3.7905,-3.7905,-3.7922,-3.7905,-3.7905,-3.7905,-3.7905,-3.7905,-3.7922,-3.7922,-3.7922,-3.7922,-3.8548,-3.9005,-3.9005,-3.9656,-4.0096,-4.0096,-4.0096,-4.0096,-4.0096,-4.0096,-4.0096,-4.0096,-4.0096,-4.0096,-4.0096,-4.0096,-4.0096,-4.0096,-3.9315,-3.8908,-3.8908,-3.8177,-3.7822,-3.7822,-3.7822,-3.7822,-3.7822,-3.7822,-3.7822,-3.7764,-3.6934,-3.66,-3.6554,-3.5814,-3.5537,-3.5504,-3.5504,-3.5504,-3.5504,-4.8306,-4.8306,-4.8122,-4.7553,-4.7259,-4.6819,-4.6012,-4.5223,-4.4617,-4.4378,-4.3846,-4.3515,-4.3515,-4.3515,-4.3515,-4.3515,-4.3515,-4.3515,-4.3515,-4.3515,-4.3515,-4.3515,-4.3515,-4.3515,-4.3515,-4.1919,-4.1095,-4.1095,-3.9481,-3.8817,-3.9056,-3.8817,-3.8836,-3.9056,-3.8817,-3.8707,-3.8707,-3.8707,-3.8707,-3.8707,-3.8707,-3.8707,-3.8707,-3.8707,-3.8707,-3.8707,-3.8707,-3.8285,-3.7737,-3.8135,-3.7895,-3.7415,-3.725,-3.6729,-3.6264,-3.678,-3.67,-3.6603,-3.7364,-3.7567,-3.7567,-3.7567,-3.7567,-3.777,-3.8497,-3.8278,-3.8058,-3.8565,-3.8261,-3.7905,-3.7905,-3.7905,-3.8075,-3.8582,-3.8667,-3.8853,-3.9385,-3.9639,-3.9774,-3.9774,-3.9977,-4.0096,-4.0096,-4.0096,-4.0096,-4.0096,-4.0096,-4.0096,-4.0096,-4.0096,-4.0096,-4.0096,-4.0096,-4.0096,-4.0096,-3.9876,-3.9756,-3.9756,-3.9532,-3.9411,-3.9411,-3.9411,-3.9411,-3.9411,-3.9411,-3.9411,-3.9358,-3.8536,-3.8213,-3.8129,-3.7397,-3.7115,-3.7041,-3.6492,-3.6275,-3.6196,-4.8306,-4.8306,-4.8159,-4.7663,-4.7314,-4.6929,-4.6452,-4.5406,-4.4691,-4.4691,-4.3993,-4.3515,-4.3515,-4.3515,-4.3515,-4.3515,-4.3515,-4.3515,-4.3515,-4.3515,-4.3515,-4.3515,-4.3515,-4.3515,-4.3515,-4.1919,-4.1095,-4.1095,-3.9481,-3.8707,-3.8707,-3.8707,-3.8707,-3.8707,-3.8707,-3.8707,-3.8707,-3.8707,-3.8707,-3.8707,-3.8707,-3.8707,-3.8707,-3.8707,-3.8707,-3.8744,-3.9056,-3.864,-3.8,-3.8647,-3.832,-3.7649,-3.7842,-3.7555,-3.7266,-3.7737,-3.7878,-3.8052,-3.8812,-3.8832,-3.8726,-3.9016,-3.8707,-3.8531,-3.9259,-3.9089,-3.8886,-3.9326,-3.9073,-3.8768,-3.8768,-3.8768,-3.8903,-3.9343,-3.9453,-3.9605,-4.0045,-4.0096,-4.0096,-4.0096,-4.0096,-4.0096,-4.0096,-4.0096,-4.0096,-4.0096,-4.0096,-4.0096,-4.0096,-4.0096,-4.0096,-4.0096,-4.0096,-4.0096,-4.0096,-4.0096,-4.0096,-4.0096,-4.0096,-4.0096,-4.0096,-4.0096,-4.0096,-4.0096,-4.0096,-4.0096,-4.0045,-3.9236,-3.8908,-3.8827,-3.8092,-3.7793,-3.769,-3.6904,-3.6615,-3.6492,-4.8306,-4.8306,-4.8306,-4.8306,-4.7681,-4.7204,-4.7204,-4.5902,-4.4874,-4.4837,-4.4103,-4.3588,-4.3515,-4.3515,-4.3515,-4.3515,-4.3515,-4.3515,-4.3515,-4.3515,-4.3515,-4.3515,-4.3515,-4.3515,-4.3515,-4.1992,-4.1205,-4.1205,-3.9606,-3.8817,-3.8817,-3.8726,-3.8707,-3.8707,-3.8707,-3.8707,-3.8707,-3.8707,-3.8707,-3.8707,-3.8707,-3.8707,-3.8707,-3.8707,-3.8707,-3.8817,-3.9606,-3.9128,-3.8197,-3.9009,-3.8492,-3.7554,-3.7988,-3.8294,-3.8504,-3.8593,-3.9128,-3.9858,-4.0598,-4.0411,-4.0122,-4.0753,-4.0031,-3.9316,-3.9943,-4.0096,-4.0096,-4.0096,-4.0096,-4.0096,-4.0096,-4.0096,-4.0096,-4.0096,-4.0096,-4.0096,-4.0096,-4.0096,-4.0096,-4.0096,-4.0096,-4.0096,-4.0096,-4.0096,-4.0096,-4.0096,-4.0096,-4.0096,-4.0096,-4.0096,-4.0096,-4.0096,-4.0096,-4.0096,-4.0096,-4.0096,-4.0096,-4.0096,-4.0096,-4.0096,-4.0096,-4.0096,-4.0096,-4.0096,-4.0096,-4.0096,-4.0045,-3.9315,-3.9005,-3.8935,-3.8262,-3.8023,-3.7892,-3.7024,-3.6707,-3.6584,-4.8196,-4.8306,-4.8306,-4.8306,-4.8159,-4.8049,-4.8049,-4.7204,-4.6342,-4.5718,-4.4947,-4.4195,-4.357,-4.3515,-4.3515,-4.3515,-4.3515,-4.3515,-4.3515,-4.3515,-4.3515,-4.3515,-4.3515,-4.3515,-4.3515,-4.2543,-4.2047,-4.2047,-4.0432,-3.9643,-3.9625,-3.9001,-3.8707,-3.8707,-3.8707,-3.8707,-3.8707,-3.8707,-3.8707,-3.8707,-3.8707,-3.8707,-3.8707,-3.8707,-3.8707,-3.8817,-3.9606,-3.9706,-3.9589,-4.0412,-4.0216,-3.9643,-3.9752,-3.9566,-3.9447,-4.003,-4.0314,-4.0615,-4.1353,-4.146,-4.1279,-4.0984,-4.0706,-4.0418,-4.017,-4.0096,-4.0096,-4.0096,-4.0096,-4.0096,-4.0096,-4.0096,-4.0096,-4.0096,-4.0096,-4.0096,-4.0096,-4.0096,-4.0096,-4.0096,-4.0096,-4.0096,-4.0096,-4.0096,-4.0096,-4.0096,-4.0096,-4.0096,-4.0096,-4.0096,-4.0096,-4.0096,-4.0096,-4.0096,-4.0096,-4.0096,-4.0096,-4.0096,-4.0096,-4.0096,-4.0096,-4.0096,-4.0096,-4.0096,-4.0096,-4.0096,-4.007,-3.9901,-3.9833,-3.9808,-3.9679,-3.9601,-3.9428,-3.8048,-3.7544,-3.7338,-4.8233,-4.8306,-4.8306,-4.8306,-4.8306,-4.8306,-4.8306,-4.7608,-4.6947,-4.6544,-4.5773,-4.4966,-4.4158,-4.4066,-4.392,-4.3533,-4.3515,-4.3515,-4.3515,-4.3515,-4.3515,-4.3515,-4.3515,-4.3515,-4.3515,-4.3075,-4.2506,-4.1735,-4.0487,-3.9698,-3.9313,-3.8909,-3.8707,-3.8707,-3.8707,-3.8707,-3.8707,-3.8707,-3.8707,-3.8707,-3.8707,-3.8927,-3.9276,-3.9276,-3.9515,-3.9955,-4.0763,-4.1038,-4.1056,-4.1093,-4.0926,-4.0684,-4.0684,-4.0781,-4.0961,-4.134,-4.1737,-4.2116,-4.2512,-4.2424,-4.2162,-4.1853,-4.1534,-4.111,-4.0286,-4.0096,-4.0154,-4.0441,-4.0286,-4.0179,-4.0424,-4.0262,-4.0096,-4.0096,-4.0096,-4.0096,-4.0096,-4.0096,-4.0096,-4.0096,-4.0096,-4.0096,-4.0096,-4.0096,-4.0096,-4.0096,-4.0096,-4.0096,-4.0096,-4.0096,-4.0096,-4.0096,-4.0096,-4.0096,-4.0096,-4.0096,-4.0096,-4.0096,-4.0096,-4.0096,-4.0096,-4.0096,-4.0096,-4.0096,-4.0096,-4.0096,-4.0096,-4.0096,-3.9893,-3.9588,-3.9588,-3.9343,-3.8898,-3.7718,-3.7286,-3.7157,-4.7884,-4.8012,-4.8104,-4.8104,-4.8214,-4.8251,-4.8122,-4.7516,-4.7003,-4.6727,-4.6122,-4.5388,-4.458,-4.4488,-4.4232,-4.357,-4.3515,-4.3515,-4.3515,-4.3515,-4.3515,-4.3515,-4.3515,-4.3515,-4.3515,-4.3515,-4.2782,-4.1297,-4.0506,-3.968,-3.8909,-3.8909,-3.8836,-3.8707,-3.8836,-3.8909,-3.8909,-3.8909,-3.8982,-3.9111,-3.9111,-3.9515,-4.0102,-4.0102,-4.0524,-4.1205,-4.2011,-4.2396,-4.2396,-4.1754,-4.1499,-4.1499,-4.1499,-4.1974,-4.2506,-4.2506,-4.2983,-4.3515,-4.3515,-4.3178,-4.2826,-4.2731,-4.2322,-4.1682,-4.0618,-4.0385,-4.0538,-4.0949,-4.0625,-4.0368,-4.0827,-4.0449,-4.0096,-4.0096,-4.0096,-4.0096,-4.0096,-4.0096,-4.0096,-4.0096,-4.0096,-4.0096,-4.0096,-4.0096,-4.0096,-4.0096,-4.0096,-4.0096,-4.0096,-4.0096,-4.0096,-4.0096,-4.0096,-4.0096,-4.0096,-4.0096,-4.0096,-4.0096,-4.0096,-4.0096,-4.0096,-4.0096,-4.0096,-4.0096,-4.0096,-4.0096,-4.0096,-4.0096,-3.974,-3.9174,-3.9039,-3.8633,-3.7978,-3.7168,-3.6809,-3.6689,-4.614,-4.6764,-4.7259,-4.7259,-4.7828,-4.8086,-4.7369,-4.7168,-4.6599,-4.5205,-4.4947,-4.4562,-4.3736,-4.3644,-4.3608,-4.3515,-4.3515,-4.3515,-4.3515,-4.3515,-4.3515,-4.3515,-4.3515,-4.3515,-4.3515,-4.3515,-4.3039,-4.2139,-4.1315,-4.0543,-3.9735,-3.9735,-3.9368,-3.8726,-3.9423,-3.9735,-3.9735,-3.9735,-4.0139,-4.0783,-4.0783,-4.0838,-4.093,-4.093,-4.1003,-4.1205,-4.2011,-4.2745,-4.3331,-4.3221,-4.3167,-4.3167,-4.3167,-4.324,-4.3332,-4.3332,-4.3423,-4.3515,-4.3515,-4.3444,-4.3268,-4.2826,-4.2635,-4.2382,-4.1725,-4.1573,-4.1578,-4.1664,-4.1201,-4.081,-4.088,-4.0449,-4.0096,-4.0096,-4.0096,-4.0096,-4.0096,-4.0096,-4.0096,-4.0096,-4.0096,-4.0096,-4.0096,-4.0096,-4.0096,-4.0096,-4.0096,-4.0096,-4.0096,-4.0096,-4.0096,-4.0096,-4.0096,-4.0096,-4.0096,-4.0096,-4.0096,-4.0096,-4.0096,-4.0096,-4.0096,-4.0096,-4.0096,-4.0096,-4.0096,-4.0096,-4.0096,-4.0096,-4.0045,-3.9893,-3.9242,-3.8937,-3.8762,-3.7947,-3.7248,-3.671,-4.6766,-4.6634,-4.6434,-4.6434,-4.6728,-4.6838,-4.6489,-4.6434,-4.6177,-4.5461,-4.5369,-4.5057,-4.4268,-4.3754,-4.3515,-4.3515,-4.3515,-4.3515,-4.3515,-4.3515,-4.3515,-4.3515,-4.3515,-4.3515,-4.3515,-4.3515,-4.3112,-4.2304,-4.1937,-4.1368,-4.0579,-4.0579,-4.0396,-4.0049,-4.0414,-4.0579,-4.0579,-4.0579,-4.0781,-4.1095,-4.1095,-4.137,-4.1772,-4.1772,-4.2047,-4.2488,-4.2837,-4.3185,-4.3515,-4.3515,-4.3515,-4.3515,-4.3515,-4.3515,-4.3515,-4.3515,-4.3515,-4.3515,-4.3515,-4.3515,-4.3444,-4.3214,-4.316,-4.3069,-4.281,-4.2753,-4.2676,-4.2362,-4.1556,-4.0995,-4.1335,-4.0696,-4.0096,-4.0096,-4.0096,-4.0096,-4.0096,-4.0096,-4.0096,-4.0096,-4.0096,-4.0096,-4.0096,-4.0096,-4.0096,-4.0096,-4.0096,-4.0096,-4.0096,-4.0096,-4.0096,-4.0096,-4.0096,-4.0096,-4.0096,-4.0096,-4.0096,-4.0096,-4.0096,-4.0096,-4.0096,-4.0096,-4.0096,-4.0096,-4.0096,-4.0096,-4.0096,-4.0096,-3.9622,-3.8836,-3.8514,-3.7872,-3.7165,-3.7684,-3.7669,-3.7418]},{"header":{"parameterUnit":"m.s-1","parameterCategory":1,"la1":30.6,"la2":28.766,"lo1":-90.7593,"lo2":-88.6598,"dy":0.0162,"dx":0.0183,"nx":116,"ny":114,"refTime":"2023-07-03T06:00:00:Z","depth":0,"parameterNumber":3,"parameterNumberName":"V-component_of_WINDS"},"data":[0.0,0.0,0.0,0.0,0.0,0.0,0.0,0.0,0.0,0.0,0.0,0.0,0.0,0.0,0.0,0.0,0.0,0.0,0.0,0.0,0.0,0.0,0.0,0.0,0.0,0.0,0.0,0.0,0.0,0.0,0.0,0.0,0.0,0.0,0.0,0.0,0.0,0.0,0.0,0.0,0.0,0.0,0.0,0.0,0.0,0.0,0.0,0.0,0.0,0.0,0.0,0.0,0.0,0.0,0.0,0.0,0.0,0.0,0.0,0.0,0.0,0.0,0.0,0.0,0.0,0.0,0.0,0.0,0.0,0.0,0.0,0.0,0.0,0.0,0.0,0.0,0.0,0.0,0.0,0.0,0.0,0.0,0.0,0.0,0.0,0.0,0.0,0.0,0.0,0.0,0.0,0.0,0.0,0.0,0.0,0.0,0.0,0.0,0.0,0.0,0.0,0.0,0.0,0.0,0.0,0.0,0.0,0.0,0.0,0.0,0.0,0.0,0.0,0.0,0.0,0.0,0.0,0.0,0.0,0.0,0.0,0.0,0.0,0.0,0.0,0.0,0.0,0.0,0.0,0.0,0.0,0.0,0.0,0.0,0.0,0.0,0.0,0.0,0.0,0.0,0.0,0.0,0.0,0.0,0.0,0.0,0.0,0.0,0.0,0.0,0.0,0.0,0.0,0.0,0.0,0.0,0.0,0.0,0.0,0.0,0.0,0.0,0.0,0.0,0.0,0.0,0.0,0.0,0.0,0.0,0.0,0.0,0.0,0.0,0.0,0.0,0.0,0.0,0.0,0.0,0.0,0.0,0.0,0.0,0.0,0.0,0.0,0.0,0.0,0.0,0.0,0.0,0.0,0.0,0.0,0.0,0.0,0.0,0.0,0.0,0.0,0.0,0.0,0.0,0.0,0.0,0.0,0.0,0.0,0.0,0.0,0.0,0.0,0.0,0.0,0.0,0.0,0.0,0.0,0.0,0.0,0.0,0.0,0.0,0.0,0.0,0.0,0.0,0.0,0.0,0.0,0.0,0.0,0.0,0.0,0.0,0.0,0.0,0.0,0.0,0.0,0.0,0.0,0.0,0.0,0.0,0.0,0.0,0.0,0.0,0.0,0.0,0.0,0.0,0.0,0.0,0.0,0.0,0.0,0.0,0.0,0.0,0.0,0.0,0.0,0.0,0.0,0.0,0.0,0.0,0.0,0.0,0.0,0.0,0.0,0.0,0.0,0.0,0.0,0.0,0.0,0.0,0.0,0.0,0.0,0.0,0.0,0.0,0.0,0.0,0.0,0.0,0.0,0.0,0.0,0.0,0.0,0.0,0.0,0.0,0.0,0.0,0.0,0.0,0.0,0.0,0.0,0.0,0.0,0.0,0.0,0.0,0.0,0.0,0.0,0.0,0.0,0.0,0.0,0.0,0.0,0.0,0.0,0.0,0.0,0.0,0.0,0.0,0.0,0.0,0.0,0.0,0.0,0.0,0.0,0.0,0.0,0.0,0.0,0.0,0.0,0.0,0.0,0.0,0.0,0.0,0.0,0.0,0.0,0.0,0.0,0.0,0.0,0.0,0.0,0.0,0.0,0.0,0.0,0.0,0.0,0.0,0.0,0.0,0.0,0.0,0.0,0.0,0.0,0.0,0.0,0.0,0.0,0.0,0.0,0.0,0.0,0.0,0.0,0.0,0.0,0.0,0.0,0.0,0.0,0.0,0.0,0.0,0.0,0.0,0.0,0.0,0.0,0.0,0.0,0.0,0.0,0.0,0.0,0.0,0.0,0.0,0.0,0.0,0.0,0.0,0.0,0.0,0.0,0.0,0.0,0.0,0.0,0.0,0.0,0.0,0.0,0.0,0.0,0.0,0.0,0.0,0.0,0.0,0.0,0.0,0.0,0.0,0.0,0.0,0.0,0.0,0.0,0.0,0.0,0.0,0.0,0.0,0.0,0.0,0.0,0.0,0.0,0.0,0.0,0.0,0.0,0.0,0.0,0.0,0.0,0.0,0.0,0.0,0.0,0.0,0.0,0.0,0.0,0.0,0.0,0.0,0.0,0.0,0.0,0.0,0.0,0.0,0.0,0.0,0.0,0.0,0.0,0.0,0.0,0.0,0.0,0.0,0.0,0.0,0.0,0.0,0.0,0.0,0.0,0.0,0.0,0.0,0.0,0.0,0.0,0.0,0.0,0.0,0.0,0.0,0.0,0.0,0.0,0.0,0.0,0.0,0.0,0.0,0.0,0.0,0.0,0.0,0.0,0.0,0.0,0.0,0.0,0.0,0.0,0.0,0.0,0.0,0.0,0.0,0.0,0.0,0.0,0.0,0.0,0.0,0.0,0.0,0.0,0.0,0.0,0.0,0.0,0.0,0.0,0.0,0.0,0.0,0.0,0.0,0.0,0.0,0.0,0.0,0.0,0.0,0.0,0.0,0.0,0.0,0.0,0.0,0.0,0.0,0.0,0.0,0.0,0.0,0.0,0.0,0.0,0.0,0.0,0.0,0.0,0.0,0.0,0.0,0.0,0.0,0.0,0.0,0.0,0.0,0.0,0.0,0.0,0.0,0.0,0.0,0.0,0.0,0.0,0.0,0.0,0.0,0.0,0.0,0.0,0.0,0.0,0.0,0.0,0.0,0.0,0.0,0.0,0.0,0.0,0.0,0.0,0.0,0.0,0.0,0.0,0.0,0.0,0.0,0.0,0.0,0.0,0.0,0.0,0.0,0.0,0.0,0.0,0.0,0.0,0.0,0.0,0.0,0.0,0.0,0.0,0.0,0.0,0.0,0.0,0.0,0.0,0.0,0.0,0.0,0.0,0.0,0.0,0.0,0.0,0.0,0.0,0.0,0.0,0.0,0.0,0.0,0.0,0.0,0.0,0.0,0.0,0.0,0.0,0.0,0.0,0.0,0.0,0.0,0.0,0.0,0.0,0.0,0.0,0.0,0.0,0.0,0.0,0.0,0.0,0.0,0.0,0.0,0.0,0.0,0.0,0.0,0.0,0.0,0.0,0.0,0.0,0.0,0.0,0.0,0.0,0.0,0.0,0.0,0.0,0.0,0.0,0.0,0.0,0.0,0.0,0.0,0.0,0.0,0.0,0.0,0.0,0.0,0.0,0.0,0.0,0.0,0.0,0.0,0.0,0.0,0.0,0.0,0.0,0.0,0.0,0.0,0.0,0.0,0.0,0.0,0.0,0.0,0.0,0.0,0.0,0.0,0.0,0.0,0.0,0.0,0.0,0.0,0.0,0.0,0.0,0.0,0.0,0.0,0.0,0.0,0.0,0.0,0.0,0.0,0.0,0.0,0.0,0.0,0.0,0.0,0.0,0.0,0.0,0.0,0.0,0.0,0.0,0.0,0.0,0.0,0.0,0.0,0.0,0.0,0.0,0.0,0.0,0.0,0.0,0.0,0.0,0.0,0.0,0.0,0.0,0.0,0.0,0.0,0.0,0.0,0.0,0.0,0.0,0.0,0.0,0.0,0.0,0.0,0.0,0.0,0.0,0.0,0.0,0.0,0.0,0.0,0.0,0.0,0.0,0.0,0.0,0.0,0.0,0.0,0.0,0.0,0.0,0.0,0.0,0.0,0.0,0.0,0.0,0.0,0.0,0.0,0.0,0.0,0.0,0.0,0.0,0.0,0.0,0.0,0.0,0.0,0.0,0.0,0.0,0.0,0.0,0.0,0.0,0.0,0.0,0.0,0.0,0.0,0.0,0.0,0.0,0.0,0.0,0.0,0.0,0.0,0.0,0.0,0.0,0.0,0.0,0.0,0.0,0.0,0.0,0.0,0.0,0.0,0.0,0.0,0.0,0.0,0.0,0.0,0.0,0.0,0.0,0.0,0.0,0.0,0.0,0.0,0.0,0.0,0.0,0.0,0.0,0.0,0.0,0.0,0.0,0.0,0.0,0.0,0.0,0.0,0.0,0.0,0.0,0.0,0.0,0.0,0.0,0.0,0.0,0.0,0.0,0.0,0.0,0.0,0.0,0.0,0.0,0.0,0.0,0.0,0.0,0.0,0.0,0.0,0.0,0.0,0.0,0.0,0.0,0.0,0.0,0.0,0.0,0.0,0.0,0.0,0.0,0.0,0.0,0.0,0.0,0.0,0.0,0.0,0.0,0.0,0.0,0.0,0.0,0.0,0.0,0.0,0.0,0.0,0.0,0.0,0.0,0.0,0.0,0.0,0.0,0.0,0.0,0.0,0.0,0.0,0.0,0.0,0.0,0.0,0.0,0.0,0.0,0.0,0.0,0.0,0.0,0.0,0.0,0.0,0.0,0.0,0.0,0.0,0.0,0.0,0.0,0.0,0.0,0.0,0.0,0.0,0.0,0.0,0.0,0.0,0.0,0.0,0.0,0.0,0.0,0.0,0.0,0.0,0.0,0.0,0.0,0.0,0.0,0.0,0.0,0.0,0.0,0.0,0.0,0.0,0.0,0.0,0.0,0.0,0.0,0.0,0.0,0.0,0.0,0.0,0.0,0.0,0.0,0.0,0.0,0.0,0.0,0.0,0.0,0.0,0.0,0.0,0.0,0.0,0.0,0.0,0.0,0.0,0.0,0.0,0.0,0.0,0.0,0.0,0.0,0.0,0.0,0.0,0.0,0.0,0.0,0.0,0.0,0.0,0.0,0.0,0.0,0.0,0.0,0.0,0.0,0.0,0.0,0.0,0.0,0.0,0.0,0.0,0.0,0.0,0.0,0.0,0.0,0.0,0.0,0.0,0.0,0.0,0.0,0.0,0.0,0.0,0.0,0.0,0.0,0.0,0.0,0.0,0.0,0.0,0.0,0.0,0.0,0.0,0.0,0.0,0.0,0.0,0.0,0.0,0.0,0.0,0.0,0.0,0.0,0.0,0.0,0.0,0.0,0.0,0.0,0.0,0.0,0.0,0.0,0.0,0.0,0.0,0.0,0.0,0.0,0.0,0.0,0.0,0.0,0.0,0.0,0.0,0.0,0.0,0.0,0.0,0.0,0.0,0.0,0.0,0.0,0.0,0.0,0.0,0.0,0.0,0.0,0.0,0.0,0.0,0.0,0.0,0.0,0.0,0.0,0.0,0.0,0.0,0.0,0.0,0.0,0.0,0.0,0.0,0.0,0.0,0.0,0.0,0.0,0.0,0.0,0.0,0.0,0.0,0.0,0.0,0.0,0.0,0.0,0.0,0.0,0.0,0.0,0.0,0.0,0.0,0.0,0.0,0.0,0.0,0.0,0.0,0.0,0.0,0.0,0.0,0.0,0.0,0.0,0.0,0.0,0.0,0.0,0.0,0.0,0.0,0.0,0.0,0.0,0.0,0.0,0.0,0.0,0.0,0.0,0.0,0.0,0.0,0.0,0.0,0.0,0.0,0.0,0.0,0.0,0.0,0.0,0.0,0.0,0.0,0.0,0.0,0.0,0.0,0.0,0.0,0.0,0.0,0.0,0.0,0.0,0.0,0.0,0.0,0.0,0.0,0.0,0.0,0.0,0.0,0.0,0.0,0.0,0.0,0.0,0.0,0.0,0.0,0.0,0.0,0.0,0.0,0.0,0.0,0.0,0.0,0.0,0.0,0.0,0.0,0.0,0.0,0.0,0.0,0.0,0.0,0.0,0.0,0.0,0.0,0.0,0.0,0.0,0.0,0.0,0.0,0.0,0.0,0.0,0.0,0.0,0.0,0.0,0.0,0.0,0.0,0.0,0.0,0.0,0.0,0.0,0.0,0.0,0.0,0.0,0.0,0.0,0.0,0.0,0.0,0.0,0.0,0.0,0.0,0.0,0.0,0.0,0.0,0.0,0.0,0.0,0.0,0.0,0.0,0.0,0.0,0.0,0.0,0.0,0.0,0.0,0.0,0.0,0.0,0.0,0.0,0.0,0.0,0.0,0.0,0.0,0.0,0.0,0.0,0.0,0.0,0.0,0.0,0.0,0.0,0.0,0.0,0.0,0.0,0.0,0.0,0.0,0.0,0.0,0.0,0.0,0.0,0.0,0.0,0.0,0.0,0.0,0.0,0.0,0.0,0.0,0.0,0.0,0.0,0.0,0.0,0.0,0.0,0.0,0.0,0.0,0.0,0.0,0.0,0.0,0.0,0.0,0.0,0.0,0.0,0.0,0.0,-1.9584,0.0,0.0,0.0,0.0,0.0,0.0,0.0,0.0,0.0,0.0,0.0,0.0,0.0,0.0,0.0,0.0,0.0,0.0,0.0,0.0,0.0,0.0,0.0,0.0,0.0,0.0,0.0,0.0,0.0,0.0,0.0,0.0,0.0,0.0,0.0,0.0,0.0,0.0,0.0,-0.9057,-0.9379,-0.9519,-0.9713,-0.9217,-0.8136,0.0,0.0,0.0,0.0,0.0,0.0,0.0,0.0,0.0,0.0,0.0,0.0,0.0,0.0,0.0,0.0,0.0,0.0,0.0,0.0,0.0,0.0,0.0,0.0,0.0,0.0,0.0,0.0,0.0,0.0,0.0,0.0,0.0,0.0,0.0,0.0,0.0,0.0,0.0,0.0,0.0,0.0,0.0,0.0,0.0,0.0,0.0,0.0,0.0,0.0,0.0,0.0,0.0,0.0,0.0,0.0,0.0,0.0,0.0,0.0,0.0,0.0,0.0,0.0,0.0,0.0,0.0,0.0,0.0,0.0,0.0,-2.1353,0.0,0.0,0.0,0.0,0.0,0.0,0.0,0.0,0.0,0.0,0.0,0.0,0.0,0.0,0.0,0.0,0.0,0.0,0.0,0.0,0.0,0.0,0.0,0.0,-0.9005,-0.8815,-0.8807,-0.8803,0.0,0.0,0.0,0.0,0.0,0.0,0.0,-0.9127,-0.932,-0.9563,-0.9886,-1.087,-1.2464,-1.2734,-1.1756,-0.969,-0.9058,0.0,0.0,0.0,0.0,0.0,0.0,0.0,0.0,0.0,0.0,0.0,0.0,0.0,0.0,0.0,0.0,0.0,0.0,0.0,0.0,0.0,0.0,0.0,0.0,0.0,0.0,0.0,0.0,0.0,0.0,0.0,0.0,0.0,0.0,0.0,0.0,0.0,0.0,0.0,0.0,0.0,0.0,0.0,0.0,0.0,0.0,0.0,0.0,0.0,0.0,0.0,0.0,0.0,0.0,0.0,0.0,0.0,0.0,0.0,0.0,0.0,0.0,0.0,0.0,0.0,-3.174,-3.1856,-3.1613,-3.0947,-2.8632,-2.6367,-2.4259,0.0,0.0,0.0,0.0,0.0,0.0,0.0,0.0,0.0,0.0,0.0,0.0,0.0,0.0,0.0,0.0,0.0,0.0,0.0,0.0,0.0,0.0,-1.0269,-1.0166,-0.9291,-0.9223,-0.9278,0.0,0.0,0.0,0.0,0.0,0.0,-1.0108,-1.0839,-1.1016,-1.0601,-1.2218,-1.3904,-1.5494,-1.5221,-1.5047,-1.4916,-1.3015,-1.2373,-1.2676,0.0,0.0,0.0,0.0,0.0,0.0,0.0,0.0,0.0,0.0,0.0,0.0,0.0,0.0,0.0,0.0,0.0,0.0,0.0,0.0,0.0,0.0,0.0,0.0,0.0,0.0,0.0,0.0,0.0,0.0,0.0,0.0,0.0,0.0,0.0,0.0,0.0,0.0,0.0,0.0,0.0,-1.535,-1.5585,0.0,0.0,0.0,0.0,0.0,0.0,0.0,0.0,0.0,0.0,0.0,0.0,0.0,0.0,-3.2528,-3.4416,-3.5913,-3.7054,-3.8886,-3.9496,-3.905,-3.9616,-3.9526,-3.882,-3.7165,0.0,-2.882,-2.6431,0.0,0.0,0.0,0.0,0.0,0.0,0.0,0.0,0.0,0.0,0.0,0.0,0.0,0.0,0.0,0.0,0.0,0.0,0.0,0.0,0.0,-1.181,-1.2108,-1.0705,-1.294,-1.3351,-1.0841,-1.1947,0.0,0.0,0.0,-1.082,-1.0645,-1.1261,-1.2079,-1.3055,-1.4851,-1.6473,-1.7884,-1.7934,-1.819,-1.8545,-1.7344,-1.5586,-1.3489,-1.2925,0.0,0.0,0.0,0.0,0.0,0.0,0.0,0.0,0.0,0.0,0.0,0.0,0.0,0.0,0.0,0.0,0.0,0.0,0.0,0.0,0.0,0.0,0.0,0.0,0.0,0.0,0.0,0.0,0.0,0.0,0.0,0.0,0.0,0.0,0.0,0.0,0.0,0.0,0.0,-1.5339,-1.7497,-1.7522,-1.8625,-1.9112,0.0,0.0,0.0,0.0,0.0,0.0,0.0,0.0,0.0,-3.1563,-3.272,-3.4815,-3.802,-3.9253,-4.0494,-4.1728,-4.2611,-4.3075,-4.315,-4.3449,-4.3225,-4.2512,-4.1463,-3.9261,-3.6011,-3.1801,-2.9493,-2.8323,0.0,0.0,0.0,0.0,0.0,0.0,0.0,0.0,0.0,0.0,0.0,0.0,0.0,0.0,0.0,0.0,0.0,0.0,-1.2154,-1.4033,-1.4885,-1.3781,-1.655,-1.6675,-1.2781,-1.3695,0.0,0.0,-1.0684,-1.0908,-1.0908,-1.2005,-1.3673,-1.5948,-1.7593,-1.8965,-2.0127,-2.0654,-2.1084,-2.1417,-2.1055,-1.8859,-1.5362,-1.4827,-1.3981,-1.2958,0.0,0.0,0.0,0.0,0.0,0.0,0.0,0.0,0.0,0.0,0.0,0.0,0.0,0.0,0.0,0.0,0.0,0.0,0.0,0.0,0.0,0.0,0.0,0.0,0.0,0.0,0.0,0.0,0.0,0.0,0.0,0.0,0.0,0.0,0.0,0.0,0.0,-1.6717,-1.9562,-1.931,-2.0962,-2.1903,0.0,0.0,0.0,0.0,0.0,0.0,-2.9748,-3.0813,-3.3304,-3.7638,-3.8473,-4.0217,-4.312,-4.3668,-4.4377,-4.5319,-4.5155,-4.5334,-4.5798,-4.5798,-4.5454,-4.4796,-4.4261,-4.3344,-4.1735,-3.6457,-3.3457,-3.1941,-2.9561,-2.7992,0.0,-2.673,-2.6852,-2.7324,0.0,0.0,0.0,0.0,0.0,0.0,0.0,0.0,0.0,0.0,0.0,-1.4719,-1.5289,-1.727,-1.8804,-1.9327,-1.8663,-1.7299,-1.5161,-1.3238,-1.1606,-1.0342,-1.0684,-1.0908,-1.0908,-1.374,-1.6487,-1.9065,-2.0384,-2.1453,-2.2373,-2.3203,-2.3603,-2.3633,-2.3603,-2.2363,-2.009,-1.8076,-1.7181,-1.6873,-1.4116,0.0,0.0,0.0,0.0,0.0,0.0,0.0,0.0,0.0,0.0,0.0,0.0,0.0,0.0,0.0,0.0,0.0,0.0,0.0,0.0,0.0,0.0,0.0,0.0,0.0,0.0,0.0,0.0,0.0,0.0,0.0,0.0,0.0,0.0,0.0,0.0,0.0,0.0,-1.9909,-2.4893,0.0,0.0,0.0,0.0,-2.787,-2.9026,-3.1646,-3.6272,-3.6878,-3.9042,-4.3368,-4.4401,-4.5873,-4.7923,-4.7982,-4.8027,-4.8072,-4.7459,-4.7174,-4.7204,-4.7204,-4.6845,-4.6175,-4.6145,-4.5367,-4.3808,-3.9098,-3.6817,-3.5842,-3.2029,-3.122,-3.2005,-3.0852,-3.1545,-3.317,0.0,0.0,0.0,0.0,0.0,0.0,0.0,0.0,0.0,-1.2223,-1.3889,-1.5378,-1.6044,-1.9034,-2.0931,-2.0796,-2.2462,-2.1982,-1.8331,-1.684,-1.4987,-1.2478,-1.1708,-1.2463,-1.4826,-1.6543,-1.8783,-2.1623,-2.191,-2.2637,-2.375,-2.4053,-2.4199,-2.4199,-2.4199,-2.376,-2.29,-2.0771,-1.9062,-1.7642,-1.6059,-1.483,0.0,0.0,0.0,0.0,0.0,0.0,0.0,0.0,0.0,0.0,0.0,0.0,0.0,0.0,0.0,0.0,0.0,0.0,0.0,0.0,0.0,0.0,0.0,0.0,0.0,0.0,0.0,0.0,0.0,0.0,0.0,0.0,0.0,0.0,0.0,0.0,0.0,-2.4563,-2.7826,0.0,0.0,-2.8348,-2.9612,-3.2035,-3.3858,-3.7017,-4.1834,-4.2516,-4.4191,-4.7259,-4.7298,-4.7758,-4.8955,-4.8072,-4.7863,-4.8282,-4.7623,-4.7309,-4.7309,-4.7309,-4.695,-4.6264,-4.5858,-4.514,-4.4122,-4.1624,-4.0254,-3.9439,-3.7168,-3.6563,-3.6832,-3.5963,-3.6089,-3.6686,0.0,0.0,0.0,0.0,0.0,0.0,0.0,0.0,-1.2345,-1.2762,-1.4836,-1.6815,-1.8193,-2.1529,-2.3693,-2.3829,-2.5287,-2.4386,-2.0064,-1.8243,-1.5914,-1.2762,-1.3006,-1.4889,-1.847,-1.9501,-2.1231,-2.3745,-2.335,-2.374,-2.4816,-2.4816,-2.4941,-2.5078,-2.4932,-2.4775,-2.4541,-2.3125,-2.1289,-1.9228,-1.8178,-1.7031,-1.5683,0.0,0.0,0.0,0.0,0.0,0.0,0.0,0.0,0.0,0.0,0.0,0.0,0.0,0.0,0.0,0.0,0.0,0.0,0.0,0.0,0.0,0.0,0.0,0.0,0.0,0.0,0.0,0.0,0.0,0.0,0.0,0.0,0.0,0.0,0.0,-2.6681,-2.8521,-3.1335,-3.2893,-3.2286,-3.2792,-3.4075,-3.6319,-3.8538,-4.1414,-4.5114,-4.6031,-4.7323,-4.9225,-4.888,-4.894,-4.9583,-4.8297,-4.7863,-4.8282,-4.7623,-4.7309,-4.7309,-4.7309,-4.707,-4.6636,-4.6172,-4.5469,-4.4571,-4.3743,-4.2836,-4.1908,-4.0591,-4.0083,-3.9993,-3.932,-3.9065,-3.9035,0.0,0.0,0.0,0.0,0.0,0.0,0.0,-1.1924,-1.2609,-1.3844,-1.6346,-1.9104,-2.1915,-2.4793,-2.7178,-2.875,-2.6892,-2.4023,-2.034,-1.7037,-1.4005,-1.1201,-1.4588,-1.8108,-2.1476,-2.2512,-2.3856,-2.5529,-2.4825,-2.4912,-2.5732,-2.5732,-2.6006,-2.6387,-2.5918,-2.5537,-2.5174,-2.5174,-2.3971,-2.1904,-2.0557,-1.9238,-1.79,0.0,0.0,0.0,0.0,0.0,0.0,0.0,0.0,0.0,0.0,0.0,0.0,0.0,0.0,0.0,0.0,0.0,0.0,0.0,0.0,0.0,0.0,0.0,0.0,0.0,0.0,0.0,0.0,0.0,0.0,0.0,0.0,0.0,-2.25,-2.6872,-3.0369,-3.1512,-3.5491,-3.75,-3.5859,-3.8216,-4.0122,-4.0896,-4.2938,-4.4754,-4.6114,-4.7299,-4.8319,-4.9153,-4.9208,-4.9493,-5.0121,-4.891,-4.8252,-4.8252,-4.7608,-4.7309,-4.7309,-4.7279,-4.7279,-4.7309,-4.7264,-4.6501,-4.5289,-4.5274,-4.4496,-4.317,-4.1938,-4.1482,-4.1369,-4.0711,-4.0442,-4.0337,0.0,0.0,0.0,0.0,0.0,0.0,0.0,-1.1486,-1.2295,-1.3801,-1.6662,-1.9668,-2.2556,-2.5363,-2.7557,-2.8787,-2.6892,-2.4661,-2.2387,-1.8465,-1.5835,-1.4993,-1.7938,-2.1296,-2.4964,-2.5339,-2.6393,-2.8155,-2.7175,-2.6701,-2.667,-2.667,-2.6728,-2.6836,-2.6719,-2.6592,-2.6484,-2.6484,-2.5967,-2.498,-2.3047,-2.1349,-1.9774,0.0,0.0,0.0,0.0,0.0,0.0,0.0,0.0,0.0,0.0,0.0,0.0,0.0,0.0,0.0,0.0,0.0,0.0,0.0,0.0,0.0,0.0,0.0,0.0,0.0,0.0,0.0,0.0,0.0,0.0,0.0,0.0,-2.714,-2.828,-3.1286,-3.4374,-3.7086,-3.9546,-4.088,-4.0388,-4.1756,-4.3178,-4.4427,-4.5416,-4.6396,-4.7367,-4.735,-4.7694,-4.8436,-4.7651,-4.7711,-4.882,-4.7997,-4.7578,-4.7578,-4.7399,-4.7309,-4.7294,-4.6815,-4.686,-4.7249,-4.6277,-4.5633,-4.5259,-4.4781,-4.4092,-4.326,-4.2886,-4.2791,-4.2716,-4.2073,-4.1557,-4.101,0.0,0.0,0.0,0.0,0.0,0.0,0.0,-1.1193,-1.2186,-1.388,-1.6833,-1.9895,-2.2794,-2.5174,-2.6929,-2.7821,-2.5636,-2.3218,-2.0901,-1.7936,-1.6872,-1.8248,-2.1398,-2.4401,-2.7052,-2.7978,-2.8614,-2.8957,-2.8432,-2.7764,-2.7021,-2.7207,-2.7383,-2.7549,-2.7363,-2.7285,-2.7285,-2.7285,-2.7041,-2.6562,-2.5527,-2.3896,-2.2051,-2.084,-1.9805,-1.8926,-1.8379,-1.8379,-1.8383,-1.6982,0.0,0.0,0.0,0.0,0.0,0.0,0.0,0.0,0.0,0.0,0.0,0.0,0.0,0.0,0.0,0.0,0.0,0.0,0.0,0.0,0.0,0.0,0.0,0.0,-2.9024,-3.2525,-3.4826,-3.6093,-3.7952,-4.1053,-4.2472,-4.3099,-4.2873,-4.3853,-4.4548,-4.4694,-4.5408,-4.5822,-4.5846,-4.61,-4.6305,-4.6526,-4.6453,-4.6768,-4.7508,-4.739,-4.7309,-4.7309,-4.7309,-4.7309,-4.7294,-4.692,-4.68,0.0,-4.6067,-4.5409,-4.4855,-4.4466,-4.3888,0.0,0.0,0.0,0.0,0.0,-4.2156,-4.1737,0.0,0.0,0.0,0.0,0.0,0.0,0.0,-1.1027,-1.2237,-1.3977,-1.6825,-1.9776,-2.2613,-2.4368,-2.5573,-2.6248,-2.3678,-2.0782,-1.7855,-1.6894,-1.7932,-2.1316,-2.4808,-2.7323,-2.8649,-3.0452,-3.0592,-2.8913,-2.9181,-2.8569,-2.7168,-2.7559,-2.7959,-2.835,-2.7969,-2.7885,-2.7933,-2.7933,-2.7656,-2.7324,-2.7617,-2.6494,-2.4473,-2.2969,-2.206,-2.1405,-2.0283,-1.9648,-1.9231,-1.8652,0.0,0.0,0.0,0.0,0.0,0.0,0.0,0.0,0.0,0.0,0.0,0.0,0.0,0.0,0.0,0.0,0.0,0.0,0.0,0.0,0.0,0.0,0.0,0.0,-3.3525,-3.7263,-4.0949,-4.0676,-4.0965,-4.3413,-4.4192,-4.433,-4.3853,-4.4756,-4.4769,-4.3275,-4.4066,-4.4166,-4.3124,0.0,0.0,0.0,0.0,-4.6246,-4.6385,-4.7008,-4.7309,-4.7309,-4.7309,-4.7309,-4.7309,-4.7234,-4.692,-4.6384,-4.6309,-4.5562,-4.4421,-4.4421,-4.3947,-4.329,-4.329,-4.329,-4.323,-4.2686,-4.2515,0.0,0.0,0.0,0.0,0.0,0.0,0.0,0.0,-1.1027,-1.2237,-1.3977,-1.6516,-1.9089,-2.1556,-2.2857,-2.3998,-2.5046,-2.2171,-1.9846,-1.8784,-1.9768,-2.189,-2.5248,-2.7351,-2.9588,-3.2064,-3.2516,-3.2133,-3.0935,-3.098,-2.9982,-2.8047,-2.8135,-2.8398,-2.8789,-2.8711,-2.8867,-2.9254,-2.9254,-2.915,-2.9023,-2.8418,-2.7305,-2.5977,-2.5644,-2.4805,-2.3769,-2.3516,-2.3594,-2.3555,-2.1738,-2.1543,-2.1613,-1.8867,-1.6668,0.0,0.0,0.0,0.0,0.0,0.0,0.0,0.0,0.0,0.0,0.0,0.0,0.0,0.0,0.0,0.0,0.0,0.0,0.0,-3.3327,-3.6661,-3.9772,-4.2308,-4.2472,-4.2534,-4.3074,-4.3627,-4.3915,-4.3815,-4.4405,-4.4656,-4.433,-4.4505,-4.433,-4.3677,-4.348,0.0,-4.4098,-4.4493,-4.5217,-4.6246,-4.6963,-4.7309,-4.7309,0.0,0.0,-4.7294,-4.6756,-4.6741,-4.7085,-4.6503,-4.5858,-4.511,-4.511,-4.4407,-4.329,-4.329,-4.329,-4.329,-4.3155,-4.315,-4.297,0.0,0.0,0.0,0.0,0.0,0.0,0.0,-1.0841,-1.16,-1.2568,-1.4661,-1.6633,-1.8179,-1.9279,-2.0101,-2.0643,-1.8946,-1.8289,-1.9321,-2.1256,-2.394,-2.7544,-2.9541,-3.1223,-3.2616,-3.3079,-3.2484,-3.0767,-3.086,-2.992,-2.7988,-2.8408,-2.8721,-2.8926,-2.915,-2.9365,-2.9626,-2.9626,-2.9626,-2.9567,-2.8867,-2.8223,-2.7559,-2.6709,-2.5977,-2.5342,-2.4902,-2.4883,-2.4891,-2.334,-2.3125,-2.3144,-2.1191,-1.9385,-1.7607,0.0,0.0,0.0,0.0,0.0,0.0,0.0,0.0,0.0,0.0,0.0,0.0,0.0,0.0,-2.7221,0.0,0.0,-3.4625,-3.6847,-3.9295,-4.137,-4.2464,-4.2627,-4.2873,-4.3702,-4.3802,-4.3802,-4.3802,-4.4053,-4.4104,-4.3815,-4.3802,-4.3677,-4.3401,-4.261,-4.2334,-4.2714,-4.2873,-4.3269,-4.3898,-4.5516,-4.6344,-4.6358,-4.7019,-4.7309,-4.7294,-4.6965,-4.6815,-4.68,-4.6429,-4.5753,-4.4781,-4.4451,-4.3888,-4.329,-4.329,-4.329,-4.329,-4.329,-4.329,-4.32,0.0,0.0,0.0,0.0,0.0,0.0,0.0,0.0,-1.1005,-1.1284,-1.2947,-1.4339,-1.4949,-1.5888,-1.6362,-1.5994,-1.6291,-1.7516,-1.9829,-2.2394,-2.5506,-2.9214,-3.0954,-3.2003,-3.2283,-3.2751,-3.2034,-3.0072,-3.0304,-2.9556,-2.793,-2.8691,-2.9092,-2.918,-2.9531,-2.9746,-2.9824,-2.9824,-2.9824,-2.9785,-2.9346,-2.9121,-2.8867,-2.7256,-2.6533,-2.6289,-2.5488,-2.492,-2.4441,-2.4033,-2.3691,-2.334,-2.29,-2.1807,-2.0244,-1.791,-1.7746,0.0,0.0,0.0,0.0,0.0,0.0,0.0,0.0,0.0,-2.6009,-2.7189,-2.9719,-3.2152,-3.3558,-3.5855,-3.8103,-3.9885,-4.1345,-4.2175,-4.2062,-4.1961,-4.2371,-4.3815,-4.3601,-4.3363,-4.3476,-4.3476,-4.33,-4.2848,-4.2924,-4.2924,-4.2879,-4.1982,-4.1492,-4.1492,-4.175,-4.1884,-4.1884,-4.4071,-4.5301,-4.5576,-4.6506,-4.7062,-4.7309,-4.7309,-4.701,-4.6516,-4.6339,-4.5633,-4.4451,-4.3753,-4.3409,-4.329,-4.329,-4.329,-4.329,-4.329,-4.329,-4.3275,0.0,0.0,0.0,0.0,0.0,0.0,0.0,0.0,0.0,-1.1647,-1.3104,-1.4146,-1.4293,-1.5214,-1.5237,-1.3799,-1.6787,-1.9286,-2.0608,-2.4089,-2.7621,-3.0972,-3.0773,-3.1236,-3.2587,-3.1711,-3.0893,-3.0292,-3.0706,-3.0181,-2.8789,-2.9268,-2.9697,-3.0059,-3.0107,-3.0351,-3.0742,-3.0742,-3.0742,-3.0703,-3.0234,-2.9834,-2.9355,-2.808,-2.7051,-2.6328,-2.584,-2.4189,-2.2461,-2.3867,-2.335,-2.2275,-2.332,-2.25,-2.0839,-1.9424,-1.8893,-1.8318,-1.6415,-1.7158,-1.8842,-2.0254,-2.1655,-2.4234,0.0,0.0,-3.2294,-3.58,-3.7614,-3.8793,-3.9459,-4.0639,-4.1647,-4.1898,-4.2087,-4.2037,-4.1505,-4.1015,-4.0953,-4.1576,-4.1601,-4.1806,-4.2351,-4.2389,-4.2363,-4.2301,-4.2753,-4.276,-4.2326,-4.2187,-4.2125,-4.2125,-4.2722,-4.3032,-4.3032,-4.3931,-4.4976,-4.6131,-4.5768,-4.6211,-4.7309,-4.7309,-4.7264,-4.716,-4.6576,-4.5888,-4.514,-4.4466,-4.3828,-4.329,-4.329,-4.329,-4.329,-4.329,-4.329,-4.32,0.0,0.0,0.0,0.0,0.0,0.0,0.0,0.0,0.0,0.0,-1.1323,-1.1899,-1.193,-1.2512,-1.2652,-1.202,-1.5197,-1.8267,-2.0645,-2.4059,-2.7582,-3.1235,-3.0979,-3.1208,-3.2225,-3.1421,-3.0579,-2.9816,-3.0095,-2.9754,-2.8935,-2.9609,-3.0029,-3.0205,-3.0478,-3.0713,-3.0889,-3.0889,-3.0889,-3.085,-3.0381,-2.9795,-2.9053,-2.7773,-2.6279,-2.4756,-2.3828,-2.2803,0.0,-2.1816,-2.167,-2.1689,-2.2725,-2.2062,-2.0635,-1.9281,-1.9588,-2.0705,-2.2222,-2.2394,0.0,0.0,-2.7704,-2.9569,-3.4003,-3.5818,-3.7111,-3.9069,-4.0601,-4.158,-4.1492,-4.2108,-4.269,0.0,-4.2095,-4.1605,-4.1326,-4.0312,-3.9521,-3.9408,-3.9396,-3.9998,-4.153,-4.1681,-4.1681,-4.1681,-4.2183,-4.2451,-4.2213,-4.2213,-4.2213,-4.2213,-4.2131,-4.1925,-4.1644,-4.2682,-4.3309,-4.354,-4.4054,-4.4978,-4.6211,-4.6211,-4.6594,-4.7264,-4.6606,-4.6115,-4.5813,-4.4751,-4.4152,-4.3828,-4.3439,-4.329,-4.329,-4.329,-4.329,-4.3245,0.0,0.0,0.0,0.0,0.0,0.0,0.0,0.0,0.0,0.0,-1.0192,-1.0555,-1.0693,-1.084,-1.0949,-1.1006,-1.3724,-1.6699,-1.9681,-2.2811,-2.6191,-2.9871,-2.9843,-3.0067,-3.087,-3.0234,-2.9641,-2.9178,-2.9466,-2.9414,-2.9121,-2.998,-3.0391,-3.04,-3.0742,-3.0889,-3.0889,-3.0889,-3.082,-3.0664,-3.0205,-2.9443,-2.8418,-2.7012,-2.5137,-2.3125,-2.208,-2.1164,-2.0346,-1.949,-1.942,-1.9819,-2.0828,-2.0594,-1.9883,-1.9172,-2.0194,-2.2262,-2.5493,0.0,0.0,-3.0633,-3.2717,-3.4462,-3.6973,-3.9007,-4.0563,-4.1279,-4.2133,-4.2728,-4.2476,-4.264,-4.2698,-4.2547,-4.1982,-4.1467,-4.11,-3.9948,-3.8831,-3.809,-3.7877,-3.8417,-4.0036,-4.0614,-4.0899,-4.105,-4.1618,-4.1932,-4.1932,-4.1932,-4.2049,-4.22,-4.1618,-4.11,-4.0752,-4.1466,-4.186,-4.1842,-4.2625,-4.3834,-4.5403,-4.5779,-4.6447,-4.7279,-4.68,-4.6381,-4.5963,-4.499,-4.4377,-4.4003,-4.3484,-4.329,-4.329,-4.329,-4.329,-4.329,0.0,0.0,0.0,0.0,0.0,0.0,0.0,0.0,0.0,0.0,0.0,0.0,0.0,-1.1305,-1.0998,-1.1,-1.2984,-1.5188,-1.7461,-2.0308,-2.3317,-2.6524,-2.6521,-2.7038,-2.8277,-2.7502,-2.7513,-2.8325,-2.9196,-2.956,-2.9626,-3.0459,-3.0869,-3.0869,-3.0889,-3.0889,-3.0889,-3.0889,-3.0635,-3.0185,-2.9756,-2.8883,-2.7571,-2.583,-2.3844,-2.1885,-2.1416,-1.936,-1.7012,-1.7372,-1.6717,-1.6004,-1.7265,-1.7936,-1.8486,-1.963,-2.0782,-2.2059,-2.3654,-2.6013,-2.8674,-3.1486,-3.5027,-3.8278,-3.9998,-4.1266,-4.2439,-4.3476,-4.2886,-4.2389,-4.2848,-4.2577,-4.2007,-4.148,-4.1806,-4.181,-4.0689,-4.0036,-3.9258,-3.814,-3.7538,-3.7236,0.0,-3.8781,-3.9961,-4.0501,-4.1,-4.1313,-4.1313,-4.1313,-4.1605,-4.2187,-4.1618,-4.1275,-4.1263,-4.0789,-4.1195,-4.2385,-4.1868,-4.2978,-4.5448,-4.6682,-4.7251,-4.7309,-4.7279,-4.6531,-4.5319,-4.5289,-4.4511,-4.3319,-4.3305,-4.329,-4.329,-4.329,-4.329,-4.329,0.0,0.0,0.0,0.0,0.0,0.0,0.0,0.0,0.0,0.0,0.0,0.0,0.0,0.0,0.0,0.0,-1.2169,-1.3994,-1.5843,-1.8669,-2.1394,-2.3933,-2.4872,-2.566,-2.6438,-2.658,-2.6738,-2.7031,-2.7891,-2.8364,-2.8374,-2.8896,-2.916,-2.918,-2.9463,-2.958,-2.958,-2.958,-2.9658,-2.9697,-2.8701,-2.7767,-2.6613,-2.472,-2.2622,-2.0535,0.0,-1.7366,-1.6415,-1.5602,-1.5514,-1.5847,-1.6505,-1.645,-1.6618,-1.914,-2.1289,-2.3682,-2.7368,-3.0131,-3.2704,-3.5843,-3.8165,-4.0199,-4.2233,-4.2698,-4.2698,-4.2766,-4.0953,-3.9233,-3.8743,-3.814,-3.7952,-3.8492,-3.9672,-4.0513,-4.0513,-4.0036,-3.9007,-3.7161,-3.7086,0.0,0.0,0.0,0.0,-3.9358,-4.0275,-4.0899,-4.1263,-4.2032,-4.2346,-4.2213,-4.2333,-4.1894,-4.0802,-4.0912,-4.0887,-4.0645,-4.1261,-4.2509,-4.4163,-4.5448,-4.6491,-4.7279,-4.6845,-4.6396,-4.5903,-4.5005,-4.4392,-4.3902,-4.3469,-4.329,-4.329,-4.329,-4.329,-4.329,0.0,0.0,0.0,0.0,0.0,0.0,0.0,0.0,0.0,0.0,0.0,0.0,0.0,0.0,0.0,0.0,0.0,-1.2721,-1.4198,-1.6107,-1.8109,-2.0225,-2.15,-2.2455,-2.3103,-2.3759,-2.4072,-2.4072,-2.5458,-2.6026,-2.585,-2.6894,-2.7461,-2.7627,-2.79,-2.8096,-2.8242,-2.8242,-2.7871,-2.7187,-2.6399,-2.5261,-2.3819,-2.2195,-2.059,0.0,-1.6732,-1.5906,-1.5593,-1.4124,-1.4172,-1.4937,-1.5425,-1.604,-1.7073,-1.9706,-2.2268,-2.5306,-3.0161,-3.2955,-3.5328,-3.8868,-4.0438,-4.1467,-4.2886,-4.2785,-4.2007,-4.0717,-3.8329,-3.6144,-3.4871,-3.3822,-3.3753,-3.5705,-3.691,-3.8165,-3.971,-3.9446,-3.8567,-3.7149,-3.7098,-3.691,0.0,0.0,0.0,-3.8831,-3.971,-4.0551,-4.125,-4.2007,-4.2409,-4.2502,-4.2652,-4.2082,-4.0827,-4.0912,-4.0786,-4.0415,-4.1219,-4.2509,-4.421,-4.5024,-4.6107,-4.7279,-4.686,-4.6396,-4.5888,-4.502,-4.4392,-4.3888,-4.3454,-4.329,-4.329,-4.329,-4.329,-4.329,0.0,0.0,0.0,0.0,0.0,0.0,0.0,0.0,0.0,0.0,0.0,0.0,0.0,0.0,0.0,0.0,0.0,0.0,-1.2519,-1.2751,-1.3721,-1.5636,-1.6717,-1.7666,-1.8451,-1.9346,-1.9805,-1.9816,-2.1924,-2.2734,-2.2393,-2.4397,-2.5625,-2.6025,-2.6025,-2.625,-2.6621,-2.6592,-2.5176,-2.2934,-2.296,-2.156,-1.9486,-1.8667,-1.7894,-1.7036,-1.5693,-1.5002,-1.4558,-1.3006,-1.292,-1.3588,-1.4283,-1.6763,-1.9747,-2.1454,-2.3896,-2.7055,-3.1989,-3.46,-3.6762,-4.0448,-4.1819,-4.2238,-4.2213,-4.1593,-4.026,-3.7575,-3.5152,-3.3018,0.0,0.0,-2.9917,-3.3206,-3.3922,-3.5215,-3.8492,-3.8479,-3.8115,0.0,0.0,0.0,0.0,0.0,0.0,-3.8844,0.0,-4.0212,-4.1225,-4.1338,-4.1894,-4.2898,-4.2514,-4.1907,-4.125,-4.0752,-4.0785,-4.1505,-4.1505,-4.2786,-4.5207,-4.5207,-4.5928,-4.7207,-4.7133,-4.6429,-4.5289,-4.5229,-4.4466,-4.329,-4.329,-4.329,-4.329,-4.329,-4.329,-4.329,0.0,0.0,0.0,0.0,0.0,0.0,0.0,0.0,0.0,0.0,0.0,0.0,0.0,0.0,0.0,0.0,0.0,0.0,-1.0884,-1.1839,-1.261,-1.3118,-1.4908,-1.6162,-1.6741,-1.7578,-1.834,-1.8929,-1.9485,-1.9902,-2.0127,-2.0674,-2.0996,-2.1103,-2.1103,-2.1162,-2.124,-2.0869,-2.076,-2.0715,-1.9763,-1.9232,-1.8913,-1.8,-1.7058,-1.614,-1.5266,-1.4832,-1.4547,-1.3895,-1.5129,-1.696,-1.7163,-1.9466,-2.258,-2.5028,-2.8334,-3.1989,-3.573,-3.8868,-4.1317,-4.2308,-4.266,-4.2715,-4.2301,-3.9862,-3.7086,-3.514,-3.1336,-2.8008,0.0,0.0,0.0,-3.1047,-3.4211,0.0,-3.9747,-3.9973,0.0,-3.8743,0.0,-3.8115,-3.7262,-3.7989,0.0,0.0,-3.976,-4.0614,-4.125,-4.212,-4.2509,-4.2426,-4.2678,-4.2108,-4.0739,-4.0174,-3.9978,-4.0173,-4.0173,-4.1032,-4.2544,-4.2544,-4.3787,-4.5825,-4.4851,-4.4742,-4.5214,-4.4242,-4.3604,-4.329,-4.329,-4.329,-4.329,-4.329,-4.329,-4.329,0.0,0.0,0.0,0.0,0.0,0.0,0.0,0.0,0.0,0.0,0.0,0.0,0.0,0.0,0.0,0.0,0.0,0.0,0.0,-1.0967,-1.1377,-1.1377,-1.2695,-1.3555,-1.3799,-1.4668,-1.5254,-1.5527,-1.6484,-1.6973,-1.7041,-1.7812,-1.8164,-1.8174,-1.8369,-1.834,-1.8164,-1.8105,-1.7691,0.0,0.0,-1.6252,-1.6051,-1.5726,-1.5537,-1.537,-1.4771,-1.5109,-1.591,-1.6478,0.0,-1.9467,-2.0522,-2.2798,-2.5833,-2.9457,0.0,-3.4989,-3.8793,-4.1191,-4.2791,-4.3212,-4.2798,-4.1794,-4.0063,-3.7235,-3.4016,-3.0608,-2.7105,0.0,-2.3514,0.0,0.0,0.0,0.0,0.0,-3.8605,-3.9258,-3.9371,0.0,-3.9233,0.0,-3.868,-3.8994,-3.9333,0.0,-4.0162,-4.0752,-4.125,-4.2158,-4.264,-4.2577,-4.2811,-4.2308,-4.089,-4.0086,-3.9981,-4.0554,-3.9981,-4.0642,-4.2412,-4.2412,-4.3504,-4.5391,0.0,-4.4925,-4.5214,-4.4182,-4.3559,-4.329,-4.329,-4.329,-4.329,-4.329,-4.329,-4.329,0.0,0.0,0.0,0.0,0.0,0.0,0.0,0.0,0.0,0.0,0.0,0.0,0.0,0.0,0.0,0.0,0.0,0.0,0.0,0.0,-1.0303,-1.0303,-1.0625,-1.0879,-1.0996,-1.1726,-1.2012,-1.176,-1.3639,-1.4336,-1.3977,-1.5488,-1.6161,-1.6122,-1.6465,-1.6367,-1.5956,-1.6309,-1.5194,-1.3199,-1.361,-1.3255,-1.2548,0.0,-1.3836,-1.4544,-1.42,-1.5408,-1.75,-1.924,-2.0512,-2.1811,-2.42,-2.6528,-2.9307,-3.3839,-3.5608,-3.695,-4.1194,-4.2426,-4.2728,-4.3489,-4.2446,-4.0337,-3.6923,-3.4192,-3.0834,-2.5661,0.0,-2.1744,-2.1343,-2.1443,-2.3238,-2.8198,0.0,-3.239,-3.6885,-3.7864,-3.8542,-3.9672,-3.9798,-3.9986,-4.0463,-4.0149,-4.0111,-4.0588,-4.0689,-4.0915,-4.1263,-4.1932,-4.2502,-4.2848,-4.2798,-4.2271,-4.1188,-4.0212,-4.0275,-4.1319,-4.0224,-4.0844,-4.2978,-4.317,-4.3929,-4.5178,0.0,0.0,-4.5244,-4.4586,-4.3888,-4.329,-4.329,-4.329,-4.329,-4.329,-4.329,-4.329,0.0,0.0,0.0,0.0,0.0,0.0,0.0,0.0,0.0,0.0,0.0,0.0,0.0,0.0,0.0,0.0,0.0,0.0,0.0,0.0,0.0,-1.0303,-1.0371,-1.0743,-1.1447,-1.1623,-1.2015,-1.267,-1.3052,-1.3199,-1.3105,-1.3408,-1.3359,-1.2973,-1.2729,-1.2347,-1.1904,-1.1631,-1.1494,-1.1437,-1.1517,-1.172,-1.2046,-1.2946,0.0,0.0,-1.3618,-1.4929,-1.6592,-1.8346,-2.1634,-2.5438,-2.8026,-3.0456,-3.2887,-3.5774,-3.777,-3.9534,-4.2133,-4.3501,-4.4028,-4.33,-4.1882,-3.9672,-3.5868,-3.1524,0.0,0.0,-2.1365,-1.9672,-2.0037,-2.123,-2.3803,-2.8825,-3.0934,-3.3646,-3.8567,-3.8944,-3.9132,0.0,-4.0375,-4.0413,0.0,0.0,0.0,0.0,0.0,0.0,-4.13,-4.2296,-4.2728,-4.2363,-4.1856,-4.1317,-4.0664,-4.0011,-3.9788,-4.0032,-3.9788,-3.9929,-4.0415,-4.1455,-4.2593,-4.384,0.0,0.0,-4.5244,-4.4586,-4.3888,-4.329,-4.329,-4.329,-4.329,-4.329,-4.329,-4.329,0.0,0.0,0.0,0.0,0.0,0.0,0.0,0.0,0.0,0.0,-1.044,-1.0303,0.0,0.0,0.0,0.0,0.0,0.0,0.0,0.0,0.0,0.0,0.0,0.0,0.0,-1.167,0.0,0.0,0.0,0.0,0.0,0.0,0.0,0.0,-1.2246,-1.177,-1.0908,-1.0958,-1.0845,-1.063,-1.063,-1.1094,-1.1851,0.0,0.0,0.0,0.0,-1.47,-1.6534,-1.7962,-2.1005,-2.4897,-2.8929,-3.1599,-3.3819,-3.6692,-3.8734,-4.0413,-4.1756,-4.2924,-4.3639,-4.3112,-4.1078,-3.804,-3.3596,0.0,0.0,0.0,-1.902,-1.7955,-1.8819,-2.0338,0.0,-2.6578,-2.8574,-3.1386,-3.6408,-3.6885,0.0,-4.0212,-4.0513,-4.0739,0.0,0.0,0.0,0.0,0.0,0.0,0.0,-4.2271,-4.2489,-4.2213,-4.1342,-4.0736,-4.0513,-3.9973,-3.9697,-3.9697,-3.9697,-3.9697,-3.9788,-4.169,-4.293,-4.3557,0.0,0.0,0.0,-4.4945,-4.4242,-4.3319,-4.3663,-4.3604,-4.329,-4.329,-4.329,-4.329,0.0,0.0,0.0,0.0,0.0,0.0,0.0,-1.0303,-1.04,-1.0732,-1.0508,-1.0303,-1.0303,-1.0303,0.0,0.0,0.0,0.0,0.0,0.0,0.0,0.0,0.0,0.0,0.0,0.0,0.0,0.0,0.0,0.0,0.0,0.0,0.0,0.0,0.0,0.0,0.0,-1.134,-1.1056,0.0,0.0,0.0,0.0,0.0,0.0,0.0,0.0,-1.4481,-1.6303,-1.7324,-1.9416,-2.2421,-2.7142,-3.0341,-3.2951,-3.6037,-3.8304,-4.0049,-4.1204,-4.2145,-4.2828,-4.266,-4.0036,-3.6182,-3.121,-2.6979,0.0,-1.8869,-1.7124,-1.6701,-1.7978,-1.9196,-2.1018,0.0,-2.5837,-2.8499,-3.3483,-3.4555,-3.6207,0.0,-4.0475,0.0,0.0,0.0,0.0,0.0,0.0,0.0,0.0,-4.2213,-4.2099,-4.1861,-4.0965,-4.0463,-4.0337,-3.991,-3.9697,-3.9697,-3.9697,-3.9839,-4.0173,-4.2461,-4.3646,-4.3994,0.0,0.0,0.0,-4.5349,-4.4601,-4.3544,-4.3958,-4.3738,-4.329,-4.329,-4.329,-4.329,0.0,0.0,0.0,0.0,0.0,0.0,0.0,-1.0303,-1.0312,-1.0352,-1.0322,-1.0303,-1.0303,-1.0303,0.0,0.0,0.0,0.0,0.0,0.0,0.0,0.0,0.0,0.0,0.0,0.0,0.0,0.0,0.0,0.0,0.0,0.0,0.0,0.0,0.0,0.0,0.0,0.0,0.0,0.0,0.0,0.0,0.0,0.0,0.0,0.0,0.0,0.0,-1.5134,-1.5728,0.0,-1.8885,-2.1524,-2.5683,-3.0107,-3.276,0.0,0.0,-4.1295,-4.22,-4.2162,-4.1618,-3.8555,-3.443,-2.9465,0.0,-2.0966,-1.8077,-1.6559,-1.6271,-1.7903,-1.7915,-1.9108,-2.3376,-2.4619,-2.6744,-3.1738,-3.4141,-3.631,-3.8743,0.0,0.0,0.0,0.0,0.0,0.0,0.0,0.0,0.0,-4.2213,-4.1747,-4.0701,-4.0563,-4.0275,-3.9772,-3.9722,-3.9697,-3.9697,-3.9697,-4.0313,-4.1455,-4.2882,-4.4116,-4.5298,0.0,0.0,0.0,-4.5559,-4.487,-4.4167,-4.3589,-4.3349,-4.329,-4.329,-4.329,-4.329,0.0,0.0,0.0,0.0,0.0,0.0,0.0,-1.0303,-1.0391,-1.0625,-1.0439,-1.04,-1.0625,-1.0459,-1.0303,0.0,0.0,0.0,0.0,0.0,0.0,0.0,0.0,0.0,0.0,0.0,0.0,0.0,0.0,0.0,0.0,0.0,0.0,0.0,0.0,0.0,0.0,0.0,0.0,0.0,0.0,0.0,0.0,0.0,0.0,0.0,0.0,0.0,0.0,0.0,0.0,0.0,-1.6445,-1.9286,0.0,0.0,-3.1804,-3.514,-3.7149,-3.9634,-4.1379,-4.0162,-3.7437,-3.3615,-2.8323,0.0,-2.0614,-1.7501,-1.6233,-1.6007,-1.6999,-1.73,-1.8202,-2.0614,-2.1164,-2.3158,-2.8499,-3.0018,-3.2503,-3.7726,0.0,0.0,0.0,0.0,0.0,0.0,0.0,0.0,0.0,0.0,-4.1467,-4.0974,-4.0375,-3.9923,-3.9697,-3.9697,-3.9697,-3.9697,-3.9697,-3.9981,-4.0554,-4.2544,-4.3787,0.0,0.0,0.0,0.0,-4.6022,-4.5274,-4.4287,-4.4032,-4.3888,-4.3828,-4.3439,-4.3798,-4.4407,0.0,0.0,0.0,0.0,0.0,0.0,-1.0303,-1.0303,-1.041,-1.0684,-1.0488,-1.042,-1.0693,-1.0479,-1.0303,-1.0303,0.0,0.0,0.0,0.0,0.0,0.0,0.0,0.0,0.0,0.0,-1.1389,-1.1389,0.0,0.0,0.0,0.0,0.0,0.0,0.0,0.0,0.0,0.0,0.0,0.0,0.0,0.0,0.0,0.0,0.0,0.0,0.0,0.0,0.0,0.0,0.0,-1.4249,-1.3453,-1.482,-1.7727,-2.2786,-2.7429,-3.1286,-3.3219,-3.6383,-3.8944,-3.8103,-3.5429,-3.1738,0.0,0.0,-1.971,-1.6861,-1.5969,-1.5856,-1.64,-1.6861,-1.7488,-1.8581,-1.902,-2.0916,-2.5649,-2.7155,-2.9767,0.0,0.0,0.0,0.0,0.0,0.0,0.0,0.0,0.0,0.0,0.0,-4.0962,-4.0852,-4.0099,-3.9697,-3.9697,-3.9697,-3.9697,-3.9697,-3.9697,-3.989,-4.0313,-4.2119,-4.3122,0.0,0.0,0.0,0.0,-4.6226,-4.5726,-4.4885,-4.4691,-4.4481,-4.4257,-4.3753,-4.4092,-4.4586,0.0,0.0,0.0,0.0,0.0,0.0,0.0,-1.0303,-1.0303,-1.0312,-1.0303,-1.0303,-1.0312,-1.0303,-1.0303,-1.0303,0.0,0.0,0.0,0.0,0.0,0.0,0.0,0.0,0.0,0.0,-1.0918,-1.0918,-1.1775,-1.2203,0.0,0.0,0.0,0.0,0.0,0.0,0.0,0.0,0.0,0.0,0.0,0.0,0.0,0.0,0.0,0.0,0.0,0.0,0.0,0.0,0.0,0.0,0.0,-1.3223,-1.4012,-1.7942,-2.2192,-2.6515,-3.0382,-3.2667,-3.4236,-3.5257,-3.221,-2.8085,0.0,0.0,-1.7752,-1.6057,-1.5693,-1.5856,-1.64,-1.65,-1.6876,-1.8028,-1.9108,-2.0778,-2.3627,-2.6841,0.0,0.0,0.0,0.0,0.0,0.0,0.0,0.0,0.0,0.0,0.0,0.0,-4.0275,-3.9722,-3.9697,-3.9697,-3.9697,-3.9697,-3.9697,-3.9697,-3.9697,-4.0364,-4.1604,-4.1604,0.0,0.0,0.0,0.0,0.0,-4.6031,-4.6264,-4.619,-4.5544,-4.4885,-4.4317,-4.4302,-4.3898,-4.3319,0.0,0.0,0.0,0.0,0.0,0.0,0.0,-1.0303,-1.0303,-1.0303,-1.0303,-1.0303,-1.0303,-1.0303,-1.0303,-1.0303,0.0,0.0,0.0,0.0,0.0,0.0,0.0,0.0,0.0,0.0,-1.0908,-1.0908,-1.1775,-1.2203,-1.2213,-1.2676,-1.2905,0.0,0.0,0.0,0.0,0.0,0.0,0.0,0.0,0.0,0.0,0.0,0.0,0.0,0.0,0.0,0.0,0.0,0.0,0.0,0.0,0.0,0.0,-1.4663,-1.8168,-2.2146,-2.4544,-2.6954,-2.8762,-2.831,-2.6543,-2.4073,-2.0803,0.0,-1.6685,-1.5412,-1.5148,-1.5437,-1.6325,-1.65,-1.6989,-1.8494,-1.902,-2.0349,0.0,0.0,0.0,0.0,0.0,0.0,0.0,0.0,0.0,0.0,0.0,0.0,0.0,0.0,0.0,-4.0249,-3.9885,-3.9697,-3.9697,-3.9697,-3.9697,-3.9697,-3.9697,-3.9929,-4.0313,0.0,0.0,0.0,0.0,0.0,0.0,-4.6031,-4.6279,-4.6217,-4.5065,-4.4766,-4.487,-4.3932,-4.4077,-4.4541,0.0,0.0,0.0,0.0,0.0,0.0,0.0,-1.0303,-1.0303,-1.0303,-1.0303,-1.0303,-1.0303,-1.0303,-1.0303,-1.0303,0.0,0.0,0.0,0.0,0.0,0.0,0.0,0.0,-1.0303,-1.0557,-1.0752,-1.0908,-1.1621,-1.2038,-1.2213,-1.2676,-1.3017,-1.3228,-1.3043,0.0,0.0,0.0,0.0,0.0,0.0,0.0,-1.3892,0.0,0.0,0.0,0.0,0.0,0.0,0.0,0.0,0.0,0.0,0.0,0.0,0.0,-1.5159,-1.7804,-2.0137,-2.2485,-2.4249,-2.3941,-2.2694,0.0,0.0,-1.6861,-1.5643,-1.479,-1.4909,-1.5412,-1.6082,-1.635,-1.6977,-1.8456,-1.887,0.0,0.0,0.0,0.0,0.0,0.0,0.0,0.0,0.0,0.0,0.0,0.0,0.0,0.0,0.0,0.0,-4.0199,-3.9873,-3.9697,-3.9697,-3.9697,-3.9697,-3.9697,-3.9697,-3.9697,-3.9749,0.0,0.0,0.0,0.0,0.0,0.0,-4.6341,-4.6546,-4.6204,-4.5394,-4.5005,-4.4825,-4.4003,-4.4062,-4.4436,0.0,0.0,0.0,0.0,0.0,0.0,0.0,0.0,0.0,0.0,-1.0303,-1.0303,-1.0303,-1.0303,-1.0303,0.0,0.0,0.0,0.0,0.0,0.0,0.0,0.0,0.0,-1.0303,-1.0371,-1.0577,-1.097,-1.1535,-1.198,-1.2283,-1.2825,-1.334,-1.3781,-1.3385,-1.378,-1.4677,-1.4245,-1.3812,-1.3502,-1.4548,-1.4921,0.0,0.0,0.0,0.0,0.0,0.0,0.0,0.0,0.0,0.0,0.0,0.0,0.0,0.0,0.0,0.0,0.0,-1.897,-2.0415,-2.1405,-2.0111,-1.8318,-1.7325,-1.5902,0.0,-1.4186,-1.4909,-1.5668,-1.5731,-1.6208,-1.6951,-1.8179,-1.882,0.0,0.0,0.0,0.0,0.0,0.0,0.0,0.0,0.0,0.0,0.0,0.0,0.0,0.0,0.0,0.0,0.0,-3.9697,-3.9697,-3.9697,-3.9697,-3.9697,-3.9697,-3.9697,-3.9697,-3.9697,0.0,0.0,0.0,0.0,0.0,0.0,-4.6785,-4.695,-4.6339,-4.6249,-4.5484,-4.4377,-4.4272,-4.3813,-4.329,0.0,0.0,0.0,0.0,0.0,0.0,0.0,0.0,0.0,0.0,0.0,-1.0303,-1.0303,-1.0303,0.0,0.0,0.0,0.0,0.0,0.0,0.0,0.0,0.0,0.0,-1.0303,-1.1003,-1.1427,-1.151,-1.3162,-1.3578,-1.2847,-1.4234,-1.4499,-1.3815,-1.4163,-1.4496,-1.4767,-1.4715,-1.4615,-1.4592,-1.5259,-1.5273,0.0,0.0,0.0,0.0,-1.5047,-1.4828,0.0,0.0,0.0,0.0,0.0,0.0,0.0,0.0,-1.3198,-1.3373,-1.4168,0.0,-1.5021,-1.5284,-1.4938,-1.4488,0.0,-1.388,-1.3697,-1.4022,-1.4626,-1.5349,-1.617,-1.6785,-1.7838,-1.9799,0.0,0.0,0.0,0.0,0.0,0.0,0.0,0.0,0.0,0.0,0.0,0.0,0.0,0.0,0.0,0.0,0.0,0.0,-3.9697,-3.9697,-3.9697,-3.9697,-3.9697,-3.9697,-3.9697,-3.9697,0.0,0.0,0.0,0.0,0.0,0.0,0.0,-4.6785,-4.7219,-4.698,-4.5948,-4.5349,-4.4945,-4.3888,-4.3424,-4.329,0.0,0.0,0.0,0.0,0.0,0.0,0.0,0.0,0.0,0.0,0.0,0.0,0.0,0.0,0.0,0.0,0.0,0.0,0.0,0.0,0.0,0.0,0.0,-1.0303,-1.0303,-1.0999,-1.1596,-1.2067,-1.3098,-1.365,-1.38,-1.4424,-1.4687,-1.4664,-1.5265,-1.5413,-1.5215,-1.5246,-1.5123,-1.4947,-1.5467,0.0,0.0,0.0,0.0,0.0,-1.5731,-1.5487,0.0,-1.4651,-1.4462,-1.4324,0.0,0.0,0.0,0.0,-1.304,-1.2902,-1.3135,-1.3403,-1.3609,-1.3609,-1.3609,-1.3672,-1.3923,-1.3579,-1.3366,-1.3972,-1.4525,-1.5148,-1.5982,-1.6823,0.0,0.0,0.0,0.0,0.0,0.0,0.0,0.0,0.0,0.0,0.0,0.0,0.0,0.0,0.0,0.0,0.0,0.0,0.0,0.0,0.0,-3.9697,-3.9697,-3.9697,-3.9697,-3.9697,-3.9697,-3.9559,0.0,0.0,0.0,0.0,0.0,0.0,-4.473,-4.6533,-4.677,-4.5888,-4.5454,-4.493,-4.4302,-4.3559,-4.329,-4.329,0.0,0.0,0.0,0.0,0.0,0.0,0.0,0.0,0.0,0.0,0.0,0.0,0.0,0.0,0.0,0.0,0.0,0.0,0.0,0.0,0.0,0.0,-1.0303,-1.039,-1.0537,-1.0928,-1.1607,-1.2605,-1.2818,-1.3543,-1.4709,-1.4552,-1.4925,-1.5764,-1.6259,-1.6258,-1.5819,-1.5819,-1.5563,-1.5185,-1.563,0.0,0.0,0.0,0.0,0.0,0.0,0.0,0.0,-1.5085,-1.4896,-1.4695,-1.3566,0.0,0.0,0.0,0.0,0.0,-1.319,-1.384,-1.4299,-1.4141,-1.4166,-1.4337,-1.4802,-1.4149,-1.3634,-1.4223,-1.4777,-1.5361,-1.607,-1.7187,0.0,0.0,0.0,0.0,0.0,0.0,0.0,0.0,0.0,0.0,0.0,0.0,0.0,0.0,0.0,0.0,0.0,0.0,0.0,0.0,0.0,0.0,-3.9433,-3.9609,-3.9697,-3.9697,-3.9609,-3.932,-3.8881,0.0,0.0,0.0,0.0,0.0,-4.3791,-4.6073,-4.5992,-4.4511,-4.4975,-4.4466,-4.3424,-4.3334,-4.329,-4.329,0.0,0.0,0.0,0.0,0.0,0.0,0.0,0.0,0.0,0.0,0.0,0.0,0.0,0.0,0.0,0.0,0.0,0.0,0.0,0.0,0.0,-1.0303,-1.0303,-1.0724,-1.1637,-1.1667,-1.213,-1.3075,-1.4955,-1.5457,-1.4743,-1.6633,-1.7117,-1.638,-1.6457,-1.645,-1.6375,-1.6375,-1.6325,-1.6249,-1.6337,0.0,0.0,0.0,0.0,0.0,0.0,0.0,0.0,-1.5085,-1.4896,-1.4695,-1.3566,0.0,0.0,0.0,0.0,0.0,-1.379,-1.4683,-1.5236,-1.4343,-1.4437,-1.4802,-1.4871,-1.4758,-1.4796,-1.5349,-1.5881,-1.6701,-1.8218,-1.9798,-2.1443,0.0,0.0,0.0,0.0,0.0,0.0,0.0,0.0,0.0,0.0,0.0,0.0,0.0,0.0,0.0,0.0,0.0,0.0,0.0,0.0,0.0,0.0,-3.922,-3.9697,-3.9685,-3.922,-3.9007,-3.8906,-3.8454,0.0,0.0,0.0,0.0,-4.3719,-4.5023,-4.5424,-4.5095,-4.4646,-4.4347,-4.4092,-4.3499,-4.329,-4.329,0.0,0.0,0.0,0.0,0.0,0.0,0.0,0.0,0.0,0.0,0.0,0.0,0.0,0.0,0.0,0.0,0.0,0.0,0.0,0.0,-1.0303,-1.0303,-1.0303,-1.0794,-1.1821,-1.1983,-1.2753,-1.4169,-1.5002,-1.5511,-1.569,-1.6769,-1.6989,-1.65,-1.65,-1.65,-1.65,-1.65,-1.65,-1.65,0.0,0.0,0.0,0.0,0.0,0.0,0.0,0.0,0.0,0.0,-1.5336,-1.5148,-1.4042,0.0,0.0,0.0,0.0,0.0,-1.3858,-1.4462,-1.4997,-1.5721,-1.6065,-1.6166,-1.5831,-1.553,-1.5467,-1.6019,-1.6325,-1.7089,0.0,0.0,0.0,0.0,0.0,0.0,0.0,0.0,0.0,0.0,0.0,0.0,0.0,0.0,0.0,0.0,0.0,0.0,0.0,0.0,0.0,0.0,0.0,0.0,0.0,-3.8517,-3.8944,-3.9245,-3.9045,-3.8705,-3.8391,-3.8128,-3.8367,0.0,0.0,-4.1992,-4.2665,-4.4546,-4.487,-4.4242,-4.4287,-4.4092,-4.3708,-4.3409,-4.329,-4.329,0.0,0.0,0.0,0.0,0.0,0.0,0.0,0.0,0.0,0.0,0.0,0.0,0.0,0.0,0.0,0.0,0.0,0.0,0.0,0.0,-1.0303,-1.0303,-1.0409,-1.0922,-1.1949,-1.2079,-1.3062,-1.492,-1.4811,-1.5435,-1.6722,-1.6722,-1.6647,-1.65,-1.65,-1.65,-1.65,-1.65,-1.65,-1.65,0.0,0.0,0.0,0.0,0.0,0.0,0.0,0.0,0.0,0.0,0.0,0.0,0.0,0.0,0.0,-1.3509,-1.3132,-1.3023,-1.4022,-1.4462,-1.5041,-1.6619,-1.7209,-1.7461,-1.7639,-1.735,-1.7287,-1.8103,-1.8356,0.0,0.0,0.0,0.0,0.0,0.0,0.0,0.0,0.0,0.0,0.0,0.0,0.0,0.0,0.0,0.0,0.0,0.0,0.0,0.0,0.0,0.0,0.0,0.0,0.0,0.0,-3.7751,-3.8103,-3.8668,-3.8542,-3.8241,-3.7814,-3.7676,-3.7652,-3.7808,-3.9919,-4.1007,-4.1366,-4.3524,-4.3983,-4.3349,-4.3883,-4.3738,-4.329,-4.329,-4.329,-4.329,0.0,0.0,0.0,0.0,0.0,0.0,0.0,0.0,0.0,0.0,0.0,0.0,0.0,0.0,0.0,0.0,0.0,0.0,0.0,0.0,-1.0303,-1.0303,-1.0725,-1.1419,-1.2436,-1.1984,-1.2721,-1.4721,-1.5264,-1.6153,-1.7348,-1.7348,-1.7036,-1.65,-1.65,-1.65,-1.65,-1.65,-1.65,-1.65,-1.65,0.0,0.0,0.0,0.0,0.0,0.0,0.0,0.0,0.0,0.0,0.0,0.0,0.0,-1.3366,-1.3883,-1.4015,-1.4097,-1.4689,-1.5567,-1.6258,-1.5906,-1.6631,-1.8064,-2.0564,-2.1104,-2.1531,-2.3125,-2.3866,-2.4249,0.0,0.0,0.0,0.0,0.0,0.0,0.0,0.0,0.0,0.0,0.0,0.0,0.0,0.0,0.0,0.0,0.0,0.0,0.0,0.0,0.0,0.0,0.0,0.0,0.0,0.0,-3.7525,-3.8065,-3.755,-3.7287,-3.7224,-3.6757,-3.6528,-3.6581,-3.7802,-3.8997,-4.0116,-4.1353,-4.2418,-4.329,-4.3349,-4.3334,-4.329,-4.329,-4.329,-4.329,0.0,0.0,0.0,0.0,0.0,0.0,0.0,0.0,0.0,0.0,0.0,0.0,0.0,0.0,0.0,0.0,0.0,0.0,0.0,-1.0303,-1.0303,-1.0303,-1.0745,-1.1313,-1.1984,-1.2336,-1.327,-1.4814,-1.5391,-1.607,-1.6848,-1.6848,-1.6722,-1.65,-1.65,-1.65,-1.65,-1.65,-1.65,-1.65,-1.65,-1.6287,0.0,0.0,0.0,0.0,0.0,0.0,0.0,0.0,-1.5211,-1.4601,-1.4601,-1.4205,-1.3866,-1.4437,-1.4362,-1.4286,-1.516,-1.6195,-1.7174,-1.7652,-1.8091,-1.8756,-2.0125,-2.1242,-2.2385,-2.3715,-2.4695,-2.5511,0.0,0.0,0.0,0.0,0.0,0.0,0.0,0.0,0.0,0.0,0.0,0.0,0.0,0.0,0.0,0.0,0.0,0.0,0.0,0.0,0.0,0.0,0.0,0.0,0.0,0.0,-3.6772,-3.6985,-3.7123,-3.7186,-3.7161,-3.6656,-3.6803,-3.7507,-3.7893,-3.9214,-4.1,-4.142,-4.229,-4.329,-4.329,-4.329,-4.329,-4.329,-4.329,-4.329,0.0,0.0,0.0,0.0,0.0,0.0,0.0,0.0,0.0,0.0,0.0,0.0,0.0,0.0,0.0,0.0,0.0,0.0,-1.0303,-1.0303,-1.0303,-1.0303,-1.0916,-1.1394,-1.1726,-1.2611,-1.3572,-1.4612,-1.5337,-1.5881,-1.6237,-1.6412,-1.64,-1.6237,-1.6425,-1.65,-1.65,-1.65,-1.65,-1.65,-1.65,-1.6274,0.0,0.0,0.0,0.0,0.0,0.0,0.0,0.0,-1.5085,-1.4676,-1.4853,-1.4651,-1.4425,-1.4783,-1.4639,-1.4513,-1.5248,-1.6245,-1.7338,-1.8255,-1.9133,-2.0099,-2.1355,-2.2259,-2.3414,-2.5423,-2.6553,-2.7256,-2.7494,0.0,0.0,0.0,0.0,0.0,0.0,0.0,0.0,0.0,0.0,0.0,0.0,0.0,0.0,0.0,0.0,0.0,0.0,0.0,0.0,0.0,0.0,0.0,0.0,0.0,-3.6107,-3.6107,-3.6483,-3.6759,-3.691,-3.6581,-3.6849,-3.754,-3.754,-3.868,-4.0504,-4.0504,-4.1378,-4.2805,-4.3155,-4.329,-4.329,-4.329,-4.329,-4.329,0.0,0.0,0.0,0.0,0.0,0.0,0.0,0.0,0.0,0.0,0.0,0.0,0.0,0.0,0.0,0.0,0.0,0.0,-1.0303,-1.0303,-1.0303,-1.0303,-1.1255,-1.1792,-1.1792,-1.272,-1.3453,-1.4006,-1.5142,-1.568,-1.5706,-1.6237,-1.6199,-1.5731,-1.6249,-1.65,-1.65,-1.65,-1.65,-1.65,-1.65,-1.65,-1.65,0.0,0.0,0.0,0.0,0.0,0.0,0.0,-1.4551,-1.4186,-1.4739,-1.4896,-1.4916,-1.4909,-1.4928,-1.4928,-1.4909,-1.5706,-1.6685,-1.7285,-1.9497,-2.2221,-2.4971,-2.4782,-2.5121,-2.8988,-3.0231,-3.0118,-2.8436,0.0,0.0,0.0,0.0,0.0,0.0,0.0,0.0,0.0,0.0,0.0,0.0,0.0,0.0,0.0,0.0,0.0,0.0,0.0,0.0,0.0,0.0,0.0,0.0,0.0,-3.5495,-3.5495,-3.5495,-3.583,-3.6405,-3.6405,-3.6405,-3.6405,-3.6405,-3.707,-3.8107,-3.8107,-3.9508,-4.1726,-4.286,-4.329,-4.329,-4.329,-4.329,-4.329,0.0,0.0,0.0,0.0,0.0,0.0,0.0,0.0,0.0,0.0,0.0,0.0,0.0,0.0,0.0,0.0,0.0,0.0,-1.0303,-1.0303,-1.0303,-1.0303,-1.0905,-1.1412,-1.1792,-1.272,-1.3495,-1.4082,-1.4413,-1.4959,-1.5693,-1.5856,-1.6057,-1.6283,-1.6425,-1.65,-1.65,-1.65,-1.65,-1.65,-1.65,-1.65,-1.645,0.0,0.0,0.0,0.0,0.0,0.0,0.0,0.0,0.0,-1.4846,-1.516,-1.553,-1.5919,-1.6032,-1.612,-1.6543,-1.7714,-1.897,-1.9573,0.0,0.0,-2.5146,-2.5695,-2.6424,-2.8712,-3.0231,-3.0783,-2.9528,0.0,0.0,0.0,0.0,0.0,0.0,0.0,0.0,0.0,0.0,0.0,0.0,0.0,0.0,0.0,0.0,0.0,0.0,0.0,0.0,0.0,0.0,0.0,0.0,0.0,0.0,-3.4919,-3.4919,-3.5454,-3.6405,-3.5968,-3.5994,-3.6405,-3.6405,-3.707,-3.8243,-3.9887,-4.0986,-4.1726,-4.286,-4.329,-4.329,-4.329,-4.329,-4.329,0.0,0.0,0.0,0.0,0.0,0.0,0.0,0.0,0.0,0.0,-1.0303,-1.0303,0.0,0.0,0.0,0.0,0.0,0.0,0.0,-1.0303,-1.0303,-1.0303,-1.0943,-1.1634,-1.2336,-1.2908,-1.3378,-1.374,-1.3972,-1.4538,-1.5399,-1.5593,-1.5869,-1.6195,-1.64,-1.65,-1.65,-1.65,-1.65,-1.65,-1.65,-1.65,-1.6463,0.0,0.0,0.0,0.0,0.0,0.0,0.0,0.0,0.0,-1.5223,-1.558,-1.6045,-1.6158,-1.6183,-1.6271,-1.6622,-1.8078,0.0,-2.0767,-2.2736,-2.4895,-2.654,0.0,0.0,0.0,-3.106,-3.1788,0.0,0.0,0.0,0.0,0.0,0.0,0.0,0.0,0.0,0.0,0.0,0.0,0.0,0.0,0.0,0.0,0.0,0.0,0.0,0.0,0.0,0.0,0.0,0.0,0.0,0.0,0.0,0.0,-3.4399,-3.4851,-3.5692,-3.5366,-3.5403,-3.5705,-3.5705,-3.6095,-3.691,-3.9267,-4.0348,-4.0714,-4.202,-4.2716,-4.291,-4.2656,-4.2551,-4.2551,0.0,0.0,0.0,0.0,0.0,0.0,0.0,0.0,0.0,0.0,-1.0303,-1.0303,0.0,0.0,0.0,0.0,0.0,0.0,0.0,0.0,-1.0303,-1.0303,-1.1255,-1.221,-1.3129,-1.3181,-1.3223,-1.3273,-1.3778,-1.4324,-1.4916,-1.5399,-1.5668,-1.5793,-1.6274,-1.65,-1.65,-1.65,-1.65,-1.65,-1.65,-1.65,-1.65,-1.65,0.0,0.0,0.0,0.0,0.0,0.0,0.0,0.0,-1.5693,-1.607,-1.64,-1.5919,-1.5768,-1.5793,-1.5894,-1.7476,-1.9497,-2.128,-2.4324,0.0,-2.88,-3.0357,-3.1399,-3.1148,0.0,0.0,0.0,0.0,0.0,0.0,0.0,0.0,0.0,0.0,0.0,0.0,0.0,0.0,0.0,0.0,0.0,0.0,0.0,0.0,0.0,0.0,0.0,0.0,0.0,0.0,0.0,0.0,0.0,0.0,0.0,-3.3935,-3.4424,-3.4575,-3.4675,-3.468,-3.468,-3.468,-3.4893,-3.7053,-3.8338,-3.9061,-4.0647,-4.1705,-4.2246,-4.1632,-4.1422,-4.1384,0.0,0.0,0.0,0.0,0.0,0.0,0.0,0.0,0.0,0.0,0.0,0.0,0.0,0.0,0.0,0.0,0.0,0.0,0.0,0.0,-1.0303,-1.0303,-1.1255,-1.2066,-1.2632,-1.3012,-1.3428,-1.3909,-1.3559,-1.391,-1.4896,-1.5009,-1.5517,-1.6325,-1.645,-1.65,-1.65,-1.65,-1.65,-1.65,-1.65,-1.65,-1.65,-1.65,-1.65,0.0,0.0,0.0,0.0,0.0,0.0,0.0,-1.5693,-1.607,-1.6475,-1.635,-1.6333,-1.6513,-1.7426,-1.8631,0.0,-2.2811,-2.6615,-2.9917,-3.0683,-3.1474,-3.1424,-2.9252,0.0,0.0,0.0,0.0,0.0,0.0,0.0,0.0,0.0,0.0,0.0,0.0,0.0,0.0,0.0,0.0,0.0,0.0,0.0,0.0,0.0,0.0,0.0,0.0,0.0,0.0,0.0,0.0,0.0,0.0,-3.1938,-3.1989,-3.2152,-3.347,-3.4311,-3.468,-3.468,-3.468,-3.4803,-3.6262,-3.7418,-3.8436,-3.9679,-4.0748,-4.1617,-4.1467,-4.1422,-4.1497,0.0,0.0,0.0,0.0,0.0,0.0,0.0,0.0,0.0,0.0,0.0,0.0,0.0,0.0,0.0,0.0,0.0,0.0,0.0,0.0,-1.0505,-1.0992,-1.1737,-1.2354,-1.282,-1.336,-1.3778,-1.4103,-1.4042,-1.445,-1.5286,-1.5286,-1.5718,-1.65,-1.65,-1.65,-1.65,-1.65,-1.65,-1.65,-1.65,-1.65,-1.65,-1.65,-1.65,-1.65,-1.65,0.0,0.0,0.0,0.0,0.0,0.0,0.0,-1.645,-1.6187,-1.6287,-1.6688,-1.7576,-1.8982,0.0,-2.4669,0.0,-3.0369,-3.0896,-3.1436,-3.1336,0.0,0.0,0.0,0.0,0.0,0.0,0.0,0.0,0.0,0.0,0.0,0.0,0.0,0.0,0.0,0.0,0.0,0.0,0.0,0.0,0.0,0.0,0.0,0.0,0.0,0.0,0.0,-3.1022,-3.1273,-3.1386,-3.1386,-3.1386,-3.1386,-3.1424,-3.2303,-3.2855,-3.3144,-3.3407,-3.352,-3.362,-3.5044,-3.6142,-3.7014,-3.832,-3.9358,-4.0174,-4.036,-4.0442,-4.0487,0.0,0.0,0.0,0.0,0.0,0.0,0.0,0.0,0.0,0.0,0.0,0.0,0.0,0.0,0.0,0.0,0.0,0.0,0.0,0.0,0.0,-1.1756,-1.2246,-1.272,-1.3181,-1.379,-1.4154,-1.4242,-1.4777,-1.5361,-1.5982,-1.5781,-1.5994,-1.65,-1.65,-1.65,-1.65,-1.65,-1.65,-1.65,-1.65,-1.65,-1.65,-1.65,-1.65,-1.65,-1.65,-1.65,-1.65,-1.65,0.0,0.0,0.0,0.0,-1.64,-1.5969,-1.6095,-1.65,-1.72,-1.9158,-2.1948,-2.6021,-2.826,0.0,-3.0193,-3.0733,-3.0997,0.0,0.0,0.0,0.0,0.0,0.0,0.0,0.0,0.0,0.0,0.0,0.0,0.0,0.0,0.0,0.0,0.0,0.0,0.0,0.0,0.0,0.0,0.0,0.0,0.0,0.0,0.0,-3.047,-3.0896,-3.111,-3.111,-3.111,-3.111,-3.111,-3.111,-3.121,-3.1424,-3.1976,-3.2215,-3.2323,-3.3716,-3.4848,-3.5798,-3.6964,-3.8021,-3.8946,-3.9261,-3.9388,-3.9439,0.0,0.0,0.0,0.0,0.0,0.0,0.0,0.0,0.0,0.0,-1.0303,-1.0303,0.0,0.0,0.0,0.0,0.0,0.0,-1.0303,0.0,0.0,-1.1774,-1.2246,-1.272,-1.3181,-1.379,-1.4343,-1.4783,-1.5336,-1.6153,-1.7159,-1.6145,-1.5994,-1.65,-1.65,-1.65,-1.65,-1.65,-1.65,-1.65,-1.65,-1.65,-1.65,-1.65,-1.65,-1.65,-1.65,-1.65,-1.65,-1.65,-1.65,0.0,0.0,0.0,0.0,-1.64,-1.612,-1.6032,-1.7121,0.0,-2.2698,0.0,-2.7092,-2.8473,0.0,0.0,0.0,0.0,0.0,0.0,0.0,0.0,0.0,0.0,0.0,0.0,0.0,0.0,0.0,0.0,0.0,0.0,0.0,0.0,0.0,0.0,0.0,0.0,0.0,0.0,0.0,0.0,0.0,0.0,-2.9905,-2.9967,-3.0005,-3.0005,-3.0005,-3.0005,-3.0005,-3.0005,-3.052,-3.1424,-3.1976,-3.2215,-3.2215,-3.2445,-3.3942,-3.6068,-3.5817,-3.7209,-3.9348,-3.9382,-3.9388,-3.9463,0.0,0.0,0.0,0.0,0.0,0.0,0.0,0.0,0.0,0.0,0.0,-1.0303,0.0,0.0,0.0,-1.0303,-1.0303,-1.0409,-1.0687,-1.1412,-1.1945,-1.2174,-1.2632,-1.2995,-1.3198,-1.4092,-1.4664,-1.4896,-1.5731,-1.6409,-1.6898,-1.6722,-1.7099,-1.7892,-1.7578,-1.744,-1.7426,-1.6763,-1.65,-1.65,-1.65,-1.65,-1.6463,-1.617,-1.6245,-1.645,-1.617,-1.6237,-1.65,-1.65,-1.65,-1.65,-1.65,0.0,0.0,0.0,-1.6325,-1.6409,-1.7539,-1.9585,-2.1845,0.0,-2.5247,-2.649,-2.7356,0.0,0.0,0.0,0.0,0.0,0.0,0.0,0.0,0.0,0.0,0.0,0.0,0.0,0.0,0.0,0.0,0.0,0.0,0.0,0.0,0.0,0.0,0.0,0.0,-2.9792,-2.9792,-2.9792,-2.9792,0.0,-2.9792,-2.9792,-2.9792,-2.9792,-2.9792,-2.9792,-2.9792,-2.9792,-3.0055,-3.052,-3.1072,-3.1323,-3.1336,-3.1637,-3.2439,-3.358,-3.4245,-3.5571,-3.7279,-3.8177,-3.887,-3.9454,0.0,0.0,0.0,0.0,0.0,0.0,0.0,0.0,0.0,0.0,0.0,0.0,0.0,0.0,0.0,0.0,-1.0409,-1.0687,-1.1169,-1.2029,-1.2508,-1.2508,-1.2943,-1.3198,-1.3198,-1.4312,-1.4896,-1.4896,-1.5969,-1.6575,-1.6748,-1.7325,-1.8103,-1.8983,-1.8455,-1.8041,-1.7727,-1.7014,-1.6638,-1.65,-1.65,-1.65,-1.645,-1.6057,-1.6158,-1.6437,-1.6057,-1.617,-1.65,-1.65,-1.65,-1.65,-1.65,0.0,0.0,0.0,0.0,-1.6713,0.0,0.0,-2.0465,-2.2096,-2.3221,-2.4305,0.0,0.0,0.0,0.0,0.0,0.0,0.0,0.0,0.0,0.0,0.0,0.0,0.0,0.0,0.0,0.0,0.0,0.0,0.0,0.0,0.0,0.0,0.0,0.0,0.0,-2.9365,-2.9365,-2.9365,-2.9365,-2.9428,-2.9566,-2.9716,-2.9792,-2.9792,-2.9792,-2.9792,-2.9792,-2.9792,-2.9792,-2.9829,-3.0382,-3.062,-3.0645,-3.1035,-3.1423,-3.1913,-3.3,-3.437,-3.5947,-3.7148,-3.8362,-3.9388,0.0,0.0,0.0,0.0,0.0,0.0,0.0,0.0,0.0,0.0,0.0,0.0,-1.0303,-1.0303,-1.0303,-1.0303,-1.0706,-1.1188,-1.1719,-1.221,-1.2508,-1.2508,-1.2943,0.0,-1.3198,-1.4312,-1.4896,-1.4896,-1.5969,-1.6798,-1.7373,-1.7903,-1.8468,-1.8983,-1.8455,-1.7601,-1.6613,-1.7137,-1.7024,-1.65,-1.65,-1.65,-1.65,-1.6463,-1.6475,-1.65,-1.6463,-1.6475,-1.65,-1.65,-1.65,-1.65,0.0,0.0,0.0,0.0,0.0,0.0,0.0,-1.7865,0.0,-2.0415,-2.1257,0.0,0.0,0.0,0.0,0.0,0.0,0.0,0.0,0.0,0.0,0.0,0.0,0.0,0.0,0.0,0.0,0.0,0.0,0.0,0.0,0.0,0.0,0.0,0.0,0.0,-2.8197,-2.8197,-2.8197,-2.8197,-2.8197,-2.8448,-2.8938,-2.9515,-2.9792,-2.9792,-2.9792,-2.9792,-2.9792,-2.9792,-2.9792,-2.9829,-3.0382,-3.062,-3.062,-3.0645,-3.156,-3.2895,-3.2445,-3.4197,-3.6944,-3.701,-3.8033,-3.9388,0.0,0.0,0.0,0.0,0.0,0.0,0.0,0.0,0.0,0.0,0.0,0.0,0.0,-1.0303,-1.0303,-1.0303,-1.0725,-1.1226,-1.1756,-1.2228,-1.2632,-1.2943,-1.3112,-1.3198,-1.3198,-1.4312,-1.4896,-1.4896,-1.5969,-1.66,-1.6835,-1.7413,-1.7589,-1.7415,-1.7965,-1.7978,-1.7564,-1.7049,-1.671,-1.65,-1.65,-1.65,-1.645,-1.612,-1.6187,0.0,0.0,0.0,0.0,0.0,0.0,0.0,0.0,0.0,0.0,-1.66,0.0,0.0,0.0,0.0,0.0,-1.8857,-1.9497,-2.0124,0.0,0.0,0.0,0.0,0.0,0.0,0.0,0.0,0.0,0.0,0.0,0.0,0.0,0.0,0.0,0.0,0.0,0.0,0.0,0.0,0.0,0.0,0.0,0.0,-2.8084,-2.8109,-2.8109,-2.8109,-2.8109,-2.8197,-2.8361,-2.895,-2.9239,-2.9239,-2.9616,-2.9792,-2.9792,-2.9792,-2.9792,-2.9804,-2.9993,-3.0093,-3.0093,-3.0093,-3.0416,-3.0944,-3.1098,-3.2659,-3.4851,-3.5194,-3.6772,-3.8751,0.0,0.0,0.0,0.0,0.0,0.0,0.0,0.0,0.0,-1.0303,0.0,0.0,0.0,0.0,-1.0438,-1.0764,-1.1094,-1.156,-1.2228,-1.2561,-1.2873,-1.3181,-1.3198,-1.3303,-1.3509,-1.4419,-1.4984,-1.5173,-1.607,-1.65,-1.65,-1.6911,-1.6886,-1.6525,-1.7277,-1.7639,-1.7578,-1.7049,-1.6697,-1.65,-1.65,-1.65,-1.6525,-1.6735,0.0,0.0,0.0,0.0,0.0,0.0,0.0,0.0,0.0,0.0,0.0,-1.6613,-1.65,-1.65,-1.65,0.0,0.0,0.0,0.0,-1.8606,0.0,0.0,0.0,0.0,0.0,0.0,0.0,0.0,0.0,0.0,0.0,0.0,0.0,0.0,0.0,0.0,0.0,0.0,0.0,0.0,0.0,0.0,0.0,0.0,-2.7256,-2.7444,-2.7557,-2.7557,-2.7733,-2.7821,-2.7821,-2.8373,-2.8612,-2.8624,-2.9227,-2.9503,-2.9503,-2.9704,-2.9792,-2.9792,-2.9792,-2.9792,-2.9792,-2.9792,-2.9792,-2.9829,-3.0193,-3.146,-3.3168,-3.3527,-3.5317,-3.7597,0.0,0.0,0.0,0.0,0.0,0.0,0.0,0.0,-1.0303,-1.0303,0.0,0.0,0.0,0.0,0.0,-1.1708,-1.1819,-1.222,-1.3119,-1.3188,-1.3193,-1.3198,-1.3198,-1.3483,-1.4091,-1.4626,-1.516,-1.5693,-1.6245,-1.65,-1.65,-1.65,-1.65,-1.65,-1.65,-1.65,-1.6538,-1.7112,-1.7036,-1.65,0.0,-1.655,-1.6726,0.0,0.0,0.0,-2.0314,-2.0729,0.0,-2.0767,0.0,0.0,0.0,0.0,-1.6525,-1.65,-1.65,-1.65,0.0,0.0,0.0,0.0,0.0,0.0,0.0,0.0,0.0,0.0,0.0,0.0,0.0,0.0,0.0,0.0,0.0,0.0,0.0,0.0,0.0,0.0,0.0,0.0,0.0,0.0,0.0,0.0,0.0,0.0,-2.5598,-2.6135,-2.6449,-2.6461,-2.6989,-2.7278,-2.7291,-2.7808,-2.8084,-2.8084,-2.8624,-2.8888,-2.8913,-2.9528,-2.9792,-2.9792,-2.9792,-2.9792,-2.9792,-2.9792,-2.9792,-2.9792,-2.9792,-3.0766,-3.2165,-3.2203,-3.3817,-3.5978,0.0,0.0,0.0,0.0,0.0,0.0,-1.0303,-1.0303,-1.0303,0.0,0.0,0.0,-1.0303,-1.0557,-1.0982,-1.1602,-1.2036,-1.2392,-1.2598,-1.303,-1.3258,-1.3193,-1.3198,-1.3483,-1.4091,-1.4626,-1.516,-1.5693,-1.6245,-1.65,-1.65,-1.65,-1.65,-1.65,-1.65,-1.65,-1.65,-1.6685,-1.6638,-1.6563,-1.739,-1.7739,0.0,0.0,0.0,0.0,0.0,-2.1518,-2.192,0.0,-2.1882,-2.0853,0.0,-1.784,-1.7061,-1.6635,-1.65,-1.65,-1.65,0.0,0.0,0.0,0.0,0.0,0.0,0.0,0.0,0.0,0.0,0.0,0.0,0.0,0.0,0.0,0.0,0.0,0.0,0.0,0.0,0.0,0.0,0.0,0.0,0.0,0.0,0.0,0.0,-2.5209,-2.5046,-2.5184,-2.5448,-2.5858,-2.5988,-2.6264,-2.6713,-2.7231,-2.7507,-2.7519,-2.8473,-2.8888,-2.8913,-2.9528,-2.9792,-2.9792,-2.9792,-2.9792,-2.9792,-2.9792,-2.9792,-2.9792,-2.9792,-3.0483,-3.158,-3.2254,-3.3675,-3.5377,0.0,0.0,0.0,0.0,0.0,-1.0303,-1.0303,-1.0303,-1.0303,0.0,0.0,0.0,-1.0811,-1.1056,-1.1386,-1.1848,-1.2202,-1.2592,-1.3046,-1.3388,-1.3693,-1.3899,-1.391,-1.4174,-1.4765,-1.5072,-1.5512,-1.6032,-1.6337,-1.65,-1.65,-1.65,-1.65,-1.65,-1.65,-1.65,-1.65,-1.65,0.0,0.0,-1.7689,0.0,0.0,-1.9999,-2.0501,0.0,0.0,0.0,-2.3371,-2.3697,-2.3446,0.0,0.0,0.0,0.0,0.0,-1.6886,-1.6823,-1.6563,-1.65,-1.65,0.0,0.0,0.0,0.0,-1.7099,0.0,0.0,0.0,0.0,0.0,0.0,0.0,0.0,0.0,0.0,0.0,0.0,0.0,0.0,0.0,0.0,0.0,0.0,0.0,0.0,-2.4399,-2.4788,-2.4788,-2.4788,-2.4926,-2.5259,-2.5485,-2.5649,-2.5774,-2.6587,-2.6851,-2.659,-2.7708,-2.8247,-2.826,-2.8825,-2.9214,-2.9428,-2.9428,-2.9566,-2.9792,-2.9792,-2.9792,-2.9792,-2.9792,-3.0139,-3.0696,-3.123,-3.2264,-3.3491,0.0,0.0,0.0,-1.0303,-1.0342,-1.0371,-1.0371,-1.0371,-1.0391,0.0,-1.0752,-1.1152,-1.1636,-1.1675,-1.187,-1.2335,-1.2433,-1.2882,-1.3825,-1.3947,-1.4237,-1.478,-1.4787,-1.5089,-1.568,-1.5693,-1.5969,-1.65,-1.65,-1.65,-1.65,-1.65,-1.65,-1.65,-1.65,0.0,-1.65,0.0,0.0,-1.8254,-1.7815,-1.8317,0.0,0.0,-2.1669,-2.187,-2.3364,-2.4305,-2.4763,-2.4498,-2.4166,0.0,0.0,0.0,0.0,0.0,-1.7495,-1.7363,-1.6814,-1.6638,-1.6588,0.0,0.0,0.0,-1.5994,-1.6258,0.0,0.0,0.0,0.0,0.0,0.0,0.0,0.0,0.0,0.0,0.0,0.0,0.0,0.0,0.0,0.0,0.0,0.0,0.0,-2.2347,-2.3722,-2.46,-2.46,-2.46,-2.4625,-2.47,-2.5172,-2.5222,-2.4788,-2.585,-2.6135,-2.5611,-2.6741,-2.7281,-2.7341,-2.7858,-2.8373,-2.88,-2.8863,-2.9176,-2.9704,-2.9767,-2.9792,-2.9792,-2.9792,-2.9792,-2.9792,-2.9934,-3.0482,-3.1217,0.0,0.0,-1.0303,-1.0303,-1.0566,-1.0791,-1.0791,-1.0791,-1.0918,-1.1302,-1.1408,-1.1623,-1.2051,-1.2077,-1.2259,-1.273,-1.3224,-1.3417,-1.3225,-1.3651,-1.3994,-1.4169,-1.4177,-1.4639,-1.568,-1.5693,-1.5969,-1.65,-1.65,-1.65,-1.65,-1.65,-1.65,-1.65,-1.65,-1.65,-1.65,0.0,0.0,-1.887,-1.9208,0.0,-2.1142,-2.2318,-2.2782,-2.2832,-2.3158,-2.3923,-2.4511,-2.2696,-2.2375,-2.217,0.0,0.0,0.0,-1.8433,0.0,0.0,0.0,0.0,0.0,0.0,0.0,0.0,-1.7096,-1.7159,0.0,0.0,0.0,0.0,0.0,0.0,0.0,0.0,0.0,0.0,0.0,0.0,0.0,0.0,0.0,0.0,0.0,0.0,0.0,-2.2284,-2.2995,-2.3434,-2.3434,-2.3434,-2.3647,-2.4142,-2.4255,-2.4469,-2.4788,-2.5448,-2.5711,-2.5611,-2.6741,-2.7281,-2.7341,-2.7858,-2.816,-2.8298,-2.87,-2.895,-2.9101,-2.9603,-2.9792,-2.9792,-2.9792,-2.9792,-2.9895,-3.0658,-3.1044,-3.1315,-1.0303,-1.0303,-1.0303,-1.0303,-1.0625,-1.0908,-1.0908,-1.1094,-1.133,-1.1577,-1.178,-1.2061,-1.25,-1.2559,-1.2646,-1.2886,-1.3176,-1.3365,-1.3397,-1.3969,-1.4448,-1.4775,-1.5102,-1.5508,-1.6086,-1.6107,-1.6233,-1.65,-1.65,-1.65,-1.65,-1.65,-1.65,-1.65,-1.65,-1.65,-1.6538,0.0,-1.7904,-1.8836,-1.9232,0.0,-2.1581,-2.238,-2.2694,-2.2697,-2.2776,-2.353,-2.4262,-2.2527,-2.2706,0.0,0.0,-1.9304,-2.0129,0.0,-1.8692,-1.8531,0.0,0.0,0.0,-1.7473,0.0,0.0,0.0,-1.6556,0.0,0.0,0.0,0.0,0.0,0.0,0.0,0.0,0.0,0.0,0.0,0.0,0.0,0.0,0.0,0.0,0.0,0.0,-2.1333,-2.1857,-2.2644,-2.2982,-2.2706,-2.2957,-2.3233,-2.3521,-2.3853,-2.3991,-2.3948,-2.4763,-2.5209,-2.5222,-2.605,-2.659,-2.6914,-2.719,-2.7431,-2.7708,-2.7996,-2.826,-2.8561,-2.9126,-2.9365,-2.939,-2.9679,-2.9792,-2.9869,-3.0317,-3.0482,-3.0558,-1.0303,-1.0303,-1.0322,-1.041,-1.0752,-1.1064,-1.1131,-1.1465,-1.1712,-1.1712,-1.2148,-1.2584,-1.2959,-1.3023,-1.3096,-1.3375,-1.3101,-1.3213,-1.3948,-1.4211,-1.4629,-1.5219,-1.571,-1.6086,-1.6315,-1.6337,-1.6337,-1.6337,-1.6337,-1.6259,-1.6163,-1.6259,-1.6337,-1.6324,-1.6445,-1.6613,-1.6876,0.0,0.0,-1.8777,0.0,-1.9966,-2.1439,-2.1827,-2.2066,-2.2226,-2.2455,-2.3114,-2.371,-2.2457,0.0,-2.3634,-2.0102,-1.9954,0.0,0.0,0.0,0.0,0.0,0.0,0.0,0.0,0.0,-1.7105,0.0,0.0,0.0,0.0,0.0,0.0,0.0,0.0,0.0,0.0,0.0,0.0,0.0,0.0,0.0,0.0,0.0,0.0,0.0,0.0,0.0,-2.1292,-2.2246,-2.2644,-2.2334,-2.2706,-2.2995,-2.3108,-2.3559,-2.3572,-2.3108,-2.4123,-2.4637,-2.4637,-2.5297,-2.5871,-2.6336,-2.6449,-2.6738,-2.7165,-2.7266,-2.7595,-2.8147,-2.8662,-2.8963,-2.9101,-2.9616,-2.9792,-2.9792,-2.9792,-2.9792,-2.9792,-1.0303,-1.0303,-1.04,-1.0771,-1.1222,-1.1643,-1.1999,-1.2096,-1.2125,-1.2125,-1.2837,-1.3379,-1.3437,-1.3437,-1.3887,-1.5029,-1.375,-1.341,-1.4619,0.0,-1.3372,-1.398,-1.4073,-1.4618,-1.5676,-1.5698,-1.5698,-1.5698,-1.5698,-1.5432,-1.4926,-1.5454,-1.5698,-1.5732,-1.6259,0.0,0.0,0.0,-1.792,0.0,-1.9016,-1.9777,0.0,-2.0845,-2.1209,-2.1835,-2.2446,-2.2767,-2.2605,0.0,-2.1246,-2.1786,0.0,-1.8414,-1.9308,0.0,0.0,0.0,0.0,0.0,0.0,0.0,-1.7971,0.0,0.0,0.0,0.0,0.0,0.0,0.0,0.0,0.0,0.0,0.0,0.0,0.0,0.0,0.0,0.0,0.0,0.0,0.0,0.0,0.0,0.0,0.0,-2.133,-2.1857,-2.2284,-2.2372,-2.2606,-2.3083,-2.317,-2.317,-2.3108,-2.3766,-2.4092,-2.4104,-2.5121,-2.5636,-2.5711,-2.626,-2.6524,-2.6612,-2.7102,-2.7595,-2.8147,-2.8662,-2.9239,-2.9691,-2.9767,-2.9792,-2.9792,-2.9792,-2.9792,-2.9792,-1.0645,-1.0645,-1.0781,-1.1232,-1.165,-1.2012,-1.2174,-1.2632,-1.2856,-1.2637,-1.3315,-1.4036,-1.4561,-1.4394,-1.4978,-1.6757,0.0,-1.4754,0.0,0.0,-1.456,-1.6334,-1.5284,-1.513,-1.6164,-1.6056,-1.5863,-1.561,-1.5964,-1.5986,-1.5744,-1.6008,-1.6117,-1.6141,-1.6317,0.0,-1.7758,0.0,-1.8152,0.0,0.0,0.0,0.0,-2.0505,-2.1152,-2.1512,-2.2386,-2.2534,-2.2198,0.0,-2.1524,0.0,0.0,0.0,0.0,0.0,0.0,0.0,0.0,0.0,0.0,0.0,0.0,0.0,-1.699,0.0,-1.7272,0.0,0.0,0.0,0.0,0.0,0.0,0.0,0.0,0.0,0.0,0.0,0.0,0.0,0.0,0.0,0.0,0.0,0.0,0.0,0.0,-2.0993,-2.0865,-2.1782,-2.2393,-2.2619,-2.2945,-2.3108,-2.3108,-2.3703,-2.4167,-2.4481,-2.5234,-2.5774,-2.6135,-2.6386,-2.6499,-2.6512,-2.6738,-2.7153,-2.767,-2.8222,-2.8787,-2.9327,-2.9666,-2.9792,-2.9792,-2.9792,-2.9792,-2.9792,-1.1199,-1.1172,-1.1221,-1.1692,0.0,-1.2242,-1.2369,-1.3012,-1.3398,-1.3096,-1.3789,0.0,-1.6086,-1.5663,0.0,0.0,-1.7022,-1.6385,0.0,0.0,-1.5644,0.0,0.0,0.0,0.0,-1.6587,-1.6232,-1.5576,-1.5693,-1.5678,-1.5522,-1.5666,-1.5816,-1.5927,0.0,-1.6634,-1.7666,0.0,0.0,-1.8071,-1.8803,-1.8816,-1.8551,-2.0179,-2.0818,-2.0972,-2.1822,-2.1903,-2.1631,-2.1631,-2.1597,0.0,-2.0532,0.0,0.0,0.0,0.0,0.0,-1.9674,0.0,0.0,0.0,0.0,0.0,0.0,0.0,0.0,0.0,0.0,0.0,0.0,0.0,0.0,-1.4955,0.0,0.0,0.0,0.0,0.0,0.0,0.0,0.0,0.0,0.0,0.0,0.0,0.0,0.0,-1.9811,-2.1117,-2.1995,-2.2297,-2.2819,-2.3108,-2.3108,-2.3521,-2.4042,-2.4607,-2.5134,-2.5674,-2.626,-2.6424,-2.6499,-2.6499,-2.665,-2.7027,-2.7557,-2.8109,-2.8662,-2.9202,-2.9628,-2.9792,-2.9792,-2.9792,-2.9792,-2.9792,-1.1999,-1.1836,-1.1702,-1.2106,0.0,0.0,0.0,0.0,0.0,0.0,0.0,0.0,0.0,0.0,0.0,0.0,0.0,-1.8086,-1.8541,0.0,-1.587,0.0,0.0,-1.6836,0.0,0.0,-1.6632,-1.5511,-1.4417,-1.36,-1.3017,-1.3624,-1.4095,-1.4493,-1.5066,-1.6439,-1.8237,-1.7427,-1.7915,-1.9224,-1.8789,-1.9092,-1.9828,0.0,-1.9905,-2.0008,-2.0506,0.0,0.0,-2.0644,-2.0624,0.0,0.0,0.0,0.0,0.0,0.0,0.0,0.0,0.0,0.0,-2.0011,0.0,0.0,0.0,0.0,-1.5934,0.0,0.0,0.0,0.0,-1.5632,-1.5455,-1.4891,-1.4774,0.0,0.0,0.0,0.0,0.0,0.0,0.0,0.0,0.0,0.0,0.0,0.0,0.0,-1.9748,-2.0415,-2.1232,-2.2284,-2.2819,-2.3108,-2.3108,-2.312,-2.3421,-2.4029,-2.4582,-2.5121,-2.5636,-2.6235,-2.6499,-2.6524,-2.7065,-2.757,-2.8122,-2.8637,-2.9239,-2.9767,-2.9779,-2.9792,-2.9792,-2.9792,-2.9792,-2.9792,-1.2145,-1.2334,-1.2504,-1.2637,0.0,0.0,0.0,-1.3652,0.0,0.0,0.0,0.0,0.0,-1.992,-2.0655,0.0,0.0,-2.1006,-2.1532,-2.0226,0.0,0.0,0.0,-1.8392,0.0,0.0,0.0,0.0,-1.4779,-1.4703,-1.4497,-1.4703,-1.5026,-1.5444,0.0,-1.6375,0.0,0.0,0.0,0.0,0.0,-1.8773,-1.9102,0.0,0.0,-2.0361,-2.0546,-2.0605,0.0,-2.0605,-2.0605,-2.0556,-2.0263,-1.9746,-1.9301,-1.9247,-1.9407,0.0,0.0,0.0,-2.02,-2.0831,0.0,0.0,0.0,0.0,0.0,0.0,0.0,0.0,0.0,-1.5404,-1.5117,-1.428,-1.4105,-1.389,0.0,0.0,0.0,0.0,0.0,0.0,0.0,0.0,0.0,0.0,0.0,0.0,0.0,-2.0,-2.1031,-2.1744,-2.2631,-2.3108,-2.3108,-2.3484,-2.3803,-2.4004,-2.4908,-2.5423,-2.5611,-2.6223,-2.6499,-2.6524,-2.7077,-2.7595,-2.8147,-2.8662,-2.9277,-2.9792,-2.9792,-2.9792,-2.9792,-2.9792,-2.9792,-2.9792,-1.2461,-1.2686,0.0,0.0,0.0,0.0,0.0,0.0,0.0,0.0,-1.7793,0.0,-2.1779,0.0,-2.292,0.0,-2.3885,-2.336,-2.3183,-2.2284,0.0,-2.1288,-2.1118,0.0,0.0,0.0,0.0,0.0,0.0,-1.4867,-1.4867,-1.4867,-1.5122,-1.5574,0.0,-1.598,-1.7016,0.0,-1.7598,0.0,0.0,-1.8695,0.0,0.0,-1.9961,0.0,0.0,-2.0605,-2.0605,-2.0605,-2.0605,-2.0605,-2.0605,-2.0224,-1.9774,-1.9774,-1.9933,-2.0118,-2.0145,-2.0349,0.0,0.0,-1.9899,0.0,-1.9217,0.0,0.0,0.0,0.0,0.0,0.0,0.0,-1.4731,-1.3936,-1.3613,-1.3348,0.0,-1.2905,0.0,0.0,0.0,0.0,0.0,0.0,0.0,0.0,0.0,0.0,0.0,0.0,-2.0314,-2.1455,-2.2372,-2.2907,-2.3108,-2.3471,-2.3791,-2.4004,-2.4895,-2.5423,-2.5611,-2.6223,-2.6499,-2.6524,-2.7077,-2.7494,-2.7871,-2.8587,-2.9151,-2.9503,-2.9716,-2.9792,-2.9792,-2.9792,-2.9792,-2.9792,-1.2935,0.0,0.0,0.0,-1.3271,0.0,0.0,0.0,-1.6833,0.0,-1.8955,-2.0913,-2.325,-2.4031,-2.4829,-2.5951,-2.5816,0.0,-2.3439,-2.3166,0.0,0.0,-2.209,-2.164,-1.9761,0.0,0.0,0.0,0.0,0.0,-1.4133,-1.4133,-1.4367,-1.4842,-1.4842,0.0,-1.6124,-1.6523,-1.7184,-1.8086,-1.851,-1.8965,-1.9316,-1.9382,0.0,-1.9971,-2.0449,-2.0605,-2.0605,-2.0605,-2.0605,-2.0605,-2.0605,-2.0605,-2.0605,-2.0605,-2.1221,-2.1735,-2.0828,-2.07,-2.0751,-2.0697,0.0,0.0,0.0,0.0,-1.814,0.0,0.0,0.0,0.0,0.0,-1.4313,-1.387,-1.3296,-1.2905,-1.2905,0.0,0.0,0.0,0.0,0.0,0.0,0.0,0.0,0.0,0.0,0.0,0.0,0.0,0.0,-2.1393,-2.2008,-2.2543,-2.3095,-2.3108,-2.3384,-2.3966,-2.4519,-2.5059,-2.5573,-2.6185,-2.6461,-2.6524,-2.7077,-2.7281,-2.7369,-2.8473,-2.8888,-2.895,-2.9566,-2.9792,-2.9792,-2.9792,-2.9792,-2.9792,-1.335,-1.3857,-1.4324,0.0,-1.3857,-1.3975,0.0,0.0,0.0,0.0,-2.0303,-2.1989,-2.357,-2.4983,-2.571,-2.5381,-2.6008,0.0,0.0,0.0,0.0,-2.189,-2.302,-2.2223,-1.8969,-1.9077,0.0,-1.569,0.0,0.0,-1.4619,-1.4619,-1.4844,-1.5254,0.0,0.0,-1.6105,-1.6212,-1.71,-1.8539,-1.9639,-1.9941,0.0,0.0,-2.0098,-1.9971,-2.0449,-2.0605,-2.0605,-2.0605,-2.0605,-2.0605,-2.0605,-2.0605,-2.0605,-2.0605,-2.0789,-2.0895,-2.0673,-2.0631,-2.0807,-2.1456,-2.0283,-1.929,0.0,0.0,0.0,0.0,0.0,0.0,0.0,0.0,0.0,-1.376,-1.3199,-1.2905,-1.2905,0.0,0.0,0.0,0.0,0.0,0.0,0.0,0.0,0.0,0.0,0.0,0.0,0.0,0.0,0.0,-2.1807,-2.2543,-2.3095,-2.3108,-2.3183,-2.3333,-2.3941,-2.4494,-2.5034,-2.5573,-2.6084,-2.6524,-2.7077,-2.7281,-2.7369,-2.8473,-2.8888,-2.895,-2.9566,-2.9792,-2.9792,-2.9792,-2.9792,-2.9792,-1.374,0.0,0.0,-1.5341,0.0,0.0,-1.6924,0.0,0.0,-2.0127,-2.1768,0.0,-2.3711,-2.5677,-2.6512,-2.5448,-2.6094,0.0,-2.4525,0.0,0.0,-2.2917,-2.3334,-2.2342,-1.9539,-1.9052,0.0,-1.5966,0.0,0.0,-1.5049,-1.4873,-1.501,-1.541,0.0,-1.5547,-1.584,-1.6427,-1.7197,-1.8184,-1.9287,0.0,0.0,-1.9912,-2.0088,-2.0234,-2.0517,-2.0605,-2.0605,-2.0605,-2.0605,-2.0605,-2.0605,-2.0605,-2.0605,-2.0605,-2.0605,-2.0605,-2.0605,-2.0605,-2.0712,-2.126,-2.0641,-2.0133,-2.11,-2.0173,-1.9265,0.0,0.0,0.0,0.0,0.0,0.0,-1.3467,-1.3193,-1.3096,0.0,0.0,0.0,0.0,0.0,0.0,0.0,0.0,0.0,0.0,0.0,0.0,0.0,0.0,0.0,0.0,-2.1356,-2.1948,-2.2058,-2.3233,-2.3471,-2.2757,-2.3602,-2.4293,-2.4813,-2.536,-2.5912,-2.6512,-2.6826,-2.6952,-2.704,-2.8109,-2.8561,-2.8612,-2.9465,-2.9792,-2.9792,-2.9792,-2.9792,-2.9792,-1.4175,0.0,0.0,0.0,0.0,0.0,0.0,-1.9268,0.0,-2.1738,0.0,-2.3867,-2.3867,-2.6032,-2.6938,-2.5751,0.0,-2.5833,-2.5158,-2.4821,-2.4438,-2.3929,-2.3179,-2.213,-2.0703,-1.8975,0.0,0.0,0.0,0.0,-1.5371,-1.5039,-1.5068,-1.541,0.0,0.0,0.0,-1.6904,-1.75,0.0,-1.8525,-1.915,-1.9531,-1.9482,-1.9951,-2.0683,-2.0625,-2.0605,-2.0605,-2.0605,-2.0605,-2.0605,-2.0605,-2.0605,-2.0605,-2.0605,-2.0605,-2.0605,-2.0605,-2.0605,-2.0605,-2.0605,-2.0605,-2.0828,-2.1621,-2.1193,-2.0818,-2.1669,-2.0578,0.0,0.0,0.0,0.0,-1.3311,0.0,0.0,0.0,0.0,0.0,0.0,0.0,0.0,0.0,0.0,0.0,0.0,0.0,0.0,0.0,0.0,0.0,0.0,-2.0527,0.0,-2.0909,0.0,-2.4023,-2.2749,-2.359,-2.4318,-2.4933,-2.5322,-2.585,-2.6499,-2.6499,-2.6499,-2.6575,-2.7657,-2.8197,-2.8423,-2.9402,-2.9792,-2.9792,-2.9792,-2.9792,-2.9792,0.0,0.0,0.0,0.0,0.0,-1.9131,-2.1943,-2.0615,-2.0039,-2.2129,-2.3516,0.0,-2.4307,-2.5671,-2.6212,-2.5302,-2.5265,0.0,0.0,0.0,0.0,-2.3298,-2.25,-2.1756,-2.1123,-1.9377,-1.8081,0.0,0.0,-1.5762,-1.541,-1.5342,-1.5342,-1.541,0.0,0.0,-1.6065,-1.7344,0.0,-1.849,-1.9736,-2.0498,-2.081,-2.0488,-2.0664,-2.1064,-2.0742,-2.0605,-2.0605,-2.0605,-2.0605,-2.0605,-2.0605,-2.0605,-2.0605,-2.0605,-2.0605,-2.0605,-2.0605,-2.0605,-2.0605,-2.0605,-2.0605,-2.0644,-2.0828,-2.0712,-2.0644,-2.0828,-2.0594,-2.0136,-1.9316,0.0,0.0,0.0,0.0,0.0,0.0,0.0,0.0,0.0,0.0,0.0,0.0,0.0,0.0,0.0,0.0,0.0,0.0,0.0,0.0,0.0,0.0,0.0,0.0,0.0,0.0,-2.5008,-2.433,-2.4506,-2.5448,-2.5109,-2.5511,-2.6499,-2.6499,-2.6499,-2.6575,-2.7657,-2.8649,-2.9515,-2.9716,-2.9792,-2.9792,-2.9792,-2.9792,-2.9792,0.0,0.0,0.0,0.0,0.0,0.0,0.0,-2.2139,0.0,-2.333,-2.4033,-2.4414,-2.4414,-2.5185,-2.5585,-2.5155,-2.4705,-2.4228,-2.3818,-2.3574,-2.3359,-2.311,-2.2334,0.0,-2.121,-1.9923,-1.8672,-1.7383,0.0,0.0,-1.541,-1.5186,-1.5205,-1.543,0.0,-1.6211,0.0,0.0,0.0,-1.9072,-2.0175,-2.083,-2.1171,-2.0996,-2.1045,-2.1132,-2.0723,-2.0605,-2.0605,-2.0605,-2.0605,-2.0605,-2.0605,-2.0605,-2.0605,-2.0605,-2.0605,-2.0605,-2.0605,-2.0605,-2.0605,-2.0605,-2.0605,-2.0605,-2.0605,-2.0605,-2.0605,-2.0605,-2.0605,-2.0273,-1.915,-1.8096,0.0,0.0,0.0,0.0,0.0,0.0,0.0,0.0,0.0,0.0,0.0,0.0,0.0,0.0,0.0,0.0,0.0,0.0,0.0,0.0,0.0,0.0,0.0,0.0,0.0,-2.3891,-2.4255,-2.4833,-2.5586,-2.5335,-2.5674,-2.6499,-2.6499,-2.6663,-2.7002,-2.8084,-2.9026,-2.9792,-2.9792,-2.9792,-2.9792,-2.9792,-2.9792,-2.9792,0.0,-1.7577,0.0,0.0,-1.9668,0.0,0.0,-2.3437,-2.4111,-2.4629,-2.4609,-2.4551,-2.4551,-2.4775,-2.494,-2.4851,-2.418,-2.375,-2.3662,-2.333,-2.3091,-2.3091,-2.2334,-2.1728,-2.1346,-2.042,-1.9219,0.0,0.0,0.0,-1.5684,-1.5156,0.0,0.0,0.0,0.0,0.0,0.0,-1.9082,-1.9619,-2.0439,-2.1025,-2.1444,-2.1268,-2.1249,-2.1259,-2.0762,-2.0605,-2.0605,-2.0605,-2.0605,-2.0605,-2.0605,-2.0605,-2.0605,-2.0605,-2.0605,-2.0605,-2.0605,-2.0605,-2.0605,-2.0605,-2.0605,-2.0605,-2.0605,-2.0605,-2.0605,-2.0605,-2.0605,-2.0263,-1.9075,-1.8802,0.0,0.0,0.0,0.0,0.0,0.0,0.0,0.0,0.0,0.0,0.0,0.0,0.0,0.0,0.0,0.0,0.0,0.0,0.0,0.0,0.0,0.0,-1.9781,0.0,-2.4416,0.0,-2.4406,-2.5259,-2.5774,-2.5649,-2.5975,-2.6663,-2.6549,-2.6876,-2.7532,-2.8487,-2.9277,-2.9792,-2.9792,-2.9792,-2.9792,-2.9792,-2.9792,-2.9792,0.0,0.0,0.0,0.0,0.0,0.0,0.0,-2.4062,-2.4658,-2.545,-2.5264,-2.501,-2.501,-2.4687,-2.4326,-2.3935,-2.3838,-2.3623,-2.3179,-2.312,-2.3091,-2.3091,-2.2334,-2.1865,-2.1826,-2.0566,-1.9648,0.0,0.0,0.0,0.0,0.0,0.0,0.0,0.0,0.0,0.0,-1.9014,-1.9734,-2.0527,-2.0977,-2.1619,-2.2305,-2.1492,-2.1444,-2.1709,-2.0909,-2.0605,-2.0605,-2.0605,-2.0605,-2.0605,-2.0605,-2.0605,-2.0605,-2.0605,-2.0605,-2.0605,-2.0605,-2.0605,-2.0605,-2.0605,-2.0605,-2.0605,-2.0605,-2.0605,-2.0605,-2.0605,-2.0605,-2.0449,-1.9893,-1.9482,-1.8662,0.0,0.0,0.0,0.0,0.0,0.0,0.0,0.0,0.0,0.0,0.0,0.0,0.0,0.0,0.0,0.0,0.0,0.0,0.0,0.0,-1.7864,0.0,-2.1994,0.0,-2.6097,-2.5699,-2.5858,-2.6399,-2.5837,-2.6189,-2.7216,-2.6713,-2.709,-2.8072,-2.865,-2.9277,-2.9792,-2.9792,-2.9792,-2.9792,-2.9792,-2.9792,-2.9792,0.0,0.0,0.0,0.0,0.0,0.0,0.0,-2.4531,-2.4932,-2.5293,-2.5176,-2.4971,-2.4707,-2.4297,-2.3975,-2.3809,-2.3555,-2.3276,-2.311,-2.3091,-2.3091,-2.3091,-2.2334,-2.1885,-2.1885,-2.085,-2.0008,0.0,0.0,0.0,0.0,0.0,0.0,0.0,0.0,-1.8545,-1.9072,-1.9766,-2.041,-2.1006,-2.1445,-2.1982,-2.2451,-2.1846,-2.1738,-2.1768,-2.0918,-2.0605,-2.0605,-2.0605,-2.0605,-2.0605,-2.0605,-2.0605,-2.0605,-2.0605,-2.0605,-2.0605,-2.0605,-2.0605,-2.0605,-2.0605,-2.0605,-2.0605,-2.0605,-2.0605,-2.0605,-2.0605,-2.0605,-2.0546,-2.0332,-1.9951,-1.9268,0.0,0.0,0.0,0.0,0.0,0.0,0.0,0.0,0.0,0.0,0.0,0.0,0.0,0.0,0.0,0.0,0.0,0.0,-1.6573,0.0,-1.8765,-2.1715,-2.252,-2.3758,-2.5485,-2.5946,-2.6273,-2.6499,-2.66,-2.703,-2.7783,-2.7896,-2.8185,-2.8599,-2.9214,-2.9578,-2.9792,-2.9792,-2.9792,-2.9792,-2.9792,-2.9792,-2.9792,-2.1389,0.0,-2.2725,0.0,-2.3682,-2.4219,-2.4394,-2.4902,-2.5166,-2.4912,-2.4873,-2.4717,-2.4277,-2.3857,-2.3603,-2.3603,-2.3276,-2.3091,-2.3091,-2.3091,-2.3042,-2.2916,-2.2266,0.0,-2.1699,-2.0997,-2.0312,-1.9668,-1.8809,0.0,0.0,0.0,0.0,0.0,-1.9023,-1.9424,-1.9744,-2.0488,-2.1025,-2.1465,-2.1894,-2.2324,-2.2637,-2.209,-2.1885,-2.1768,-2.0918,-2.0605,-2.0605,-2.0605,-2.0605,-2.0605,-2.0605,-2.0605,-2.0605,-2.0605,-2.0605,-2.0605,-2.0605,-2.0605,-2.0605,-2.0605,-2.0605,-2.0605,-2.0605,-2.0605,-2.0605,-2.0605,-2.0605,-2.0605,-2.0605,-2.0215,-1.9592,0.0,0.0,0.0,0.0,0.0,0.0,0.0,-1.5078,-1.5293,-1.5,0.0,0.0,0.0,0.0,0.0,0.0,0.0,0.0,0.0,0.0,0.0,0.0,0.0,-2.3216,-2.5059,-2.6176,-2.6738,-2.6763,-2.7444,-2.7896,-2.8147,-2.8863,-2.9051,-2.8938,-2.9553,-2.9792,-2.9792,-2.9792,-2.9792,-2.9792,-2.9792,-2.9792,-2.9792,-2.4578,-2.4678,-2.4385,-2.4394,-2.4756,-2.4912,-2.4482,-2.5118,-2.5362,-2.4541,-2.4424,-2.4258,-2.3838,-2.3408,-2.3101,-2.3101,-2.3101,-2.3091,-2.3091,-2.3091,-2.2906,0.0,0.0,-2.168,-2.121,-2.0801,-2.0595,-2.0586,0.0,0.0,-1.9258,0.0,0.0,-1.9268,-1.9287,-1.9793,-2.0615,-2.1035,-2.1475,-2.1914,-2.2334,-2.2711,-2.3003,-2.2207,-2.1885,-2.1768,-2.0918,-2.0605,-2.0605,-2.0605,-2.0605,-2.0605,-2.0605,-2.0605,-2.0605,-2.0605,-2.0605,-2.0605,-2.0605,-2.0605,-2.0605,-2.0605,-2.0605,-2.0605,-2.0605,-2.0605,-2.0605,-2.0605,-2.0605,-2.0605,-2.0605,-2.0215,-1.9592,-1.8744,0.0,0.0,0.0,0.0,0.0,0.0,-1.4864,-1.541,-1.5371,0.0,0.0,0.0,0.0,0.0,0.0,0.0,0.0,-1.521,-1.5363,0.0,-1.9526,-2.0449,-2.2486,-2.5598,-2.6741,-2.7268,-2.7341,-2.8411,-2.8612,-2.816,-2.9302,-2.9453,-2.8938,-2.9553,-2.9792,-2.9792,-2.9792,-2.9792,-2.9792,-2.9792,-2.9792,-2.9792,-2.5121,-2.541,-2.5274,-2.5274,-2.543,-2.5478,-2.5284,-2.5293,-2.5185,-2.4893,-2.4346,-2.3935,-2.3809,0.0,-2.3091,0.0,-2.3091,-2.3091,0.0,-2.3091,-2.2906,-2.2529,-2.2109,-2.168,-2.121,-2.0791,-2.0605,-2.0605,0.0,0.0,0.0,-1.9609,-2.0059,-2.0596,-2.0293,-2.0478,-2.1016,-2.085,-2.1035,-2.1414,-2.1551,-2.1894,-2.2217,-2.166,-2.1405,-2.1367,-2.0811,-2.0605,-2.0605,-2.0605,-2.0605,-2.0605,-2.0605,-2.0605,-2.0605,-2.0605,-2.0605,-2.0605,-2.0605,-2.0605,-2.0605,-2.0605,-2.0605,-2.0605,-2.0605,-2.0605,-2.0605,-2.0605,-2.037,-2.0117,-2.0117,-1.9775,-1.9209,-1.8315,0.0,0.0,0.0,0.0,0.0,0.0,0.0,-1.5527,0.0,-1.5342,0.0,0.0,0.0,0.0,0.0,0.0,0.0,0.0,-1.9084,0.0,-2.3626,-2.3478,-2.4507,-2.6753,-2.7494,-2.8047,-2.8411,-2.8737,-2.9051,-2.9277,-2.9628,-2.9691,-2.9528,-2.9716,-2.9792,-2.9792,-2.9792,-2.9792,-2.9792,-2.9792,-2.9792,-2.9792,-2.4711,-2.5333,-2.5693,-2.5693,-2.5693,-2.5693,-2.5693,-2.5498,-2.5254,-2.5135,-2.4646,-2.415,-2.3828,-2.3545,0.0,-2.311,-2.3091,0.0,-2.3091,-2.3091,-2.2906,-2.2529,-2.2266,-2.1846,-2.121,0.0,0.0,-2.0605,-2.0067,-1.9803,-1.9822,-2.0488,-2.0879,-2.0986,-2.1035,-2.1123,-2.119,-2.1279,-2.1367,-2.1494,-2.165,-2.1787,-2.1836,-2.1356,-2.119,-2.1132,-2.0723,-2.0605,-2.0605,-2.0605,-2.0605,-2.0605,-2.0605,-2.0605,-2.0605,-2.0605,-2.0605,-2.0605,-2.0605,-2.0605,-2.0605,-2.0605,-2.0605,-2.0605,-2.0605,-2.0605,-2.0556,-2.0352,-2.0098,-1.9863,-1.9707,-1.9326,-1.8867,-1.8295,0.0,0.0,0.0,0.0,0.0,0.0,0.0,0.0,0.0,-1.6064,0.0,0.0,0.0,0.0,0.0,0.0,0.0,-1.9848,-2.0656,0.0,-2.5148,-2.4721,-2.5538,-2.7595,-2.8147,-2.8675,-2.9252,-2.9252,-2.9453,-2.9792,-2.9792,-2.9792,-2.9792,-2.9792,-2.9792,-2.9792,-2.9792,-2.9792,-2.9792,-2.9792,-2.9792,-2.9792,-2.3583,-2.4658,0.0,0.0,-2.5635,0.0,-2.5693,-2.5664,-2.5537,-2.5174,-2.5067,-2.4724,-2.3877,-2.376,-2.3584,-2.313,0.0,0.0,0.0,-2.3091,-2.2906,-2.2529,-2.251,0.0,-2.121,-2.119,-2.1016,-2.0605,-2.0605,-2.0605,-2.0615,-2.1025,-2.1016,-2.0693,-2.1504,-2.166,-2.1288,-2.21,-2.2197,-2.1875,-2.2236,-2.2139,-2.1748,-2.1307,-2.1151,-2.1093,-2.0713,-2.0605,-2.0605,-2.0605,-2.0605,-2.0605,-2.0605,-2.0605,-2.0605,-2.0605,-2.0605,-2.0605,-2.0605,-2.0605,-2.0605,-2.0605,-2.0605,-2.0605,-2.0605,-2.0605,-2.0478,-2.0,-1.9893,-1.9746,-1.9316,-1.8887,-1.8559,-1.8559,-1.8559,-1.812,-1.6872,0.0,0.0,0.0,0.0,0.0,0.0,-1.6785,-1.7113,0.0,0.0,0.0,0.0,0.0,0.0,-1.9838,-2.0768,-2.239,-2.4729,-2.4778,-2.594,-2.8235,-2.87,-2.9277,-2.9792,-2.9792,-2.9792,-2.9792,-2.9792,-2.9792,-2.9792,-2.9792,-2.9792,-2.9792,-2.9792,-2.9792,-2.9792,-2.9792,-2.9792,-2.9792,0.0,0.0,-2.4146,-2.4146,-2.502,-2.5693,-2.5693,-2.5449,-2.5195,-2.5125,-2.4502,-2.4014,-2.3809,-2.3496,-2.3208,-2.311,-2.3091,-2.3091,-2.3091,-2.3091,-2.2906,-2.2529,-2.251,-2.2068,-2.121,-2.119,-2.1016,-2.0605,-2.0605,-2.0605,-2.0615,-2.1025,-2.1142,-2.1064,-2.165,-2.1826,-2.1728,-2.1551,-2.1434,-2.1367,-2.1123,-2.1006,-2.0909,-2.0762,-2.0723,-2.0752,-2.0644,-2.0605,-2.0605,-2.0605,-2.0605,-2.0605,-2.0605,-2.0605,-2.0605,-2.0605,-2.0605,-2.0605,-2.0605,-2.0605,-2.0605,-2.0605,-2.0605,-2.0605,-2.0605,-2.0605,-2.0478,-2.0,-1.9658,-1.9307,-1.8831,-1.8412,-1.812,-1.812,-1.812,-1.7789,-1.6833,0.0,0.0,0.0,-1.657,-1.696,-1.7646,-1.7672,-1.7635,0.0,0.0,0.0,0.0,0.0,-2.4344,-2.319,-2.4451,-2.5862,-2.7231,-2.7666,-2.8363,-2.9402,-2.9528,-2.9666,-2.9792,-2.9792,-2.9792,-2.9792,-2.9792,-2.9792,-2.9792,-2.9792,-2.9792,-2.9792,-2.9792,-2.9792,-2.9792,-2.9792,-2.9792,-2.9792,-2.0743,-2.1853,-2.2767,-2.2767,-2.3384,-2.3984,-2.4405,-2.4436,-2.4526,-2.4777,-2.4541,-2.4228,-2.3828,-2.3574,-2.3315,-2.311,-2.3091,-2.3091,-2.3091,-2.3091,-2.2994,-2.2769,-2.275,-2.2402,-2.1553,-2.1533,-2.1211,-2.0605,-2.0605,-2.0605,-2.0615,-2.1025,-2.1083,-2.0957,-2.1602,-2.1885,-2.1865,-2.1631,-2.1533,-2.1494,-2.1055,-2.0752,-2.0605,-2.0605,-2.0605,-2.0605,-2.0605,-2.0605,-2.0605,-2.0605,-2.0605,-2.0605,-2.0605,-2.0605,-2.0605,-2.0605,-2.0605,-2.0605,-2.0605,-2.0605,-2.0556,-2.0312,-2.0458,-2.0546,-2.0312,-2.0458,-2.0478,-2.0,-1.958,-1.915,-1.8685,-1.8256,-1.7949,-1.7754,-1.7725,-1.749,-1.6794,-1.6872,0.0,-1.7262,-1.7447,-1.7828,-1.8535,-1.8594,-1.8671,-1.8869,0.0,0.0,-2.0373,-2.316,-2.4612,-2.4299,-2.6198,-2.762,-2.8473,-2.9038,-2.9478,-2.9792,-2.9792,-2.9792,-2.9792,-2.9792,-2.9792,-2.9792,-2.9792,-2.9792,-2.9792,-2.9792,-2.9792,-2.9792,-2.9792,-2.9792,-2.9792,-2.9792,-2.9792,-2.9792,-1.9324,-2.0436,-2.1397,-2.1397,-2.155,-2.1929,-2.2598,-2.3028,-2.3338,-2.37,-2.4048,-2.3962,-2.3209,-2.3133,-2.298,-2.2574,-2.2545,-2.2731,-2.3091,-2.3091,-2.3091,-2.3091,-2.3091,-2.2701,-2.1904,-2.1625,-2.1026,-2.0118,-2.0118,-2.0196,-2.0372,-2.0835,-2.0886,-2.0644,-2.1553,-2.1821,-2.1571,-2.1571,-2.1447,-2.1275,-2.0805,-2.0493,-2.0362,-2.0362,-2.044,-2.0605,-2.0605,-2.0605,-2.0605,-2.0605,-2.0605,-2.0605,-2.0605,-2.0605,-2.0605,-2.0605,-2.0605,-2.0605,-2.0605,-2.0556,-2.0429,-2.0088,-2.0244,-2.0429,-2.0078,-2.0303,-2.0478,-2.0,-1.958,-1.915,-1.8685,-1.8256,-1.7871,-1.7484,-1.7334,-1.7129,-1.6658,0.0,0.0,-1.7871,-1.8364,-1.8841,-1.9248,-1.9346,-1.9723,-2.0524,-2.0441,0.0,0.0,-2.2847,-2.3476,-2.4155,-2.6639,-2.83,-2.9013,-2.9553,-2.9792,-2.9792,-2.9792,-2.9792,-2.9792,-2.9792,-2.9792,-2.9792,-2.9792,-2.9792,-2.9792,-2.9792,-2.9792,-2.9792,-2.9792,-2.9792,-2.9792,-2.9792,-2.9792,-2.9792,-1.7891,-1.9013,-1.993,-1.993,-2.0896,-2.1628,-2.1501,-2.1233,-2.1018,-2.0776,-2.0542,-2.03,-2.0181,-2.0172,-2.0147,-2.0096,-2.0042,-2.0908,-2.296,-2.3091,-2.3091,-2.3091,-2.3091,-2.2701,-2.1904,-2.0289,-1.8923,-1.7819,-1.7819,-1.831,-1.9253,-2.0026,-2.0439,-2.0654,-2.1865,-2.1482,-1.9971,-1.9971,-1.9427,-1.8563,-1.8097,-1.8442,-1.9244,-1.9244,-1.9795,-2.0605,-2.0605,-2.0605,-2.0605,-2.0605,-2.0605,-2.0605,-2.0605,-2.0605,-2.0605,-2.0605,-2.0605,-2.0605,-2.0605,-2.0303,-2.0088,-2.0429,-2.0244,-2.0088,-2.0429,-2.0556,-2.0478,-2.0,-1.958,-1.915,-1.8685,-1.8256,-1.7871,-1.7484,-1.708,-1.667,0.0,0.0,-1.7402,-1.7471,-1.8486,-1.9209,-1.9277,-1.9609,-2.0046,-2.0562,-2.1617,-2.1988,-2.1441,-2.379,-2.4675,-2.3649,-2.6093,-2.8137,-2.9654,-2.9741,-2.9792,-2.9792,-2.9792,-2.9792,-2.9792,-2.9792,-2.9792,-2.9792,-2.9792,-2.9792,-2.9792,-2.9792,-2.9792,-2.9792,-2.9792,-2.9792,-2.9792,-2.9792,-2.9792,-2.9792,-1.7582,-1.8094,-1.8499,-1.8499,-1.9065,-1.955,-1.9727,-1.9821,-1.9828,-1.9789,-1.9807,-1.9749,-1.9513,-1.9497,-1.9497,-1.9497,-1.9497,-1.9951,-2.1087,-2.1177,-2.1177,-2.1177,-2.1177,-2.0809,-2.003,-1.8911,-1.8031,-1.7302,-1.7302,-1.7645,-1.8338,-1.8723,-1.9059,-1.935,-1.9773,-1.9583,-1.8945,-1.8532,-1.8233,-1.7979,-1.7491,-1.7626,-1.8069,-1.8069,-1.839,-1.8908,-1.952,-1.9717,-1.9844,-2.0401,-2.0605,-2.0605,-2.0605,-2.0605,-2.0605,-2.0605,-2.0605,-2.0605,-2.0605,-2.0458,-2.0254,-2.0225,-2.0244,-2.0254,-2.0225,-2.0429,-2.0546,-2.0303,-1.9922,-1.9492,-1.9072,-1.8633,-1.8135,-1.749,-1.7217,0.0,0.0,-1.7314,-1.7978,-1.8662,-1.9473,-2.0166,-2.0635,-2.0859,-2.1055,-2.13,-2.2099,-2.2389,-2.1924,-2.3398,-2.4252,-2.4199,-2.6514,-2.8394,-2.9792,-2.9792,-2.9792,-2.9792,-2.9792,-2.9792,-2.9792,-2.9792,-2.9792,-2.9792,-2.9792,-2.9792,-2.9792,-2.9792,-2.9792,-2.9792,-2.9792,-2.9792,-2.9792,-2.9792,-2.9792,-2.9792,-1.7582,-1.7582,-1.7582,-1.7582,-1.7582,-1.7687,-1.8017,-1.8382,-1.8602,-1.8659,-1.8901,-1.8956,-1.865,-1.8626,-1.8626,-1.8626,-1.8626,-1.8626,-1.8626,-1.8626,-1.8902,-1.9488,-1.9414,-1.8974,-1.8156,-1.7643,-1.7163,-1.6645,-1.6607,-1.6873,-1.7417,-1.7417,-1.7689,-1.8112,-1.7926,-1.7826,-1.7744,-1.7161,-1.7006,-1.7072,-1.6719,-1.6731,-1.6927,-1.6927,-1.709,-1.7423,-1.831,-1.8798,-1.9125,-1.9962,-2.0401,-2.0605,-2.0605,-2.0605,-2.0605,-2.0605,-2.0605,-2.0605,-2.0605,-2.0527,-2.04,-2.0127,-2.0244,-2.0352,-2.0117,-2.0322,-2.0605,-2.0605,-2.0215,-1.9814,-1.9492,-1.9082,-1.851,-1.7793,0.0,0.0,0.0,-1.8037,-1.874,-1.9922,-2.0547,-2.1182,-2.1826,-2.1973,-2.2031,-2.2031,-2.2422,-2.2656,-2.2656,-2.2916,-2.3637,-2.4745,-2.6696,-2.8148,-2.9,-2.9287,-2.9404,-2.9404,-2.9663,-2.9792,-2.9792,-2.9792,-2.9792,-2.9792,-2.9792,-2.9792,-2.9792,-2.9792,-2.9792,-2.9792,-2.9792,-2.9792,-2.9792,-2.9792,-2.9792,-2.9792,-1.7582,-1.7582,-1.7582,-1.7582,-1.7582,-1.7434,-1.6894,-1.687,-1.6711,-1.6137,-1.6123,-1.613,-1.6062,-1.6055,-1.6055,-1.6055,-1.6055,-1.6055,-1.6055,-1.6055,-1.7117,-1.9405,-1.9077,-1.8382,-1.7296,-1.659,-1.5712,-1.4699,-1.4464,-1.4972,-1.6224,-1.6345,-1.6919,-1.7836,-1.7937,-1.7207,-1.5895,-1.5842,-1.5276,-1.4362,-1.4341,-1.4936,-1.582,-1.582,-1.6437,-1.7293,-1.7383,-1.8109,-1.8997,-1.9076,-1.9766,-2.0605,-2.0605,-2.0605,-2.0605,-2.0605,-2.0605,-2.0605,-2.0605,-2.0273,-2.0049,-2.0458,-2.0244,-2.0059,-2.0478,-2.0586,-2.0605,-2.0605,-2.0215,-1.9902,-1.9873,-1.9521,-1.9092,-1.8588,0.0,0.0,-1.8451,-1.8916,-1.9521,-2.0449,-2.1269,-2.1816,-2.1875,-2.2236,-2.2471,-2.2471,-2.2808,-2.3052,-2.3052,-2.3081,-2.3637,-2.4745,-2.5964,-2.6648,-2.673,-2.7735,-2.8215,-2.8255,-2.9287,-2.9792,-2.9792,-2.9792,-2.9792,-2.9792,-2.9792,-2.9792,-2.9792,-2.9792,-2.9792,-2.9792,-2.9792,-2.9792,-2.9792,-2.9792,-2.9792,-2.9792,-1.7582,-1.7582,-1.7522,-1.7393,-1.7367,-1.7166,-1.6526,-1.644,-1.6293,-1.5838,-1.5784,-1.5784,-1.5784,-1.5784,-1.5784,-1.5784,-1.5784,-1.5784,-1.5784,-1.5784,-1.6244,-1.7156,-1.704,-1.6657,-1.6113,-1.5648,-1.5129,-1.4522,-1.4229,-1.4442,-1.5102,-1.5145,-1.5504,-1.6075,-1.5922,-1.5505,-1.4964,-1.4776,-1.4447,-1.4088,-1.4088,-1.4328,-1.4692,-1.4692,-1.4943,-1.5394,-1.6075,-1.7009,-1.7948,-1.7948,-1.8669,-1.9481,-1.8789,-1.8541,-1.8709,-1.9392,-2.0079,-2.0605,-2.0605,-2.0488,-2.04,-2.0566,-2.0478,-2.0439,-2.0879,-2.0762,-2.0683,-2.0918,-2.0625,-2.0234,-1.9961,-1.9785,-1.9619,-1.9453,0.0,-1.9407,-2.0108,-2.0352,-2.081,-2.167,-2.207,-2.2373,-2.2637,-2.2769,-2.2857,-2.2857,-2.3003,-2.3091,-2.3091,-2.3091,-2.3299,-2.3714,-2.4178,-2.5062,-2.6483,-2.6883,-2.7128,-2.7128,-2.7545,-2.7758,-2.7758,-2.7758,-2.7758,-2.7758,-2.7758,-2.7758,-2.7799,-2.849,-2.8767,-2.8819,-2.9534,-2.9792,-2.9792,-2.9792,-2.9792,-2.9792,-1.7582,-1.7582,-1.7522,-1.7373,-1.7266,-1.7032,-1.648,-1.6333,-1.6166,-1.5824,-1.5784,-1.5784,-1.5784,-1.5784,-1.5784,-1.5784,-1.5784,-1.5784,-1.5784,-1.5784,-1.5784,-1.5784,-1.5784,-1.5684,-1.5538,-1.5157,-1.4908,-1.4663,-1.4275,-1.4235,-1.4516,-1.4429,-1.4543,-1.481,-1.4516,-1.4382,-1.4369,-1.4168,-1.4088,-1.4088,-1.4088,-1.4088,-1.4088,-1.4088,-1.4088,-1.4208,-1.4936,-1.6116,-1.7302,-1.7302,-1.8069,-1.8917,-1.847,-1.835,-1.851,-1.9274,-2.0001,-2.0635,-2.0732,-2.0781,-2.0781,-2.0781,-2.0781,-2.0889,-2.1338,-2.1201,-2.1104,-2.1377,-2.1191,-2.0928,-2.0586,-2.0537,-2.0537,-2.0537,-2.0537,-2.0752,-2.1357,-2.1512,-2.1814,-2.2441,-2.2627,-2.2822,-2.3062,-2.3091,-2.3091,-2.3091,-2.3091,-2.3091,-2.3091,-2.3091,-2.3091,-2.3091,-2.3091,-2.3844,-2.5431,-2.5808,-2.5975,-2.5964,-2.6348,-2.6524,-2.6524,-2.6524,-2.6524,-2.6524,-2.6524,-2.6524,-2.6595,-2.7643,-2.8096,-2.8215,-2.9365,-2.9792,-2.9792,-2.9792,-2.9792,-2.9792,-1.7582,-1.7582,-1.7582,-1.7582,-1.7393,-1.7099,-1.6747,-1.646,-1.6166,-1.5872,-1.5784,-1.5784,-1.5784,-1.5784,-1.5784,-1.5784,-1.5784,-1.5784,-1.5784,-1.5784,-1.5784,-1.5784,-1.5784,-1.5784,-1.5784,-1.5257,-1.5008,-1.5008,-1.4419,-1.4235,-1.4509,-1.4222,-1.4242,-1.4502,-1.4215,-1.4088,-1.4088,-1.4088,-1.4088,-1.4088,-1.4088,-1.4088,-1.4088,-1.4088,-1.4088,-1.4088,-1.4088,-1.547,-1.7302,-1.7302,-1.8029,-1.9155,-2.0245,-2.0566,-2.0605,-2.0605,-2.0605,-2.0703,-2.1123,-2.12,-2.12,-2.12,-2.12,-2.1317,-2.1787,-2.1885,-2.1885,-2.1894,-2.1885,-2.1885,-2.1885,-2.1885,-2.1885,-2.1894,-2.1894,-2.1894,-2.1894,-2.2256,-2.2519,-2.2519,-2.2838,-2.3091,-2.3091,-2.3091,-2.3091,-2.3091,-2.3091,-2.3091,-2.3091,-2.3091,-2.3091,-2.3091,-2.3091,-2.3091,-2.3091,-2.4211,-2.4787,-2.4787,-2.5933,-2.6483,-2.6483,-2.6483,-2.6483,-2.6483,-2.6483,-2.6483,-2.6565,-2.7643,-2.8084,-2.8176,-2.9326,-2.9753,-2.9792,-2.9792,-2.9792,-2.9792,-1.7582,-1.7582,-1.7515,-1.7367,-1.7259,-1.7099,-1.6747,-1.646,-1.6239,-1.6152,-1.5959,-1.5784,-1.5784,-1.5784,-1.5784,-1.5784,-1.5784,-1.5784,-1.5784,-1.5784,-1.5784,-1.5784,-1.5784,-1.5784,-1.5784,-1.5257,-1.5008,-1.5008,-1.4419,-1.4128,-1.4215,-1.4128,-1.4135,-1.4215,-1.4128,-1.4088,-1.4088,-1.4088,-1.4088,-1.4088,-1.4088,-1.4088,-1.4088,-1.4088,-1.4088,-1.4088,-1.4088,-1.4985,-1.6067,-1.5311,-1.5794,-1.6756,-1.7074,-1.8212,-1.9536,-1.9814,-2.0448,-2.1133,-2.1572,-2.1689,-2.1689,-2.1689,-2.1689,-2.1807,-2.2227,-2.21,-2.1973,-2.2266,-2.209,-2.1885,-2.1885,-2.1885,-2.1982,-2.2275,-2.2324,-2.2432,-2.2682,-2.2828,-2.2906,-2.2906,-2.3023,-2.3091,-2.3091,-2.3091,-2.3091,-2.3091,-2.3091,-2.3091,-2.3091,-2.3091,-2.3091,-2.3091,-2.3091,-2.3091,-2.3091,-2.343,-2.3594,-2.3594,-2.393,-2.4092,-2.4092,-2.4092,-2.4092,-2.4092,-2.4092,-2.4092,-2.4178,-2.5326,-2.5775,-2.59,-2.7046,-2.7464,-2.7597,-2.8319,-2.8597,-2.8727,-1.7582,-1.7582,-1.7528,-1.7407,-1.728,-1.7139,-1.6907,-1.6583,-1.6321,-1.6321,-1.6012,-1.5784,-1.5784,-1.5784,-1.5784,-1.5784,-1.5784,-1.5784,-1.5784,-1.5784,-1.5784,-1.5784,-1.5784,-1.5784,-1.5784,-1.5257,-1.5008,-1.5008,-1.4419,-1.4088,-1.4088,-1.4088,-1.4088,-1.4088,-1.4088,-1.4088,-1.4088,-1.4088,-1.4088,-1.4088,-1.4088,-1.4088,-1.4088,-1.4088,-1.4088,-1.4102,-1.4215,-1.4881,-1.5643,-1.5078,-1.5531,-1.6273,-1.582,-1.7016,-1.858,-1.8815,-1.9404,-2.0126,-2.0528,-2.1029,-2.1466,-2.1627,-2.1899,-2.2246,-2.2666,-2.2568,-2.2451,-2.2705,-2.2559,-2.2383,-2.2383,-2.2383,-2.2461,-2.2715,-2.2721,-2.2808,-2.3062,-2.3091,-2.3091,-2.3091,-2.3091,-2.3091,-2.3091,-2.3091,-2.3091,-2.3091,-2.3091,-2.3091,-2.3091,-2.3091,-2.3091,-2.3091,-2.3091,-2.3091,-2.3091,-2.3091,-2.3091,-2.3091,-2.3091,-2.3091,-2.3091,-2.3091,-2.3091,-2.3091,-2.3091,-2.3091,-2.3178,-2.4339,-2.4787,-2.4914,-2.6058,-2.6524,-2.6637,-2.7683,-2.8096,-2.8255,-1.7582,-1.7582,-1.7582,-1.7582,-1.7414,-1.7239,-1.7239,-1.6764,-1.6388,-1.6319,-1.6052,-1.5811,-1.5784,-1.5784,-1.5784,-1.5784,-1.5784,-1.5784,-1.5784,-1.5784,-1.5784,-1.5784,-1.5784,-1.5784,-1.5784,-1.5284,-1.5048,-1.5048,-1.4416,-1.4128,-1.4128,-1.4095,-1.4088,-1.4088,-1.4088,-1.4088,-1.4088,-1.4088,-1.4088,-1.4088,-1.4088,-1.4088,-1.4088,-1.4088,-1.4088,-1.4128,-1.4416,-1.4971,-1.5627,-1.5909,-1.6538,-1.7065,-1.6076,-1.675,-1.7853,-1.7894,-1.8038,-1.8322,-1.8769,-1.971,-2.072,-2.1158,-2.1848,-2.2528,-2.3003,-2.3091,-2.3091,-2.3091,-2.3091,-2.3091,-2.3091,-2.3091,-2.3091,-2.3091,-2.3091,-2.3091,-2.3091,-2.3091,-2.3091,-2.3091,-2.3091,-2.3091,-2.3091,-2.3091,-2.3091,-2.3091,-2.3091,-2.3091,-2.3091,-2.3091,-2.3091,-2.3091,-2.3091,-2.3091,-2.3091,-2.3091,-2.3091,-2.3091,-2.3091,-2.3091,-2.3091,-2.3091,-2.3091,-2.3091,-2.3091,-2.3091,-2.3178,-2.4211,-2.467,-2.4745,-2.5808,-2.6193,-2.6348,-2.7522,-2.7976,-2.8136,-1.7542,-1.7582,-1.7582,-1.7582,-1.7528,-1.7488,-1.7488,-1.7239,-1.6924,-1.664,-1.6359,-1.6086,-1.5804,-1.5784,-1.5784,-1.5784,-1.5784,-1.5784,-1.5784,-1.5784,-1.5784,-1.5784,-1.5784,-1.5784,-1.5784,-1.5484,-1.5304,-1.5304,-1.4716,-1.4429,-1.4422,-1.4195,-1.4088,-1.4088,-1.4088,-1.4088,-1.4088,-1.4088,-1.4088,-1.4088,-1.4088,-1.4088,-1.4088,-1.4088,-1.4088,-1.4128,-1.4416,-1.4599,-1.4802,-1.5109,-1.5892,-1.6726,-1.6466,-1.7204,-1.8185,-1.8507,-1.8638,-1.8778,-1.9229,-1.9554,-2.0022,-2.1051,-2.1416,-2.1831,-2.2843,-2.3091,-2.3091,-2.3091,-2.3091,-2.3091,-2.3091,-2.3091,-2.3091,-2.3091,-2.3091,-2.3091,-2.3091,-2.3091,-2.3091,-2.3091,-2.3091,-2.3091,-2.3091,-2.3091,-2.3091,-2.3091,-2.3091,-2.3091,-2.3091,-2.3091,-2.3091,-2.3091,-2.3091,-2.3091,-2.3091,-2.3091,-2.3091,-2.3091,-2.3091,-2.3091,-2.3091,-2.3091,-2.3091,-2.3091,-2.3091,-2.3091,-2.3135,-2.3387,-2.3464,-2.3507,-2.3724,-2.3854,-2.4102,-2.6088,-2.6842,-2.7128,-1.7555,-1.7582,-1.7582,-1.7582,-1.7582,-1.7582,-1.7582,-1.7387,-1.7146,-1.6941,-1.666,-1.6366,-1.6072,-1.6039,-1.5985,-1.5791,-1.5784,-1.5784,-1.5784,-1.5784,-1.5784,-1.5784,-1.5784,-1.5784,-1.5784,-1.5678,-1.5471,-1.519,-1.4736,-1.4449,-1.4309,-1.4162,-1.4088,-1.4088,-1.4088,-1.4088,-1.4088,-1.4088,-1.4088,-1.4088,-1.4088,-1.4168,-1.4295,-1.4295,-1.4382,-1.4543,-1.4836,-1.4937,-1.4943,-1.4957,-1.5353,-1.5821,-1.5821,-1.6321,-1.6914,-1.7124,-1.7288,-1.7445,-1.7663,-1.8172,-1.8772,-1.9405,-2.0034,-2.089,-2.2677,-2.3091,-2.295,-2.2359,-2.2677,-2.2906,-2.235,-2.2721,-2.3091,-2.3091,-2.3091,-2.3091,-2.3091,-2.3091,-2.3091,-2.3091,-2.3091,-2.3091,-2.3091,-2.3091,-2.3091,-2.3091,-2.3091,-2.3091,-2.3091,-2.3091,-2.3091,-2.3091,-2.3091,-2.3091,-2.3091,-2.3091,-2.3091,-2.3091,-2.3091,-2.3091,-2.3091,-2.3091,-2.3091,-2.3091,-2.3091,-2.3091,-2.3091,-2.3091,-2.2974,-2.2799,-2.2799,-2.2715,-2.2742,-2.4436,-2.5506,-2.6443,-1.7369,-1.7475,-1.7508,-1.7508,-1.7549,-1.7562,-1.7515,-1.7353,-1.7166,-1.7065,-1.6787,-1.652,-1.6226,-1.6192,-1.6099,-1.5804,-1.5784,-1.5784,-1.5784,-1.5784,-1.5784,-1.5784,-1.5784,-1.5784,-1.5784,-1.5784,-1.5571,-1.5082,-1.4743,-1.4442,-1.4162,-1.4162,-1.4135,-1.4088,-1.4135,-1.4162,-1.4162,-1.4162,-1.4188,-1.4235,-1.4235,-1.4382,-1.4596,-1.4596,-1.475,-1.5048,-1.5291,-1.5431,-1.5431,-1.5197,-1.5156,-1.5156,-1.5156,-1.5277,-1.5471,-1.5471,-1.5645,-1.5784,-1.5784,-1.6574,-1.7412,-1.7645,-1.8457,-1.977,-2.1996,-2.2501,-2.2183,-2.1203,-2.1943,-2.2492,-2.148,-2.2306,-2.3091,-2.3091,-2.3091,-2.3091,-2.3091,-2.3091,-2.3091,-2.3091,-2.3091,-2.3091,-2.3091,-2.3091,-2.3091,-2.3091,-2.3091,-2.3091,-2.3091,-2.3091,-2.3091,-2.3091,-2.3091,-2.3091,-2.3091,-2.3091,-2.3091,-2.3091,-2.3091,-2.3091,-2.3091,-2.3091,-2.3091,-2.3091,-2.3091,-2.3091,-2.3091,-2.3091,-2.2886,-2.2617,-2.2539,-2.2305,-2.2148,-2.3225,-2.4537,-2.5989,-1.6566,-1.7079,-1.7259,-1.7259,-1.7467,-1.7502,-1.73,-1.7226,-1.7018,-1.6509,-1.6359,-1.6219,-1.5919,-1.5885,-1.5872,-1.5784,-1.5784,-1.5784,-1.5784,-1.5784,-1.5784,-1.5784,-1.5784,-1.5784,-1.5784,-1.5784,-1.5665,-1.5337,-1.5089,-1.4756,-1.4462,-1.4462,-1.4329,-1.4095,-1.4349,-1.4462,-1.4462,-1.4462,-1.4609,-1.4894,-1.4894,-1.4914,-1.4948,-1.4948,-1.4975,-1.5048,-1.5291,-1.5558,-1.5718,-1.5678,-1.5712,-1.5712,-1.5712,-1.5738,-1.5772,-1.5772,-1.5751,-1.5784,-1.5784,-1.592,-1.6339,-1.7412,-1.7824,-1.8319,-1.9679,-1.9997,-1.9943,-1.9761,-2.0711,-2.1471,-2.1337,-2.2306,-2.3091,-2.3091,-2.3091,-2.3091,-2.3091,-2.3091,-2.3091,-2.3091,-2.3091,-2.3091,-2.3091,-2.3091,-2.3091,-2.3091,-2.3091,-2.3091,-2.3091,-2.3091,-2.3091,-2.3091,-2.3091,-2.3091,-2.3091,-2.3091,-2.3091,-2.3091,-2.3091,-2.3091,-2.3091,-2.3091,-2.3091,-2.3091,-2.3091,-2.3091,-2.3091,-2.3091,-2.3062,-2.2974,-2.2656,-2.248,-2.2549,-2.3712,-2.483,-2.5824,-1.5591,-1.64,-1.6901,-1.6901,-1.7007,-1.7048,-1.6921,-1.6901,-1.6807,-1.6547,-1.6513,-1.64,-1.6112,-1.5925,-1.5784,-1.5784,-1.5784,-1.5784,-1.5784,-1.5784,-1.5784,-1.5784,-1.5784,-1.5784,-1.5784,-1.5784,-1.5691,-1.5398,-1.5264,-1.5057,-1.477,-1.477,-1.4703,-1.4626,-1.471,-1.477,-1.477,-1.477,-1.4843,-1.5008,-1.5008,-1.5109,-1.5204,-1.5204,-1.5304,-1.5464,-1.5591,-1.5718,-1.5784,-1.5784,-1.5784,-1.5784,-1.5784,-1.5784,-1.5784,-1.5784,-1.5784,-1.5784,-1.5784,-1.5784,-1.592,-1.648,-1.6622,-1.6803,-1.7296,-1.7436,-1.7623,-1.8365,-1.9988,-2.1114,-2.044,-2.181,-2.3091,-2.3091,-2.3091,-2.3091,-2.3091,-2.3091,-2.3091,-2.3091,-2.3091,-2.3091,-2.3091,-2.3091,-2.3091,-2.3091,-2.3091,-2.3091,-2.3091,-2.3091,-2.3091,-2.3091,-2.3091,-2.3091,-2.3091,-2.3091,-2.3091,-2.3091,-2.3091,-2.3091,-2.3091,-2.3091,-2.3091,-2.3091,-2.3091,-2.3091,-2.3091,-2.3091,-2.2818,-2.2422,-2.2236,-2.1865,-2.1565,-2.2531,-2.3197,-2.3781]}]]